Time,TemperatureF,DewpointF,PressureIn,WindDirection,WindDirectionDegrees,WindSpeedMPH,WindSpeedGustMPH,Humidity,HourlyPrecipIn,Conditions,Clouds,dailyrainin,SoftwareType,DateUTC
2013-10-18 00:00:00,59.5,0.0,29.68,SSE,166,0.0,6.2,0,0.00,,---,0.00,VWS V14.00,2013-10-18 04:00:00,
2013-10-18 00:01:00,59.3,0.0,29.68,SSW,204,0.0,0.0,0,0.00,,---,0.00,VWS V14.00,2013-10-18 04:01:00,
2013-10-18 00:02:00,59.4,0.0,29.68,SSE,167,0.0,6.2,0,0.00,,---,0.00,VWS V14.00,2013-10-18 04:02:00,
2013-10-18 00:03:00,59.5,0.0,29.68,SSE,167,0.0,6.2,0,0.01,,---,0.01,VWS V14.00,2013-10-18 04:03:00,
2013-10-18 00:04:00,59.5,0.0,29.68,SW,232,0.0,6.2,0,0.01,,---,0.01,VWS V14.00,2013-10-18 04:04:00,
2013-10-18 00:05:00,59.4,0.0,29.68,SSW,194,0.0,5.4,0,0.01,,---,0.01,VWS V14.00,2013-10-18 04:05:00,
2013-10-18 00:06:00,59.3,0.0,29.69,SSW,198,0.0,0.0,0,0.00,,---,0.00,VWS V14.00,2013-10-18 04:06:00,
2013-10-18 00:07:00,59.4,0.0,29.68,South,179,0.0,5.4,0,0.01,,---,0.01,VWS V14.00,2013-10-18 04:07:00,
2013-10-18 00:08:00,59.3,0.0,29.68,South,179,0.0,5.4,0,0.01,,---,0.01,VWS V14.00,2013-10-18 04:08:00,
2013-10-18 00:09:00,59.1,0.0,29.68,SSW,200,5.2,5.4,0,0.02,,---,0.02,VWS V14.00,2013-10-18 04:09:00,
2013-10-18 00:10:00,59.1,0.0,29.68,South,176,4.2,5.7,0,0.02,,---,0.02,VWS V14.00,2013-10-18 04:10:00,
2013-10-18 00:11:00,59.4,0.0,29.69,South,191,0.0,2.7,0,0.00,,---,0.00,VWS V14.00,2013-10-18 04:11:00,
2013-10-18 00:12:00,58.9,0.0,29.68,SSW,201,3.3,5.7,0,0.02,,---,0.02,VWS V14.00,2013-10-18 04:12:00,
2013-10-18 00:13:00,58.9,0.0,29.68,SSW,211,5.8,5.8,0,0.02,,---,0.02,VWS V14.00,2013-10-18 04:13:00,
2013-10-18 00:14:00,58.9,0.0,29.68,SW,218,5.2,5.7,0,0.03,,---,0.03,VWS V14.00,2013-10-18 04:14:00,
2013-10-18 00:15:00,58.9,0.0,29.68,SSW,212,5.3,6.7,0,0.03,,---,0.03,VWS V14.00,2013-10-18 04:15:00,
2013-10-18 00:16:00,59.5,0.0,29.69,South,191,0.0,5.2,0,0.00,,---,0.00,VWS V14.00,2013-10-18 04:16:00,
2013-10-18 00:17:00,58.9,0.0,29.67,WSW,245,4.3,6.7,0,0.03,,---,0.03,VWS V14.00,2013-10-18 04:17:00,
2013-10-18 00:18:00,58.9,0.0,29.67,WSW,245,0.0,6.7,0,0.03,,---,0.03,VWS V14.00,2013-10-18 04:18:00,
2013-10-18 00:19:00,58.9,0.0,29.67,WSW,245,0.0,6.7,0,0.03,,---,0.03,VWS V14.00,2013-10-18 04:19:00,
2013-10-18 00:20:00,58.9,0.0,29.67,WSW,245,0.0,5.6,0,0.03,,---,0.03,VWS V14.00,2013-10-18 04:20:00,
2013-10-18 00:21:00,59.5,0.0,29.69,SW,215,0.0,0.0,0,0.00,,---,0.00,VWS V14.00,2013-10-18 04:21:00,
2013-10-18 00:22:00,58.9,0.0,29.67,WSW,245,0.0,5.6,0,0.03,,---,0.03,VWS V14.00,2013-10-18 04:22:00,
2013-10-18 00:23:00,58.9,0.0,29.67,WSW,245,0.0,5.6,0,0.03,,---,0.03,VWS V14.00,2013-10-18 04:23:00,
2013-10-18 00:24:00,58.9,0.0,29.67,WSW,245,0.0,5.6,0,0.03,,---,0.03,VWS V14.00,2013-10-18 04:24:00,
2013-10-18 00:25:00,58.9,0.0,29.67,WSW,245,0.0,0.0,0,0.03,,---,0.03,VWS V14.00,2013-10-18 04:25:00,
2013-10-18 00:26:00,59.5,0.0,29.69,SW,222,0.0,3.0,0,0.00,,---,0.00,VWS V14.00,2013-10-18 04:26:00,
2013-10-18 00:27:00,58.9,0.0,29.67,WSW,245,0.0,0.0,0,0.04,,---,0.04,VWS V14.00,2013-10-18 04:27:00,
2013-10-18 00:28:00,58.9,0.0,29.67,WSW,245,0.0,0.0,0,0.04,,---,0.04,VWS V14.00,2013-10-18 04:28:00,
2013-10-18 00:29:00,58.8,0.0,29.68,WSW,245,0.0,0.0,0,0.04,,---,0.04,VWS V14.00,2013-10-18 04:29:00,
2013-10-18 00:30:00,58.8,0.0,29.67,WSW,245,0.0,0.0,0,0.04,,---,0.04,VWS V14.00,2013-10-18 04:30:00,
2013-10-18 00:31:00,59.4,0.0,29.69,SW,222,0.0,0.0,0,0.00,,---,0.00,VWS V14.00,2013-10-18 04:31:00,
2013-10-18 00:32:00,58.8,0.0,29.67,WSW,245,0.0,0.0,0,0.04,,---,0.04,VWS V14.00,2013-10-18 04:32:00,
2013-10-18 00:33:00,58.8,0.0,29.67,WSW,245,0.0,0.0,0,0.04,,---,0.04,VWS V14.00,2013-10-18 04:33:00,
2013-10-18 00:34:00,58.8,0.0,29.67,WSW,245,0.0,0.0,0,0.04,,---,0.04,VWS V14.00,2013-10-18 04:34:00,
2013-10-18 00:35:00,58.8,0.0,29.67,WSW,245,0.0,0.0,0,0.05,,---,0.05,VWS V14.00,2013-10-18 04:35:00,
2013-10-18 00:36:00,59.5,0.0,29.69,SW,218,0.0,0.0,0,0.00,,---,0.00,VWS V14.00,2013-10-18 04:36:00,
2013-10-18 00:37:00,58.8,0.0,29.67,WSW,245,0.0,0.0,0,0.05,,---,0.05,VWS V14.00,2013-10-18 04:37:00,
2013-10-18 00:38:00,58.8,0.0,29.67,WSW,245,0.0,0.0,0,0.05,,---,0.05,VWS V14.00,2013-10-18 04:38:00,
2013-10-18 00:39:00,58.8,0.0,29.67,WSW,245,0.0,0.0,0,0.05,,---,0.05,VWS V14.00,2013-10-18 04:39:00,
2013-10-18 00:40:00,58.8,0.0,29.66,WSW,245,0.0,0.0,0,0.05,,---,0.05,VWS V14.00,2013-10-18 04:40:00,
2013-10-18 00:41:00,59.7,0.0,29.69,South,184,0.0,5.3,0,0.00,,---,0.00,VWS V14.00,2013-10-18 04:41:00,
2013-10-18 00:42:00,58.9,0.0,29.66,WSW,245,0.0,0.0,0,0.05,,---,0.05,VWS V14.00,2013-10-18 04:42:00,
2013-10-18 00:43:00,58.9,0.0,29.66,WSW,245,0.0,0.0,0,0.05,,---,0.05,VWS V14.00,2013-10-18 04:43:00,
2013-10-18 00:44:00,59.0,0.0,29.66,WSW,245,0.0,0.0,0,0.05,,---,0.05,VWS V14.00,2013-10-18 04:44:00,
2013-10-18 00:45:00,58.9,0.0,29.66,WSW,245,0.0,0.0,0,0.05,,---,0.05,VWS V14.00,2013-10-18 04:45:00,
2013-10-18 00:46:00,59.5,0.0,29.68,SSW,197,3.5,5.2,0,0.00,,---,0.00,VWS V14.00,2013-10-18 04:46:00,
2013-10-18 00:47:00,59.0,0.0,29.65,WSW,245,0.0,0.0,0,0.05,,---,0.05,VWS V14.00,2013-10-18 04:47:00,
2013-10-18 00:48:00,59.0,0.0,29.65,WSW,245,0.0,0.0,0,0.05,,---,0.05,VWS V14.00,2013-10-18 04:48:00,
2013-10-18 00:49:00,59.0,0.0,29.65,WSW,245,0.0,0.0,0,0.05,,---,0.05,VWS V14.00,2013-10-18 04:49:00,
2013-10-18 00:50:00,59.0,0.0,29.65,WSW,245,0.0,0.0,0,0.05,,---,0.05,VWS V14.00,2013-10-18 04:50:00,
2013-10-18 00:51:00,59.0,0.0,29.65,WSW,245,0.0,0.0,0,0.05,,---,0.05,VWS V14.00,2013-10-18 04:51:00,
2013-10-18 00:52:00,58.9,0.0,29.65,WSW,245,0.0,0.0,0,0.05,,---,0.05,VWS V14.00,2013-10-18 04:52:00,
2013-10-18 00:53:00,59.0,0.0,29.65,WSW,245,0.0,0.0,0,0.05,,---,0.05,VWS V14.00,2013-10-18 04:53:00,
2013-10-18 00:54:00,58.9,0.0,29.65,WSW,245,0.0,0.0,0,0.05,,---,0.05,VWS V14.00,2013-10-18 04:54:00,
2013-10-18 00:55:00,58.9,0.0,29.65,WSW,245,0.0,0.0,0,0.05,,---,0.05,VWS V14.00,2013-10-18 04:55:00,
2013-10-18 00:56:00,58.9,0.0,29.65,WSW,245,0.0,0.0,0,0.05,,---,0.05,VWS V14.00,2013-10-18 04:56:00,
2013-10-18 00:57:00,58.9,0.0,29.65,WSW,245,0.0,0.0,0,0.05,,---,0.05,VWS V14.00,2013-10-18 04:57:00,
2013-10-18 00:58:00,58.8,0.0,29.65,WSW,245,0.0,0.0,0,0.05,,---,0.05,VWS V14.00,2013-10-18 04:58:00,
2013-10-18 00:59:00,58.8,0.0,29.65,WSW,245,0.0,0.0,0,0.05,,---,0.05,VWS V14.00,2013-10-18 04:59:00,
2013-10-18 01:00:00,58.8,0.0,29.65,WSW,245,0.0,0.0,0,0.05,,---,0.05,VWS V14.00,2013-10-18 05:00:00,
2013-10-18 01:01:00,58.8,0.0,29.65,WSW,245,0.0,0.0,0,0.05,,---,0.05,VWS V14.00,2013-10-18 05:01:00,
2013-10-18 01:02:00,58.8,0.0,29.65,WSW,245,0.0,0.0,0,0.05,,---,0.05,VWS V14.00,2013-10-18 05:02:00,
2013-10-18 01:03:00,58.8,0.0,29.65,WSW,245,0.0,0.0,0,0.05,,---,0.05,VWS V14.00,2013-10-18 05:03:00,
2013-10-18 01:04:00,58.8,0.0,29.65,WSW,245,0.0,0.0,0,0.05,,---,0.05,VWS V14.00,2013-10-18 05:04:00,
2013-10-18 01:05:00,58.7,0.0,29.65,WSW,245,0.0,0.0,0,0.05,,---,0.05,VWS V14.00,2013-10-18 05:05:00,
2013-10-18 01:06:00,58.7,0.0,29.65,WSW,245,0.0,0.0,0,0.05,,---,0.05,VWS V14.00,2013-10-18 05:06:00,
2013-10-18 01:07:00,58.6,0.0,29.65,WSW,245,0.0,0.0,0,0.05,,---,0.05,VWS V14.00,2013-10-18 05:07:00,
2013-10-18 01:08:00,58.5,0.0,29.66,WSW,245,0.0,0.0,0,0.05,,---,0.05,VWS V14.00,2013-10-18 05:08:00,
2013-10-18 01:09:00,58.6,0.0,29.66,WSW,245,0.0,0.0,0,0.05,,---,0.05,VWS V14.00,2013-10-18 05:09:00,
2013-10-18 01:10:00,58.7,0.0,29.66,WSW,245,0.0,0.0,0,0.05,,---,0.05,VWS V14.00,2013-10-18 05:10:00,
2013-10-18 01:11:00,58.6,0.0,29.66,WSW,245,0.0,0.0,0,0.05,,---,0.05,VWS V14.00,2013-10-18 05:11:00,
2013-10-18 01:12:00,58.6,0.0,29.66,WSW,245,0.0,0.0,0,0.05,,---,0.05,VWS V14.00,2013-10-18 05:12:00,
2013-10-18 01:13:00,58.6,0.0,29.66,WSW,245,0.0,0.0,0,0.05,,---,0.05,VWS V14.00,2013-10-18 05:13:00,
2013-10-18 01:14:00,58.6,0.0,29.66,WSW,245,0.0,0.0,0,0.05,,---,0.05,VWS V14.00,2013-10-18 05:14:00,
2013-10-18 01:15:00,58.7,0.0,29.66,WSW,245,0.0,0.0,0,0.05,,---,0.05,VWS V14.00,2013-10-18 05:15:00,
2013-10-18 01:16:00,58.7,0.0,29.66,WSW,245,0.0,0.0,0,0.05,,---,0.05,VWS V14.00,2013-10-18 05:16:00,
2013-10-18 01:17:00,58.6,0.0,29.66,WSW,245,0.0,0.0,0,0.05,,---,0.05,VWS V14.00,2013-10-18 05:17:00,
2013-10-18 01:18:00,58.5,0.0,29.66,WSW,245,0.0,0.0,0,0.05,,---,0.05,VWS V14.00,2013-10-18 05:18:00,
2013-10-18 01:19:00,58.5,0.0,29.66,WSW,245,0.0,0.0,0,0.05,,---,0.05,VWS V14.00,2013-10-18 05:19:00,
2013-10-18 01:20:00,58.5,0.0,29.66,WSW,245,0.0,0.0,0,0.05,,---,0.05,VWS V14.00,2013-10-18 05:20:00,
2013-10-18 01:21:00,58.6,0.0,29.66,WSW,245,0.0,0.0,0,0.05,,---,0.05,VWS V14.00,2013-10-18 05:21:00,
2013-10-18 01:22:00,58.6,0.0,29.66,WSW,245,0.0,0.0,0,0.05,,---,0.05,VWS V14.00,2013-10-18 05:22:00,
2013-10-18 01:23:00,58.6,0.0,29.66,WSW,245,0.0,0.0,0,0.05,,---,0.05,VWS V14.00,2013-10-18 05:23:00,
2013-10-18 01:24:00,58.5,0.0,29.66,WSW,245,0.0,0.0,0,0.05,,---,0.05,VWS V14.00,2013-10-18 05:24:00,
2013-10-18 01:25:00,58.5,0.0,29.66,WSW,245,0.0,0.0,0,0.05,,---,0.05,VWS V14.00,2013-10-18 05:25:00,
2013-10-18 01:26:00,58.5,0.0,29.66,WSW,245,0.0,0.0,0,0.05,,---,0.05,VWS V14.00,2013-10-18 05:26:00,
2013-10-18 01:27:00,58.4,0.0,29.66,SSE,166,4.6,0.0,0,0.05,,---,0.05,VWS V14.00,2013-10-18 05:27:00,
2013-10-18 01:28:00,58.3,0.0,29.65,SE,138,3.0,0.0,0,0.05,,---,0.05,VWS V14.00,2013-10-18 05:28:00,
2013-10-18 01:29:00,58.3,0.0,29.65,SSE,152,4.2,0.0,0,0.05,,---,0.05,VWS V14.00,2013-10-18 05:29:00,
2013-10-18 01:30:00,58.4,0.0,29.65,SSE,152,0.0,6.7,0,0.05,,---,0.05,VWS V14.00,2013-10-18 05:30:00,
2013-10-18 01:31:00,58.4,0.0,29.65,SSE,152,0.0,6.7,0,0.05,,---,0.05,VWS V14.00,2013-10-18 05:31:00,
2013-10-18 01:32:00,58.4,0.0,29.65,SSE,152,0.0,6.7,0,0.05,,---,0.05,VWS V14.00,2013-10-18 05:32:00,
2013-10-18 01:33:00,58.4,0.0,29.65,SSE,152,0.0,6.7,0,0.05,,---,0.05,VWS V14.00,2013-10-18 05:33:00,
2013-10-18 01:34:00,58.4,0.0,29.65,SE,139,5.0,6.7,0,0.05,,---,0.05,VWS V14.00,2013-10-18 05:34:00,
2013-10-18 01:35:00,58.5,0.0,29.65,SSE,163,4.3,6.0,0,0.05,,---,0.05,VWS V14.00,2013-10-18 05:35:00,
2013-10-18 01:36:00,58.5,0.0,29.65,SSE,150,0.0,6.0,0,0.05,,---,0.05,VWS V14.00,2013-10-18 05:36:00,
2013-10-18 01:37:00,58.6,0.0,29.65,SSE,166,0.0,6.0,0,0.05,,---,0.05,VWS V14.00,2013-10-18 05:37:00,
2013-10-18 01:38:00,58.7,0.0,29.65,SSE,166,0.0,6.0,0,0.05,,---,0.05,VWS V14.00,2013-10-18 05:38:00,
2013-10-18 01:39:00,58.7,0.0,29.64,SE,143,4.9,6.0,0,0.05,,---,0.05,VWS V14.00,2013-10-18 05:39:00,
2013-10-18 01:40:00,58.7,0.0,29.64,SE,142,5.0,5.8,0,0.05,,---,0.05,VWS V14.00,2013-10-18 05:40:00,
2013-10-18 01:41:00,58.7,0.0,29.64,SSE,166,5.2,5.8,0,0.05,,---,0.05,VWS V14.00,2013-10-18 05:41:00,
2013-10-18 01:42:00,58.7,0.0,29.64,SSE,155,3.4,5.8,0,0.05,,---,0.05,VWS V14.00,2013-10-18 05:42:00,
2013-10-18 01:43:00,58.8,0.0,29.64,SE,135,0.0,5.8,0,0.05,,---,0.05,VWS V14.00,2013-10-18 05:43:00,
2013-10-18 01:44:00,58.8,0.0,29.64,ESE,122,4.7,5.8,0,0.05,,---,0.05,VWS V14.00,2013-10-18 05:44:00,
2013-10-18 01:45:00,58.8,0.0,29.64,SE,125,0.0,5.6,0,0.05,,---,0.05,VWS V14.00,2013-10-18 05:45:00,
2013-10-18 01:46:00,58.8,0.0,29.64,SE,125,0.0,5.6,0,0.05,,---,0.05,VWS V14.00,2013-10-18 05:46:00,
2013-10-18 01:47:00,58.8,0.0,29.64,SE,125,0.0,5.6,0,0.05,,---,0.05,VWS V14.00,2013-10-18 05:47:00,
2013-10-18 01:48:00,58.8,0.0,29.64,SSE,148,0.0,5.6,0,0.05,,---,0.05,VWS V14.00,2013-10-18 05:48:00,
2013-10-18 01:49:00,58.9,0.0,29.65,SE,141,0.0,5.6,0,0.05,,---,0.05,VWS V14.00,2013-10-18 05:49:00,
2013-10-18 01:50:00,59.0,0.0,29.65,SSE,155,0.0,4.5,0,0.05,,---,0.05,VWS V14.00,2013-10-18 05:50:00,
2013-10-18 01:51:00,59.0,0.0,29.65,SSE,155,0.0,4.5,0,0.05,,---,0.05,VWS V14.00,2013-10-18 05:51:00,
2013-10-18 01:52:00,59.0,0.0,29.65,SSE,155,0.0,4.5,0,0.05,,---,0.05,VWS V14.00,2013-10-18 05:52:00,
2013-10-18 01:53:00,59.0,0.0,29.65,SSE,155,0.0,4.5,0,0.05,,---,0.05,VWS V14.00,2013-10-18 05:53:00,
2013-10-18 01:54:00,59.0,0.0,29.64,SSE,155,0.0,4.5,0,0.05,,---,0.05,VWS V14.00,2013-10-18 05:54:00,
2013-10-18 01:55:00,59.1,0.0,29.64,South,177,0.0,4.5,0,0.05,,---,0.05,VWS V14.00,2013-10-18 05:55:00,
2013-10-18 01:56:00,59.1,0.0,29.64,South,177,0.0,3.0,0,0.05,,---,0.05,VWS V14.00,2013-10-18 05:56:00,
2013-10-18 01:57:00,59.1,0.0,29.64,South,177,0.0,3.0,0,0.05,,---,0.05,VWS V14.00,2013-10-18 05:57:00,
2013-10-18 01:58:00,59.1,0.0,29.64,South,177,0.0,3.0,0,0.05,,---,0.05,VWS V14.00,2013-10-18 05:58:00,
2013-10-18 01:59:00,59.2,0.0,29.64,South,177,0.0,3.0,0,0.05,,---,0.05,VWS V14.00,2013-10-18 05:59:00,
2013-10-18 02:00:00,59.2,0.0,29.64,South,177,0.0,3.0,0,0.05,,---,0.05,VWS V14.00,2013-10-18 06:00:00,
2013-10-18 02:01:00,59.2,0.0,29.64,South,177,0.0,0.0,0,0.05,,---,0.05,VWS V14.00,2013-10-18 06:01:00,
2013-10-18 02:02:00,59.2,0.0,29.64,South,177,0.0,0.0,0,0.05,,---,0.05,VWS V14.00,2013-10-18 06:02:00,
2013-10-18 02:03:00,59.2,0.0,29.64,South,177,0.0,0.0,0,0.05,,---,0.05,VWS V14.00,2013-10-18 06:03:00,
2013-10-18 02:04:00,59.2,0.0,29.64,South,177,0.0,0.0,0,0.05,,---,0.05,VWS V14.00,2013-10-18 06:04:00,
2013-10-18 02:05:00,59.3,0.0,29.63,South,177,0.0,0.0,0,0.05,,---,0.05,VWS V14.00,2013-10-18 06:05:00,
2013-10-18 02:06:00,59.3,0.0,29.63,SSE,165,0.0,0.0,0,0.05,,---,0.05,VWS V14.00,2013-10-18 06:06:00,
2013-10-18 02:07:00,59.4,0.0,29.63,SE,136,6.0,0.0,0,0.05,,---,0.05,VWS V14.00,2013-10-18 06:07:00,
2013-10-18 02:08:00,59.3,0.0,29.63,SSE,163,0.0,0.0,0,0.05,,---,0.05,VWS V14.00,2013-10-18 06:08:00,
2013-10-18 02:09:00,59.3,0.0,29.63,SSE,158,2.1,0.0,0,0.06,,---,0.06,VWS V14.00,2013-10-18 06:09:00,
2013-10-18 02:10:00,59.3,0.0,29.63,SSE,150,0.0,6.3,0,0.06,,---,0.06,VWS V14.00,2013-10-18 06:10:00,
2013-10-18 02:11:00,59.2,0.0,29.63,SSE,150,0.0,6.3,0,0.06,,---,0.06,VWS V14.00,2013-10-18 06:11:00,
2013-10-18 02:12:00,59.2,0.0,29.63,SSE,150,0.0,6.3,0,0.06,,---,0.06,VWS V14.00,2013-10-18 06:12:00,
2013-10-18 02:13:00,59.2,0.0,29.63,SSE,150,0.0,6.3,0,0.06,,---,0.06,VWS V14.00,2013-10-18 06:13:00,
2013-10-18 02:14:00,59.2,0.0,29.62,SSE,150,0.0,6.3,0,0.06,,---,0.06,VWS V14.00,2013-10-18 06:14:00,
2013-10-18 02:15:00,59.2,0.0,29.62,SSE,150,0.0,0.0,0,0.06,,---,0.06,VWS V14.00,2013-10-18 06:15:00,
2013-10-18 02:16:00,59.2,0.0,29.62,SSE,150,0.0,0.0,0,0.06,,---,0.06,VWS V14.00,2013-10-18 06:16:00,
2013-10-18 02:17:00,59.2,0.0,29.62,SSE,150,0.0,0.0,0,0.06,,---,0.06,VWS V14.00,2013-10-18 06:17:00,
2013-10-18 02:18:00,59.2,0.0,29.62,SSE,150,0.0,0.0,0,0.06,,---,0.06,VWS V14.00,2013-10-18 06:18:00,
2013-10-18 02:19:00,59.2,0.0,29.62,SSE,150,0.0,0.0,0,0.06,,---,0.06,VWS V14.00,2013-10-18 06:19:00,
2013-10-18 02:20:00,59.3,0.0,29.62,SSE,150,0.0,0.0,0,0.06,,---,0.06,VWS V14.00,2013-10-18 06:20:00,
2013-10-18 02:21:00,59.2,0.0,29.62,SSE,150,0.0,0.0,0,0.06,,---,0.06,VWS V14.00,2013-10-18 06:21:00,
2013-10-18 02:22:00,59.3,0.0,29.62,SSE,150,0.0,0.0,0,0.07,,---,0.07,VWS V14.00,2013-10-18 06:22:00,
2013-10-18 02:23:00,59.3,0.0,29.62,South,179,4.2,0.0,0,0.07,,---,0.07,VWS V14.00,2013-10-18 06:23:00,
2013-10-18 02:24:00,59.3,0.0,29.62,South,190,4.8,0.0,0,0.07,,---,0.07,VWS V14.00,2013-10-18 06:24:00,
2013-10-18 02:25:00,59.4,0.0,29.62,South,188,0.0,5.7,0,0.07,,---,0.07,VWS V14.00,2013-10-18 06:25:00,
2013-10-18 02:26:00,59.3,0.0,29.62,South,173,4.8,5.7,0,0.08,,---,0.08,VWS V14.00,2013-10-18 06:26:00,
2013-10-18 02:27:00,59.3,0.0,29.62,SSW,207,5.2,5.7,0,0.08,,---,0.08,VWS V14.00,2013-10-18 06:27:00,
2013-10-18 02:28:00,59.2,0.0,29.61,SSW,194,3.0,5.7,0,0.08,,---,0.08,VWS V14.00,2013-10-18 06:28:00,
2013-10-18 02:29:00,59.2,0.0,29.61,South,169,3.3,5.7,0,0.09,,---,0.09,VWS V14.00,2013-10-18 06:29:00,
2013-10-18 02:30:00,59.1,0.0,29.61,SSW,198,0.0,6.8,0,0.09,,---,0.09,VWS V14.00,2013-10-18 06:30:00,
2013-10-18 02:31:00,59.1,0.0,29.61,SSW,198,0.0,6.8,0,0.09,,---,0.09,VWS V14.00,2013-10-18 06:31:00,
2013-10-18 02:32:00,59.0,0.0,29.61,SSW,198,0.0,6.8,0,0.09,,---,0.09,VWS V14.00,2013-10-18 06:32:00,
2013-10-18 02:33:00,59.0,0.0,29.61,SSW,198,0.0,6.8,0,0.09,,---,0.09,VWS V14.00,2013-10-18 06:33:00,
2013-10-18 02:34:00,59.0,0.0,29.61,SSE,166,4.3,6.8,0,0.10,,---,0.10,VWS V14.00,2013-10-18 06:34:00,
2013-10-18 02:35:00,59.0,0.0,29.61,South,184,0.0,5.5,0,0.10,,---,0.10,VWS V14.00,2013-10-18 06:35:00,
2013-10-18 02:36:00,59.0,0.0,29.61,SSW,202,2.4,5.5,0,0.10,,---,0.10,VWS V14.00,2013-10-18 06:36:00,
2013-10-18 02:37:00,59.0,0.0,29.61,SSE,167,3.2,5.5,0,0.10,,---,0.10,VWS V14.00,2013-10-18 06:37:00,
2013-10-18 02:38:00,59.0,0.0,29.61,SE,125,4.2,5.5,0,0.10,,---,0.10,VWS V14.00,2013-10-18 06:38:00,
2013-10-18 02:39:00,59.0,0.0,29.61,South,181,5.8,5.8,0,0.10,,---,0.10,VWS V14.00,2013-10-18 06:39:00,
2013-10-18 02:40:00,59.0,0.0,29.61,SE,134,3.1,6.3,0,0.10,,---,0.10,VWS V14.00,2013-10-18 06:40:00,
2013-10-18 02:41:00,59.0,0.0,29.61,SSE,159,3.0,6.3,0,0.10,,---,0.10,VWS V14.00,2013-10-18 06:41:00,
2013-10-18 02:42:00,59.0,0.0,29.61,South,186,2.4,6.3,0,0.10,,---,0.10,VWS V14.00,2013-10-18 06:42:00,
2013-10-18 02:43:00,59.0,0.0,29.61,SSE,158,4.1,6.3,0,0.10,,---,0.10,VWS V14.00,2013-10-18 06:43:00,
2013-10-18 02:44:00,59.0,0.0,29.61,SSE,166,3.4,6.3,0,0.10,,---,0.10,VWS V14.00,2013-10-18 06:44:00,
2013-10-18 02:45:00,59.0,0.0,29.61,SSE,160,4.3,6.0,0,0.10,,---,0.10,VWS V14.00,2013-10-18 06:45:00,
2013-10-18 02:46:00,59.0,0.0,29.61,SE,134,2.5,6.0,0,0.10,,---,0.10,VWS V14.00,2013-10-18 06:46:00,
2013-10-18 02:47:00,59.0,0.0,29.61,SSE,162,0.0,6.0,0,0.10,,---,0.10,VWS V14.00,2013-10-18 06:47:00,
2013-10-18 02:48:00,59.0,0.0,29.60,SE,146,6.5,6.5,0,0.10,,---,0.10,VWS V14.00,2013-10-18 06:48:00,
2013-10-18 02:49:00,59.0,0.0,29.60,SSE,162,2.9,6.0,0,0.10,,---,0.10,VWS V14.00,2013-10-18 06:49:00,
2013-10-18 02:50:00,59.0,0.0,29.60,SSE,162,0.0,6.5,0,0.10,,---,0.10,VWS V14.00,2013-10-18 06:50:00,
2013-10-18 02:51:00,59.0,0.0,29.60,SSE,162,2.9,6.5,0,0.10,,---,0.10,VWS V14.00,2013-10-18 06:51:00,
2013-10-18 02:52:00,58.9,0.0,29.60,South,173,3.2,6.5,0,0.10,,---,0.10,VWS V14.00,2013-10-18 06:52:00,
2013-10-18 02:53:00,59.0,0.0,29.60,South,184,4.3,6.5,0,0.10,,---,0.10,VWS V14.00,2013-10-18 06:53:00,
2013-10-18 02:54:00,59.0,0.0,29.60,SSE,159,4.8,6.5,0,0.10,,---,0.10,VWS V14.00,2013-10-18 06:54:00,
2013-10-18 02:55:00,59.0,0.0,29.60,SSE,160,3.2,7.1,0,0.10,,---,0.10,VWS V14.00,2013-10-18 06:55:00,
2013-10-18 02:56:00,59.0,0.0,29.60,SE,145,5.7,7.1,0,0.10,,---,0.10,VWS V14.00,2013-10-18 06:56:00,
2013-10-18 02:57:00,59.0,0.0,29.60,SE,146,0.0,7.1,0,0.10,,---,0.10,VWS V14.00,2013-10-18 06:57:00,
2013-10-18 02:58:00,59.0,0.0,29.60,SSW,197,3.5,7.1,0,0.10,,---,0.10,VWS V14.00,2013-10-18 06:58:00,
2013-10-18 02:59:00,59.0,0.0,29.60,SSE,162,2.7,7.1,0,0.10,,---,0.10,VWS V14.00,2013-10-18 06:59:00,
2013-10-18 03:00:00,59.0,0.0,29.60,SSE,156,0.0,7.1,0,0.10,,---,0.10,VWS V14.00,2013-10-18 07:00:00,
2013-10-18 03:01:00,59.0,0.0,29.60,SSE,167,3.5,6.5,0,0.10,,---,0.10,VWS V14.00,2013-10-18 07:01:00,
2013-10-18 03:02:00,59.0,0.0,29.60,South,176,3.5,6.5,0,0.10,,---,0.10,VWS V14.00,2013-10-18 07:02:00,
2013-10-18 03:03:00,59.0,0.0,29.60,South,181,4.2,6.5,0,0.10,,---,0.10,VWS V14.00,2013-10-18 07:03:00,
2013-10-18 03:04:00,59.0,0.0,29.60,South,169,3.5,6.5,0,0.10,,---,0.10,VWS V14.00,2013-10-18 07:04:00,
2013-10-18 03:05:00,58.9,0.0,29.60,South,173,3.5,6.5,0,0.10,,---,0.10,VWS V14.00,2013-10-18 07:05:00,
2013-10-18 03:06:00,59.0,0.0,29.60,SE,143,3.0,7.5,0,0.10,,---,0.10,VWS V14.00,2013-10-18 07:06:00,
2013-10-18 03:07:00,59.0,0.0,29.60,South,184,5.8,7.5,0,0.10,,---,0.10,VWS V14.00,2013-10-18 07:07:00,
2013-10-18 03:08:00,59.0,0.0,29.60,SSE,167,2.7,7.5,0,0.10,,---,0.10,VWS V14.00,2013-10-18 07:08:00,
2013-10-18 03:09:00,59.0,0.0,29.59,South,183,8.7,8.7,0,0.10,,---,0.10,VWS V14.00,2013-10-18 07:09:00,
2013-10-18 03:10:00,59.0,0.0,29.59,SW,226,4.2,8.8,0,0.10,,---,0.10,VWS V14.00,2013-10-18 07:10:00,
2013-10-18 03:11:00,59.0,0.0,29.60,SSE,155,3.4,8.8,0,0.10,,---,0.10,VWS V14.00,2013-10-18 07:11:00,
2013-10-18 03:12:00,59.0,0.0,29.59,SE,145,2.7,8.8,0,0.10,,---,0.10,VWS V14.00,2013-10-18 07:12:00,
2013-10-18 03:13:00,59.0,0.0,29.60,SSE,159,4.2,8.8,0,0.10,,---,0.10,VWS V14.00,2013-10-18 07:13:00,
2013-10-18 03:14:00,59.0,0.0,29.59,SE,146,4.7,8.8,0,0.10,,---,0.10,VWS V14.00,2013-10-18 07:14:00,
2013-10-18 03:15:00,59.0,0.0,29.59,SSW,208,3.2,8.3,0,0.10,,---,0.10,VWS V14.00,2013-10-18 07:15:00,
2013-10-18 03:16:00,59.0,0.0,29.59,South,187,3.2,8.3,0,0.10,,---,0.10,VWS V14.00,2013-10-18 07:16:00,
2013-10-18 03:17:00,59.1,0.0,29.59,SSE,155,3.2,8.3,0,0.10,,---,0.10,VWS V14.00,2013-10-18 07:17:00,
2013-10-18 03:18:00,59.0,0.0,29.59,South,191,0.0,8.3,0,0.10,,---,0.10,VWS V14.00,2013-10-18 07:18:00,
2013-10-18 03:19:00,59.1,0.0,29.60,South,174,3.5,8.3,0,0.10,,---,0.10,VWS V14.00,2013-10-18 07:19:00,
2013-10-18 03:20:00,59.0,0.0,29.60,SSW,200,5.6,7.7,0,0.10,,---,0.10,VWS V14.00,2013-10-18 07:20:00,
2013-10-18 03:21:00,59.1,0.0,29.60,SSE,160,6.4,7.7,0,0.10,,---,0.10,VWS V14.00,2013-10-18 07:21:00,
2013-10-18 03:22:00,59.1,0.0,29.60,SSE,156,0.0,7.7,0,0.10,,---,0.10,VWS V14.00,2013-10-18 07:22:00,
2013-10-18 03:23:00,59.1,0.0,29.60,SSE,163,5.0,7.7,0,0.10,,---,0.10,VWS V14.00,2013-10-18 07:23:00,
2013-10-18 03:24:00,59.1,0.0,29.59,SSE,153,3.0,7.7,0,0.10,,---,0.10,VWS V14.00,2013-10-18 07:24:00,
2013-10-18 03:25:00,59.1,0.0,29.59,SSE,166,6.4,9.6,0,0.10,,---,0.10,VWS V14.00,2013-10-18 07:25:00,
2013-10-18 03:26:00,59.0,0.0,29.59,South,190,4.5,9.6,0,0.10,,---,0.10,VWS V14.00,2013-10-18 07:26:00,
2013-10-18 03:27:00,59.1,0.0,29.59,South,173,5.7,9.6,0,0.10,,---,0.10,VWS V14.00,2013-10-18 07:27:00,
2013-10-18 03:28:00,59.1,0.0,29.59,SSE,149,7.8,9.6,0,0.10,,---,0.10,VWS V14.00,2013-10-18 07:28:00,
2013-10-18 03:29:00,59.1,0.0,29.59,SSE,153,0.0,9.6,0,0.10,,---,0.10,VWS V14.00,2013-10-18 07:29:00,
2013-10-18 03:30:00,59.1,0.0,29.59,South,174,3.4,8.8,0,0.10,,---,0.10,VWS V14.00,2013-10-18 07:30:00,
2013-10-18 03:31:00,59.1,0.0,29.59,South,170,7.5,8.8,0,0.10,,---,0.10,VWS V14.00,2013-10-18 07:31:00,
2013-10-18 03:32:00,59.1,0.0,29.59,South,183,3.3,8.8,0,0.10,,---,0.10,VWS V14.00,2013-10-18 07:32:00,
2013-10-18 03:33:00,59.1,0.0,29.59,SSE,162,0.0,8.8,0,0.10,,---,0.10,VWS V14.00,2013-10-18 07:33:00,
2013-10-18 03:34:00,59.1,0.0,29.59,SE,143,0.0,8.8,0,0.10,,---,0.10,VWS V14.00,2013-10-18 07:34:00,
2013-10-18 03:35:00,59.1,0.0,29.59,SE,125,3.5,7.5,0,0.10,,---,0.10,VWS V14.00,2013-10-18 07:35:00,
2013-10-18 03:36:00,59.1,0.0,29.58,SSE,158,4.4,7.5,0,0.10,,---,0.10,VWS V14.00,2013-10-18 07:36:00,
2013-10-18 03:37:00,59.1,0.0,29.58,SSE,163,2.9,7.5,0,0.10,,---,0.10,VWS V14.00,2013-10-18 07:37:00,
2013-10-18 03:38:00,59.1,0.0,29.58,SW,228,1.8,7.5,0,0.10,,---,0.10,VWS V14.00,2013-10-18 07:38:00,
2013-10-18 03:39:00,59.1,0.0,29.58,South,180,1.1,7.5,0,0.10,,---,0.10,VWS V14.00,2013-10-18 07:39:00,
2013-10-18 03:40:00,59.1,0.0,29.58,SSE,158,2.9,8.0,0,0.10,,---,0.10,VWS V14.00,2013-10-18 07:40:00,
2013-10-18 03:41:00,59.1,0.0,29.58,SSE,163,3.5,8.0,0,0.10,,---,0.10,VWS V14.00,2013-10-18 07:41:00,
2013-10-18 03:42:00,59.1,0.0,29.58,South,169,4.3,8.0,0,0.10,,---,0.10,VWS V14.00,2013-10-18 07:42:00,
2013-10-18 03:43:00,59.1,0.0,29.58,SSW,198,3.1,8.0,0,0.10,,---,0.10,VWS V14.00,2013-10-18 07:43:00,
2013-10-18 03:44:00,59.1,0.0,29.58,SSE,159,6.2,8.0,0,0.10,,---,0.10,VWS V14.00,2013-10-18 07:44:00,
2013-10-18 03:45:00,59.1,0.0,29.58,South,184,3.0,8.8,0,0.10,,---,0.10,VWS V14.00,2013-10-18 07:45:00,
2013-10-18 03:46:00,59.1,0.0,29.58,SSE,152,3.4,8.8,0,0.10,,---,0.10,VWS V14.00,2013-10-18 07:46:00,
2013-10-18 03:47:00,59.1,0.0,29.58,South,184,3.4,8.8,0,0.10,,---,0.10,VWS V14.00,2013-10-18 07:47:00,
2013-10-18 03:48:00,59.1,0.0,29.58,SSW,200,1.9,8.8,0,0.10,,---,0.10,VWS V14.00,2013-10-18 07:48:00,
2013-10-18 03:49:00,59.1,0.0,29.58,SSE,152,5.2,8.8,0,0.10,,---,0.10,VWS V14.00,2013-10-18 07:49:00,
2013-10-18 03:50:00,59.1,0.0,29.58,South,188,7.1,8.0,0,0.10,,---,0.10,VWS V14.00,2013-10-18 07:50:00,
2013-10-18 03:51:00,59.1,0.0,29.58,SSW,193,3.3,8.0,0,0.10,,---,0.10,VWS V14.00,2013-10-18 07:51:00,
2013-10-18 03:52:00,59.1,0.0,29.58,South,173,7.2,8.0,0,0.10,,---,0.10,VWS V14.00,2013-10-18 07:52:00,
2013-10-18 03:53:00,59.1,0.0,29.58,South,186,9.2,9.2,0,0.10,,---,0.10,VWS V14.00,2013-10-18 07:53:00,
2013-10-18 03:54:00,59.1,0.0,29.58,SSW,198,0.0,8.0,0,0.10,,---,0.10,VWS V14.00,2013-10-18 07:54:00,
2013-10-18 03:55:00,59.2,0.0,29.58,South,173,4.7,9.9,0,0.10,,---,0.10,VWS V14.00,2013-10-18 07:55:00,
2013-10-18 03:56:00,59.2,0.0,29.58,SSW,210,4.4,9.9,0,0.10,,---,0.10,VWS V14.00,2013-10-18 07:56:00,
2013-10-18 03:57:00,59.3,0.0,29.58,SSE,148,6.2,9.9,0,0.10,,---,0.10,VWS V14.00,2013-10-18 07:57:00,
2013-10-18 03:58:00,59.3,0.0,29.58,South,183,0.0,9.9,0,0.10,,---,0.10,VWS V14.00,2013-10-18 07:58:00,
2013-10-18 03:59:00,59.2,0.0,29.58,South,174,4.3,9.9,0,0.10,,---,0.10,VWS V14.00,2013-10-18 07:59:00,
2013-10-18 04:00:00,59.3,0.0,29.58,SSW,210,4.3,9.3,0,0.10,,---,0.10,VWS V14.00,2013-10-18 08:00:00,
2013-10-18 04:01:00,59.3,0.0,29.58,SSW,211,4.5,9.3,0,0.10,,---,0.10,VWS V14.00,2013-10-18 08:01:00,
2013-10-18 04:02:00,59.4,0.0,29.58,SE,143,7.0,9.3,0,0.10,,---,0.10,VWS V14.00,2013-10-18 08:02:00,
2013-10-18 04:03:00,59.3,0.0,29.58,South,174,8.1,9.3,0,0.10,,---,0.10,VWS V14.00,2013-10-18 08:03:00,
2013-10-18 04:04:00,59.4,0.0,29.58,SSE,166,0.0,9.3,0,0.10,,---,0.10,VWS V14.00,2013-10-18 08:04:00,
2013-10-18 04:05:00,59.3,0.0,29.58,SSE,156,4.3,9.3,0,0.10,,---,0.10,VWS V14.00,2013-10-18 08:05:00,
2013-10-18 04:06:00,59.4,0.0,29.58,SSE,155,3.3,10.6,0,0.10,,---,0.10,VWS V14.00,2013-10-18 08:06:00,
2013-10-18 04:07:00,59.4,0.0,29.58,South,179,4.3,10.6,0,0.10,,---,0.10,VWS V14.00,2013-10-18 08:07:00,
2013-10-18 04:08:00,59.4,0.0,29.58,SSE,162,0.0,10.6,0,0.10,,---,0.10,VWS V14.00,2013-10-18 08:08:00,
2013-10-18 04:09:00,59.4,0.0,29.58,SSE,158,4.2,10.6,0,0.10,,---,0.10,VWS V14.00,2013-10-18 08:09:00,
2013-10-18 04:10:00,59.4,0.0,29.58,SSW,204,0.0,8.0,0,0.10,,---,0.10,VWS V14.00,2013-10-18 08:10:00,
2013-10-18 04:11:00,59.5,0.0,29.58,SSW,193,4.6,8.0,0,0.10,,---,0.10,VWS V14.00,2013-10-18 08:11:00,
2013-10-18 04:12:00,59.4,0.0,29.58,SSW,195,0.0,8.0,0,0.10,,---,0.10,VWS V14.00,2013-10-18 08:12:00,
2013-10-18 04:13:00,59.4,0.0,29.58,South,187,0.0,8.0,0,0.10,,---,0.10,VWS V14.00,2013-10-18 08:13:00,
2013-10-18 04:14:00,59.4,0.0,29.58,South,183,0.0,8.0,0,0.10,,---,0.10,VWS V14.00,2013-10-18 08:14:00,
2013-10-18 04:15:00,59.4,0.0,29.58,South,183,3.5,5.9,0,0.10,,---,0.10,VWS V14.00,2013-10-18 08:15:00,
2013-10-18 04:16:00,59.4,0.0,29.58,SE,139,3.1,5.9,0,0.10,,---,0.10,VWS V14.00,2013-10-18 08:16:00,
2013-10-18 04:17:00,59.4,0.0,29.58,SE,139,0.0,5.9,0,0.10,,---,0.10,VWS V14.00,2013-10-18 08:17:00,
2013-10-18 04:18:00,59.4,0.0,29.58,SE,139,0.0,5.9,0,0.10,,---,0.10,VWS V14.00,2013-10-18 08:18:00,
2013-10-18 04:19:00,59.5,0.0,29.58,SE,139,0.0,5.9,0,0.10,,---,0.10,VWS V14.00,2013-10-18 08:19:00,
2013-10-18 04:20:00,59.6,0.0,29.58,South,169,0.0,7.0,0,0.10,,---,0.10,VWS V14.00,2013-10-18 08:20:00,
2013-10-18 04:21:00,59.7,0.0,29.58,South,174,5.3,7.0,0,0.10,,---,0.10,VWS V14.00,2013-10-18 08:21:00,
2013-10-18 04:22:00,59.9,0.0,29.58,South,187,0.0,7.0,0,0.10,,---,0.10,VWS V14.00,2013-10-18 08:22:00,
2013-10-18 04:23:00,60.0,0.0,29.58,South,180,0.0,7.0,0,0.10,,---,0.10,VWS V14.00,2013-10-18 08:23:00,
2013-10-18 04:24:00,60.0,0.0,29.58,South,180,0.0,7.0,0,0.10,,---,0.10,VWS V14.00,2013-10-18 08:24:00,
2013-10-18 04:25:00,60.1,0.0,29.58,South,191,3.3,7.5,0,0.10,,---,0.10,VWS V14.00,2013-10-18 08:25:00,
2013-10-18 04:26:00,60.1,0.0,29.58,SSW,202,3.0,7.5,0,0.10,,---,0.10,VWS V14.00,2013-10-18 08:26:00,
2013-10-18 04:27:00,60.1,0.0,29.58,SSW,210,0.0,7.5,0,0.10,,---,0.10,VWS V14.00,2013-10-18 08:27:00,
2013-10-18 04:28:00,60.2,0.0,29.58,South,180,0.0,7.5,0,0.10,,---,0.10,VWS V14.00,2013-10-18 08:28:00,
2013-10-18 04:29:00,60.2,0.0,29.58,South,180,0.0,7.5,0,0.10,,---,0.10,VWS V14.00,2013-10-18 08:29:00,
2013-10-18 04:30:00,60.2,0.0,29.58,South,180,0.0,5.8,0,0.10,,---,0.10,VWS V14.00,2013-10-18 08:30:00,
2013-10-18 04:31:00,60.2,0.0,29.57,South,180,0.0,5.8,0,0.10,,---,0.10,VWS V14.00,2013-10-18 08:31:00,
2013-10-18 04:32:00,60.2,0.0,29.58,South,180,0.0,5.8,0,0.10,,---,0.10,VWS V14.00,2013-10-18 08:32:00,
2013-10-18 04:33:00,60.2,0.0,29.57,South,180,0.0,5.8,0,0.10,,---,0.10,VWS V14.00,2013-10-18 08:33:00,
2013-10-18 04:34:00,60.2,0.0,29.57,South,180,0.0,5.8,0,0.10,,---,0.10,VWS V14.00,2013-10-18 08:34:00,
2013-10-18 04:35:00,60.2,0.0,29.57,South,180,0.0,0.0,0,0.10,,---,0.10,VWS V14.00,2013-10-18 08:35:00,
2013-10-18 04:36:00,60.2,0.0,29.57,South,174,1.2,0.0,0,0.10,,---,0.10,VWS V14.00,2013-10-18 08:36:00,
2013-10-18 04:37:00,60.3,0.0,29.57,South,174,0.0,0.0,0,0.10,,---,0.10,VWS V14.00,2013-10-18 08:37:00,
2013-10-18 04:38:00,60.2,0.0,29.57,South,174,0.0,0.0,0,0.10,,---,0.10,VWS V14.00,2013-10-18 08:38:00,
2013-10-18 04:39:00,60.3,0.0,29.57,WSW,238,0.0,0.0,0,0.10,,---,0.10,VWS V14.00,2013-10-18 08:39:00,
2013-10-18 04:40:00,60.3,0.0,29.57,SSE,150,2.9,6.8,0,0.10,,---,0.10,VWS V14.00,2013-10-18 08:40:00,
2013-10-18 04:41:00,60.4,0.0,29.57,South,180,2.9,6.8,0,0.10,,---,0.10,VWS V14.00,2013-10-18 08:41:00,
2013-10-18 04:42:00,60.4,0.0,29.57,SSE,165,0.0,6.8,0,0.10,,---,0.10,VWS V14.00,2013-10-18 08:42:00,
2013-10-18 04:43:00,60.4,0.0,29.57,West,276,0.0,6.8,0,0.10,,---,0.10,VWS V14.00,2013-10-18 08:43:00,
2013-10-18 04:44:00,60.4,0.0,29.57,West,276,0.0,6.8,0,0.10,,---,0.10,VWS V14.00,2013-10-18 08:44:00,
2013-10-18 04:45:00,60.4,0.0,29.57,West,276,0.0,4.8,0,0.10,,---,0.10,VWS V14.00,2013-10-18 08:45:00,
2013-10-18 04:46:00,60.4,0.0,29.57,SSW,207,3.4,4.8,0,0.10,,---,0.10,VWS V14.00,2013-10-18 08:46:00,
2013-10-18 04:47:00,60.4,0.0,29.57,SSW,202,0.0,4.8,0,0.10,,---,0.10,VWS V14.00,2013-10-18 08:47:00,
2013-10-18 04:48:00,60.4,0.0,29.57,SSW,202,1.8,4.8,0,0.10,,---,0.10,VWS V14.00,2013-10-18 08:48:00,
2013-10-18 04:49:00,60.4,0.0,29.57,SSW,202,0.0,4.8,0,0.10,,---,0.10,VWS V14.00,2013-10-18 08:49:00,
2013-10-18 04:50:00,60.4,0.0,29.57,SW,222,4.4,5.8,0,0.10,,---,0.10,VWS V14.00,2013-10-18 08:50:00,
2013-10-18 04:51:00,60.5,0.0,29.57,SSW,210,0.0,5.8,0,0.10,,---,0.10,VWS V14.00,2013-10-18 08:51:00,
2013-10-18 04:52:00,60.5,0.0,29.57,SSW,210,0.0,5.8,0,0.10,,---,0.10,VWS V14.00,2013-10-18 08:52:00,
2013-10-18 04:53:00,60.5,0.0,29.57,SW,225,9.7,9.7,0,0.10,,---,0.10,VWS V14.00,2013-10-18 08:53:00,
2013-10-18 04:54:00,60.5,0.0,29.57,SSW,211,2.7,5.8,0,0.10,,---,0.10,VWS V14.00,2013-10-18 08:54:00,
2013-10-18 04:55:00,60.4,0.0,29.57,West,267,1.9,10.4,0,0.10,,---,0.10,VWS V14.00,2013-10-18 08:55:00,
2013-10-18 04:56:00,60.5,0.0,29.57,South,188,4.2,10.4,0,0.10,,---,0.10,VWS V14.00,2013-10-18 08:56:00,
2013-10-18 04:57:00,60.5,0.0,29.57,SW,221,3.2,10.4,0,0.10,,---,0.10,VWS V14.00,2013-10-18 08:57:00,
2013-10-18 04:58:00,60.5,0.0,29.57,SW,214,4.3,10.4,0,0.10,,---,0.10,VWS V14.00,2013-10-18 08:58:00,
2013-10-18 04:59:00,60.5,0.0,29.57,SSW,201,4.6,10.4,0,0.10,,---,0.10,VWS V14.00,2013-10-18 08:59:00,
2013-10-18 05:00:00,60.6,0.0,29.57,South,190,7.3,8.5,0,0.10,,---,0.10,VWS V14.00,2013-10-18 09:00:00,
2013-10-18 05:01:00,60.6,0.0,29.57,SW,228,4.6,8.5,0,0.10,,---,0.10,VWS V14.00,2013-10-18 09:01:00,
2013-10-18 05:02:00,60.5,0.0,29.57,SSW,195,2.4,8.5,0,0.10,,---,0.10,VWS V14.00,2013-10-18 09:02:00,
2013-10-18 05:03:00,60.5,0.0,29.57,SSW,204,5.9,8.5,0,0.10,,---,0.10,VWS V14.00,2013-10-18 09:03:00,
2013-10-18 05:04:00,60.4,0.0,29.57,SSW,198,7.6,8.5,0,0.10,,---,0.10,VWS V14.00,2013-10-18 09:04:00,
2013-10-18 05:05:00,60.5,0.0,29.57,South,187,4.2,8.5,0,0.10,,---,0.10,VWS V14.00,2013-10-18 09:05:00,
2013-10-18 05:06:00,60.5,0.0,29.57,South,179,4.6,11.2,0,0.10,,---,0.10,VWS V14.00,2013-10-18 09:06:00,
2013-10-18 05:07:00,60.5,0.0,29.57,SW,218,2.6,11.2,0,0.10,,---,0.10,VWS V14.00,2013-10-18 09:07:00,
2013-10-18 05:08:00,60.5,0.0,29.57,South,180,5.0,11.2,0,0.10,,---,0.10,VWS V14.00,2013-10-18 09:08:00,
2013-10-18 05:09:00,60.5,0.0,29.57,South,181,0.0,11.2,0,0.10,,---,0.10,VWS V14.00,2013-10-18 09:09:00,
2013-10-18 05:10:00,60.5,0.0,29.57,SSW,202,4.5,11.2,0,0.10,,---,0.10,VWS V14.00,2013-10-18 09:10:00,
2013-10-18 05:11:00,60.5,0.0,29.57,South,191,3.4,8.1,0,0.10,,---,0.10,VWS V14.00,2013-10-18 09:11:00,
2013-10-18 05:12:00,60.5,0.0,29.57,SSW,205,9.3,9.3,0,0.10,,---,0.10,VWS V14.00,2013-10-18 09:12:00,
2013-10-18 05:13:00,60.5,0.0,29.57,SW,233,6.2,8.1,0,0.10,,---,0.10,VWS V14.00,2013-10-18 09:13:00,
2013-10-18 05:14:00,60.6,0.0,29.57,SW,232,4.9,8.1,0,0.10,,---,0.10,VWS V14.00,2013-10-18 09:14:00,
2013-10-18 05:15:00,60.6,0.0,29.57,SW,218,8.0,10.7,0,0.10,,---,0.10,VWS V14.00,2013-10-18 09:15:00,
2013-10-18 05:16:00,60.7,0.0,29.57,SW,228,5.3,10.7,0,0.10,,---,0.10,VWS V14.00,2013-10-18 09:16:00,
2013-10-18 05:17:00,60.6,0.0,29.57,SW,221,0.0,10.7,0,0.10,,---,0.10,VWS V14.00,2013-10-18 09:17:00,
2013-10-18 05:18:00,60.6,0.0,29.57,WSW,245,5.3,10.7,0,0.10,,---,0.10,VWS V14.00,2013-10-18 09:18:00,
2013-10-18 05:19:00,60.6,0.0,29.57,SSW,198,5.6,10.7,0,0.10,,---,0.10,VWS V14.00,2013-10-18 09:19:00,
2013-10-18 05:20:00,60.7,0.0,29.57,SW,218,7.2,13.5,0,0.10,,---,0.10,VWS V14.00,2013-10-18 09:20:00,
2013-10-18 05:21:00,60.7,0.0,29.57,SSW,197,6.7,13.5,0,0.10,,---,0.10,VWS V14.00,2013-10-18 09:21:00,
2013-10-18 05:22:00,60.7,0.0,29.57,SSW,212,1.4,13.5,0,0.10,,---,0.10,VWS V14.00,2013-10-18 09:22:00,
2013-10-18 05:23:00,60.6,0.0,29.56,SW,235,8.0,13.5,0,0.10,,---,0.10,VWS V14.00,2013-10-18 09:23:00,
2013-10-18 05:24:00,60.6,0.0,29.57,SSE,166,4.1,13.5,0,0.10,,---,0.10,VWS V14.00,2013-10-18 09:24:00,
2013-10-18 05:25:00,60.6,0.0,29.57,SW,214,2.6,11.8,0,0.10,,---,0.10,VWS V14.00,2013-10-18 09:25:00,
2013-10-18 05:26:00,60.6,0.0,29.57,SSW,201,5.7,11.8,0,0.10,,---,0.10,VWS V14.00,2013-10-18 09:26:00,
2013-10-18 05:27:00,60.6,0.0,29.57,SW,228,5.0,11.8,0,0.10,,---,0.10,VWS V14.00,2013-10-18 09:27:00,
2013-10-18 05:28:00,60.6,0.0,29.57,SSW,200,4.2,11.8,0,0.10,,---,0.10,VWS V14.00,2013-10-18 09:28:00,
2013-10-18 05:29:00,60.5,0.0,29.57,South,179,4.4,11.8,0,0.10,,---,0.10,VWS V14.00,2013-10-18 09:29:00,
2013-10-18 05:30:00,60.6,0.0,29.57,SSW,194,0.0,9.4,0,0.10,,---,0.10,VWS V14.00,2013-10-18 09:30:00,
2013-10-18 05:31:00,60.5,0.0,29.57,WSW,248,3.0,9.4,0,0.10,,---,0.10,VWS V14.00,2013-10-18 09:31:00,
2013-10-18 05:32:00,60.5,0.0,29.57,SW,217,0.0,9.4,0,0.10,,---,0.10,VWS V14.00,2013-10-18 09:32:00,
2013-10-18 05:33:00,60.5,0.0,29.57,South,177,6.7,9.4,0,0.10,,---,0.10,VWS V14.00,2013-10-18 09:33:00,
2013-10-18 05:34:00,60.7,0.0,29.57,SW,214,5.8,9.4,0,0.10,,---,0.10,VWS V14.00,2013-10-18 09:34:00,
2013-10-18 05:35:00,60.7,0.0,29.57,WSW,246,9.3,12.0,0,0.10,,---,0.10,VWS V14.00,2013-10-18 09:35:00,
2013-10-18 05:36:00,60.7,0.0,29.57,SW,233,11.3,12.0,0,0.10,,---,0.10,VWS V14.00,2013-10-18 09:36:00,
2013-10-18 05:37:00,60.6,0.0,29.57,SW,215,11.4,12.0,0,0.10,,---,0.10,VWS V14.00,2013-10-18 09:37:00,
2013-10-18 05:38:00,60.7,0.0,29.57,SSW,202,8.9,12.0,0,0.10,,---,0.10,VWS V14.00,2013-10-18 09:38:00,
2013-10-18 05:39:00,60.7,0.0,29.57,SW,219,5.8,12.0,0,0.10,,---,0.10,VWS V14.00,2013-10-18 09:39:00,
2013-10-18 05:40:00,60.7,0.0,29.57,SSW,198,11.5,13.7,0,0.10,,---,0.10,VWS V14.00,2013-10-18 09:40:00,
2013-10-18 05:41:00,60.7,0.0,29.57,SW,221,8.0,13.7,0,0.10,,---,0.10,VWS V14.00,2013-10-18 09:41:00,
2013-10-18 05:42:00,60.7,0.0,29.57,SW,217,10.1,13.7,0,0.10,,---,0.10,VWS V14.00,2013-10-18 09:42:00,
2013-10-18 05:43:00,60.7,0.0,29.57,SSW,194,7.6,13.7,0,0.10,,---,0.10,VWS V14.00,2013-10-18 09:43:00,
2013-10-18 05:44:00,60.8,0.0,29.57,SW,226,9.9,13.7,0,0.10,,---,0.10,VWS V14.00,2013-10-18 09:44:00,
2013-10-18 05:45:00,60.9,0.0,29.57,South,188,5.5,14.9,0,0.10,,---,0.10,VWS V14.00,2013-10-18 09:45:00,
2013-10-18 05:46:00,60.8,0.0,29.57,SW,229,9.8,14.9,0,0.10,,---,0.10,VWS V14.00,2013-10-18 09:46:00,
2013-10-18 05:47:00,60.7,0.0,29.57,South,179,8.3,14.9,0,0.10,,---,0.10,VWS V14.00,2013-10-18 09:47:00,
2013-10-18 05:48:00,60.8,0.0,29.57,SW,222,9.1,14.9,0,0.10,,---,0.10,VWS V14.00,2013-10-18 09:48:00,
2013-10-18 05:49:00,60.9,0.0,29.57,SW,215,8.3,14.9,0,0.10,,---,0.10,VWS V14.00,2013-10-18 09:49:00,
2013-10-18 05:50:00,61.0,0.0,29.57,SSW,204,8.9,14.4,0,0.10,,---,0.10,VWS V14.00,2013-10-18 09:50:00,
2013-10-18 05:51:00,60.9,0.0,29.57,SW,222,13.2,14.4,0,0.10,,---,0.10,VWS V14.00,2013-10-18 09:51:00,
2013-10-18 05:52:00,60.9,0.0,29.57,WSW,243,6.4,14.4,0,0.10,,---,0.10,VWS V14.00,2013-10-18 09:52:00,
2013-10-18 05:53:00,60.8,0.0,29.57,SW,215,10.2,14.4,0,0.10,,---,0.10,VWS V14.00,2013-10-18 09:53:00,
2013-10-18 05:54:00,60.9,0.0,29.57,WSW,239,7.8,14.4,0,0.10,,---,0.10,VWS V14.00,2013-10-18 09:54:00,
2013-10-18 05:55:00,60.9,0.0,29.57,SSW,197,8.5,13.4,0,0.10,,---,0.10,VWS V14.00,2013-10-18 09:55:00,
2013-10-18 05:56:00,60.9,0.0,29.57,WSW,240,10.4,13.4,0,0.10,,---,0.10,VWS V14.00,2013-10-18 09:56:00,
2013-10-18 05:57:00,60.9,0.0,29.57,SW,217,8.3,13.4,0,0.10,,---,0.10,VWS V14.00,2013-10-18 09:57:00,
2013-10-18 05:58:00,60.9,0.0,29.57,SSW,211,7.3,13.4,0,0.10,,---,0.10,VWS V14.00,2013-10-18 09:58:00,
2013-10-18 05:59:00,60.9,0.0,29.57,WSW,240,10.6,13.4,0,0.10,,---,0.10,VWS V14.00,2013-10-18 09:59:00,
2013-10-18 06:00:00,60.8,0.0,29.57,SW,219,9.3,14.6,0,0.10,,---,0.10,VWS V14.00,2013-10-18 10:00:00,
2013-10-18 06:01:00,60.9,0.0,29.57,SW,232,9.5,14.6,0,0.10,,---,0.10,VWS V14.00,2013-10-18 10:01:00,
2013-10-18 06:02:00,60.9,0.0,29.58,WSW,243,6.6,14.6,0,0.10,,---,0.10,VWS V14.00,2013-10-18 10:02:00,
2013-10-18 06:03:00,60.9,0.0,29.58,SSW,212,5.3,14.6,0,0.10,,---,0.10,VWS V14.00,2013-10-18 10:03:00,
2013-10-18 06:04:00,61.0,0.0,29.57,WSW,245,10.4,14.6,0,0.10,,---,0.10,VWS V14.00,2013-10-18 10:04:00,
2013-10-18 06:05:00,61.0,0.0,29.58,WSW,249,9.5,13.2,0,0.10,,---,0.10,VWS V14.00,2013-10-18 10:05:00,
2013-10-18 06:06:00,60.9,0.0,29.57,SW,224,10.7,13.2,0,0.10,,---,0.10,VWS V14.00,2013-10-18 10:06:00,
2013-10-18 06:07:00,61.0,0.0,29.58,SW,229,11.1,13.2,0,0.10,,---,0.10,VWS V14.00,2013-10-18 10:07:00,
2013-10-18 06:08:00,61.0,0.0,29.58,SW,235,9.1,13.2,0,0.10,,---,0.10,VWS V14.00,2013-10-18 10:08:00,
2013-10-18 06:09:00,60.8,0.0,29.58,WSW,240,8.8,13.2,0,0.10,,---,0.10,VWS V14.00,2013-10-18 10:09:00,
2013-10-18 06:10:00,60.9,0.0,29.58,SW,229,9.3,13.2,0,0.10,,---,0.10,VWS V14.00,2013-10-18 10:10:00,
2013-10-18 06:11:00,60.9,0.0,29.58,West,259,7.8,13.1,0,0.10,,---,0.10,VWS V14.00,2013-10-18 10:11:00,
2013-10-18 06:12:00,60.9,0.0,29.58,SW,222,8.5,13.1,0,0.10,,---,0.10,VWS V14.00,2013-10-18 10:12:00,
2013-10-18 06:13:00,60.9,0.0,29.58,WSW,239,7.5,13.1,0,0.10,,---,0.10,VWS V14.00,2013-10-18 10:13:00,
2013-10-18 06:14:00,60.9,0.0,29.58,SW,221,7.6,13.1,0,0.10,,---,0.10,VWS V14.00,2013-10-18 10:14:00,
2013-10-18 06:15:00,61.0,0.0,29.58,SW,219,7.5,13.1,0,0.10,,---,0.10,VWS V14.00,2013-10-18 10:15:00,
2013-10-18 06:16:00,60.9,0.0,29.58,SW,214,10.6,12.9,0,0.10,,---,0.10,VWS V14.00,2013-10-18 10:16:00,
2013-10-18 06:17:00,61.0,0.0,29.58,WSW,245,8.8,12.9,0,0.10,,---,0.10,VWS V14.00,2013-10-18 10:17:00,
2013-10-18 06:18:00,61.0,0.0,29.58,SW,231,6.6,12.9,0,0.10,,---,0.10,VWS V14.00,2013-10-18 10:18:00,
2013-10-18 06:19:00,61.1,0.0,29.58,SW,221,11.2,12.9,0,0.10,,---,0.10,VWS V14.00,2013-10-18 10:19:00,
2013-10-18 06:20:00,61.4,0.0,29.58,WSW,243,6.6,15.9,0,0.10,,---,0.10,VWS V14.00,2013-10-18 10:20:00,
2013-10-18 06:21:00,61.4,0.0,29.58,SW,225,11.0,15.9,0,0.10,,---,0.10,VWS V14.00,2013-10-18 10:21:00,
2013-10-18 06:22:00,61.4,0.0,29.59,North,359,6.5,15.9,0,0.10,,---,0.10,VWS V14.00,2013-10-18 10:22:00,
2013-10-18 06:23:00,61.5,0.0,29.59,SW,214,0.0,15.9,0,0.10,,---,0.10,VWS V14.00,2013-10-18 10:23:00,
2013-10-18 06:24:00,61.5,0.0,29.59,WSW,245,0.0,15.9,0,0.10,,---,0.10,VWS V14.00,2013-10-18 10:24:00,
2013-10-18 06:25:00,61.4,0.0,29.59,WSW,242,0.0,13.2,0,0.10,,---,0.10,VWS V14.00,2013-10-18 10:25:00,
2013-10-18 06:26:00,61.2,0.0,29.59,WSW,242,0.0,13.2,0,0.10,,---,0.10,VWS V14.00,2013-10-18 10:26:00,
2013-10-18 06:27:00,61.3,0.0,29.59,WSW,242,0.0,13.2,0,0.10,,---,0.10,VWS V14.00,2013-10-18 10:27:00,
2013-10-18 06:28:00,61.3,0.0,29.59,WSW,242,0.0,13.2,0,0.10,,---,0.10,VWS V14.00,2013-10-18 10:28:00,
2013-10-18 06:29:00,61.3,0.0,29.59,WSW,242,0.0,13.2,0,0.10,,---,0.10,VWS V14.00,2013-10-18 10:29:00,
2013-10-18 06:30:00,61.2,0.0,29.59,WSW,242,0.0,0.0,0,0.10,,---,0.10,VWS V14.00,2013-10-18 10:30:00,
2013-10-18 06:31:00,61.4,0.0,29.59,WSW,242,0.0,0.0,0,0.10,,---,0.10,VWS V14.00,2013-10-18 10:31:00,
2013-10-18 06:32:00,61.4,0.0,29.59,WSW,242,0.0,0.0,0,0.10,,---,0.10,VWS V14.00,2013-10-18 10:32:00,
2013-10-18 06:33:00,61.4,0.0,29.59,WSW,242,0.0,0.0,0,0.10,,---,0.10,VWS V14.00,2013-10-18 10:33:00,
2013-10-18 06:34:00,61.2,0.0,29.59,WSW,242,0.0,0.0,0,0.10,,---,0.10,VWS V14.00,2013-10-18 10:34:00,
2013-10-18 06:35:00,61.3,0.0,29.59,WNW,294,7.8,13.0,0,0.10,,---,0.10,VWS V14.00,2013-10-18 10:35:00,
2013-10-18 06:36:00,61.2,0.0,29.59,SSE,155,0.0,13.0,0,0.10,,---,0.10,VWS V14.00,2013-10-18 10:36:00,
2013-10-18 06:37:00,61.1,0.0,29.60,WNW,288,5.8,13.0,0,0.10,,---,0.10,VWS V14.00,2013-10-18 10:37:00,
2013-10-18 06:38:00,61.1,0.0,29.60,WSW,256,5.0,13.0,0,0.10,,---,0.10,VWS V14.00,2013-10-18 10:38:00,
2013-10-18 06:39:00,61.0,0.0,29.60,WNW,298,7.3,13.0,0,0.10,,---,0.10,VWS V14.00,2013-10-18 10:39:00,
2013-10-18 06:40:00,61.1,0.0,29.60,West,271,6.0,12.1,0,0.10,,---,0.10,VWS V14.00,2013-10-18 10:40:00,
2013-10-18 06:41:00,61.0,0.0,29.60,WSW,245,7.0,12.1,0,0.10,,---,0.10,VWS V14.00,2013-10-18 10:41:00,
2013-10-18 06:42:00,60.9,0.0,29.60,West,262,7.4,12.1,0,0.10,,---,0.10,VWS V14.00,2013-10-18 10:42:00,
2013-10-18 06:43:00,60.8,0.0,29.60,WNW,287,4.2,12.1,0,0.10,,---,0.10,VWS V14.00,2013-10-18 10:43:00,
2013-10-18 06:44:00,60.6,0.0,29.60,SSW,202,4.3,12.1,0,0.10,,---,0.10,VWS V14.00,2013-10-18 10:44:00,
2013-10-18 06:45:00,60.6,0.0,29.60,NNW,332,6.1,11.1,0,0.10,,---,0.10,VWS V14.00,2013-10-18 10:45:00,
2013-10-18 06:46:00,60.5,0.0,29.60,West,273,7.8,11.1,0,0.10,,---,0.10,VWS V14.00,2013-10-18 10:46:00,
2013-10-18 06:47:00,60.6,0.0,29.60,West,263,4.7,11.1,0,0.10,,---,0.10,VWS V14.00,2013-10-18 10:47:00,
2013-10-18 06:48:00,60.5,0.0,29.60,SW,222,10.2,11.1,0,0.10,,---,0.10,VWS V14.00,2013-10-18 10:48:00,
2013-10-18 06:49:00,60.5,0.0,29.60,WSW,256,5.0,11.1,0,0.10,,---,0.10,VWS V14.00,2013-10-18 10:49:00,
2013-10-18 06:50:00,60.5,0.0,29.61,WSW,243,7.0,12.5,0,0.10,,---,0.10,VWS V14.00,2013-10-18 10:50:00,
2013-10-18 06:51:00,60.5,0.0,29.61,WSW,252,7.1,12.5,0,0.10,,---,0.10,VWS V14.00,2013-10-18 10:51:00,
2013-10-18 06:52:00,60.5,0.0,29.61,WSW,255,6.2,12.5,0,0.10,,---,0.10,VWS V14.00,2013-10-18 10:52:00,
2013-10-18 06:53:00,60.5,0.0,29.61,WSW,257,4.1,12.5,0,0.10,,---,0.10,VWS V14.00,2013-10-18 10:53:00,
2013-10-18 06:54:00,60.4,0.0,29.61,West,281,8.1,12.5,0,0.10,,---,0.10,VWS V14.00,2013-10-18 10:54:00,
2013-10-18 06:55:00,60.5,0.0,29.61,West,276,5.3,12.4,0,0.10,,---,0.10,VWS V14.00,2013-10-18 10:55:00,
2013-10-18 06:56:00,60.4,0.0,29.61,West,281,4.3,12.4,0,0.10,,---,0.10,VWS V14.00,2013-10-18 10:56:00,
2013-10-18 06:57:00,60.3,0.0,29.61,SW,225,5.4,12.4,0,0.10,,---,0.10,VWS V14.00,2013-10-18 10:57:00,
2013-10-18 06:58:00,60.4,0.0,29.61,WSW,240,9.7,12.4,0,0.10,,---,0.10,VWS V14.00,2013-10-18 10:58:00,
2013-10-18 06:59:00,60.5,0.0,29.61,SW,232,4.6,12.4,0,0.10,,---,0.10,VWS V14.00,2013-10-18 10:59:00,
2013-10-18 07:00:00,60.4,0.0,29.61,West,274,7.2,17.8,0,0.10,,---,0.10,VWS V14.00,2013-10-18 11:00:00,
2013-10-18 07:01:00,60.3,0.0,29.61,West,278,5.7,17.8,0,0.10,,---,0.10,VWS V14.00,2013-10-18 11:01:00,
2013-10-18 07:02:00,60.4,0.0,29.61,WSW,249,3.0,17.8,0,0.10,,---,0.10,VWS V14.00,2013-10-18 11:02:00,
2013-10-18 07:03:00,60.4,0.0,29.61,WSW,242,4.7,17.8,0,0.10,,---,0.10,VWS V14.00,2013-10-18 11:03:00,
2013-10-18 07:04:00,60.3,0.0,29.61,NW,325,5.8,17.8,0,0.10,,---,0.10,VWS V14.00,2013-10-18 11:04:00,
2013-10-18 07:05:00,60.4,0.0,29.61,SW,231,6.9,15.3,0,0.10,,---,0.10,VWS V14.00,2013-10-18 11:05:00,
2013-10-18 07:06:00,60.4,0.0,29.61,WSW,250,9.0,15.3,0,0.10,,---,0.10,VWS V14.00,2013-10-18 11:06:00,
2013-10-18 07:07:00,60.4,0.0,29.61,WNW,301,7.5,15.3,0,0.10,,---,0.10,VWS V14.00,2013-10-18 11:07:00,
2013-10-18 07:08:00,60.3,0.0,29.61,SSW,200,5.3,15.3,0,0.10,,---,0.10,VWS V14.00,2013-10-18 11:08:00,
2013-10-18 07:09:00,60.3,0.0,29.61,WSW,238,6.5,15.3,0,0.10,,---,0.10,VWS V14.00,2013-10-18 11:09:00,
2013-10-18 07:10:00,60.2,0.0,29.61,WSW,238,5.1,13.0,0,0.10,,---,0.10,VWS V14.00,2013-10-18 11:10:00,
2013-10-18 07:11:00,60.3,0.0,29.61,West,273,8.3,13.0,0,0.10,,---,0.10,VWS V14.00,2013-10-18 11:11:00,
2013-10-18 07:12:00,60.2,0.0,29.61,West,260,7.6,13.0,0,0.10,,---,0.10,VWS V14.00,2013-10-18 11:12:00,
2013-10-18 07:13:00,60.1,0.0,29.61,West,266,8.1,13.0,0,0.10,,---,0.10,VWS V14.00,2013-10-18 11:13:00,
2013-10-18 07:14:00,60.3,0.0,29.61,SSW,207,7.1,13.0,0,0.10,,---,0.10,VWS V14.00,2013-10-18 11:14:00,
2013-10-18 07:15:00,60.3,0.0,29.61,WSW,248,5.4,13.0,0,0.10,,---,0.10,VWS V14.00,2013-10-18 11:15:00,
2013-10-18 07:16:00,60.3,0.0,29.61,West,273,6.6,14.5,0,0.10,,---,0.10,VWS V14.00,2013-10-18 11:16:00,
2013-10-18 07:17:00,60.2,0.0,29.61,WSW,240,12.8,14.5,0,0.10,,---,0.10,VWS V14.00,2013-10-18 11:17:00,
2013-10-18 07:18:00,60.3,0.0,29.62,West,277,13.9,14.5,0,0.10,,---,0.10,VWS V14.00,2013-10-18 11:18:00,
2013-10-18 07:19:00,60.5,0.0,29.62,SSW,212,3.3,14.5,0,0.10,,---,0.10,VWS V14.00,2013-10-18 11:19:00,
2013-10-18 07:20:00,60.4,0.0,29.62,SSW,211,5.0,13.9,0,0.10,,---,0.10,VWS V14.00,2013-10-18 11:20:00,
2013-10-18 07:21:00,60.5,0.0,29.62,WSW,250,4.6,13.9,0,0.10,,---,0.10,VWS V14.00,2013-10-18 11:21:00,
2013-10-18 07:22:00,60.5,0.0,29.62,West,273,8.0,13.9,0,0.10,,---,0.10,VWS V14.00,2013-10-18 11:22:00,
2013-10-18 07:23:00,60.5,0.0,29.62,WNW,288,6.1,13.9,0,0.10,,---,0.10,VWS V14.00,2013-10-18 11:23:00,
2013-10-18 07:24:00,60.7,0.0,29.62,SSW,204,4.8,13.9,0,0.10,,---,0.10,VWS V14.00,2013-10-18 11:24:00,
2013-10-18 07:25:00,60.6,0.0,29.62,WSW,253,5.5,13.8,0,0.10,,---,0.10,VWS V14.00,2013-10-18 11:25:00,
2013-10-18 07:26:00,60.6,0.0,29.62,WSW,249,10.4,13.8,0,0.10,,---,0.10,VWS V14.00,2013-10-18 11:26:00,
2013-10-18 07:27:00,60.6,0.0,29.62,West,273,8.0,13.8,0,0.10,,---,0.10,VWS V14.00,2013-10-18 11:27:00,
2013-10-18 07:28:00,60.7,0.0,29.62,West,278,6.9,13.8,0,0.10,,---,0.10,VWS V14.00,2013-10-18 11:28:00,
2013-10-18 07:29:00,60.7,0.0,29.62,WSW,250,10.6,13.8,0,0.10,,---,0.10,VWS V14.00,2013-10-18 11:29:00,
2013-10-18 07:30:00,60.8,0.0,29.62,WSW,245,8.5,17.3,0,0.10,,---,0.10,VWS V14.00,2013-10-18 11:30:00,
2013-10-18 07:31:00,60.8,0.0,29.62,West,270,10.9,17.3,0,0.10,,---,0.10,VWS V14.00,2013-10-18 11:31:00,
2013-10-18 07:32:00,60.9,0.0,29.62,West,271,4.8,17.3,0,0.10,,---,0.10,VWS V14.00,2013-10-18 11:32:00,
2013-10-18 07:33:00,60.8,0.0,29.62,WNW,292,5.1,17.3,0,0.10,,---,0.10,VWS V14.00,2013-10-18 11:33:00,
2013-10-18 07:34:00,60.8,0.0,29.62,West,278,13.8,17.3,0,0.10,,---,0.10,VWS V14.00,2013-10-18 11:34:00,
2013-10-18 07:35:00,61.0,0.0,29.62,West,264,8.7,16.0,0,0.10,,---,0.10,VWS V14.00,2013-10-18 11:35:00,
2013-10-18 07:36:00,60.9,0.0,29.62,West,276,9.1,16.0,0,0.10,,---,0.10,VWS V14.00,2013-10-18 11:36:00,
2013-10-18 07:37:00,61.0,0.0,29.63,West,264,8.9,16.0,0,0.10,,---,0.10,VWS V14.00,2013-10-18 11:37:00,
2013-10-18 07:38:00,61.0,0.0,29.63,WNW,291,3.3,16.0,0,0.10,,---,0.10,VWS V14.00,2013-10-18 11:38:00,
2013-10-18 07:39:00,61.1,0.0,29.63,NW,304,4.5,16.0,0,0.10,,---,0.10,VWS V14.00,2013-10-18 11:39:00,
2013-10-18 07:40:00,61.0,0.0,29.63,WSW,255,5.8,13.5,0,0.10,,---,0.10,VWS V14.00,2013-10-18 11:40:00,
2013-10-18 07:41:00,61.0,0.0,29.63,SW,219,6.3,13.5,0,0.10,,---,0.10,VWS V14.00,2013-10-18 11:41:00,
2013-10-18 07:42:00,61.0,0.0,29.63,WSW,239,6.3,13.5,0,0.10,,---,0.10,VWS V14.00,2013-10-18 11:42:00,
2013-10-18 07:43:00,61.1,0.0,29.63,SW,232,6.3,13.5,0,0.10,,---,0.10,VWS V14.00,2013-10-18 11:43:00,
2013-10-18 07:44:00,61.1,0.0,29.63,West,273,9.5,13.5,0,0.10,,---,0.10,VWS V14.00,2013-10-18 11:44:00,
2013-10-18 07:45:00,61.2,0.0,29.63,SW,232,8.0,18.0,0,0.10,,---,0.10,VWS V14.00,2013-10-18 11:45:00,
2013-10-18 07:46:00,61.2,0.0,29.63,WSW,253,6.6,18.0,0,0.10,,---,0.10,VWS V14.00,2013-10-18 11:46:00,
2013-10-18 07:47:00,61.2,0.0,29.63,SW,228,6.6,18.0,0,0.10,,---,0.10,VWS V14.00,2013-10-18 11:47:00,
2013-10-18 07:48:00,61.2,0.0,29.63,SSW,207,5.3,18.0,0,0.10,,---,0.10,VWS V14.00,2013-10-18 11:48:00,
2013-10-18 07:49:00,61.3,0.0,29.63,West,269,3.4,18.0,0,0.10,,---,0.10,VWS V14.00,2013-10-18 11:49:00,
2013-10-18 07:50:00,61.3,0.0,29.63,WNW,283,9.0,19.1,0,0.10,,---,0.10,VWS V14.00,2013-10-18 11:50:00,
2013-10-18 07:51:00,61.3,0.0,29.64,WSW,245,6.1,19.1,0,0.10,,---,0.10,VWS V14.00,2013-10-18 11:51:00,
2013-10-18 07:52:00,61.4,0.0,29.64,WNW,290,10.5,19.1,0,0.10,,---,0.10,VWS V14.00,2013-10-18 11:52:00,
2013-10-18 07:53:00,61.5,0.0,29.64,WSW,255,7.4,19.1,0,0.10,,---,0.10,VWS V14.00,2013-10-18 11:53:00,
2013-10-18 07:54:00,61.5,0.0,29.64,WSW,245,6.8,19.1,0,0.10,,---,0.10,VWS V14.00,2013-10-18 11:54:00,
2013-10-18 07:55:00,61.5,0.0,29.64,West,262,6.8,12.6,0,0.10,,---,0.10,VWS V14.00,2013-10-18 11:55:00,
2013-10-18 07:56:00,61.4,0.0,29.64,SW,226,6.3,12.6,0,0.10,,---,0.10,VWS V14.00,2013-10-18 11:56:00,
2013-10-18 07:57:00,61.4,0.0,29.64,West,276,6.3,12.6,0,0.10,,---,0.10,VWS V14.00,2013-10-18 11:57:00,
2013-10-18 07:58:00,61.5,0.0,29.64,SSW,200,0.0,12.6,0,0.10,,---,0.10,VWS V14.00,2013-10-18 11:58:00,
2013-10-18 07:59:00,61.5,0.0,29.64,West,259,8.1,12.6,0,0.10,,---,0.10,VWS V14.00,2013-10-18 11:59:00,
2013-10-18 08:00:00,61.5,0.0,29.64,West,266,6.8,15.8,0,0.10,,---,0.10,VWS V14.00,2013-10-18 12:00:00,
2013-10-18 08:01:00,61.6,0.0,29.64,WNW,290,8.0,15.8,0,0.10,,---,0.10,VWS V14.00,2013-10-18 12:01:00,
2013-10-18 08:02:00,61.7,0.0,29.64,South,173,3.5,15.8,0,0.10,,---,0.10,VWS V14.00,2013-10-18 12:02:00,
2013-10-18 08:03:00,61.7,0.0,29.64,WSW,240,1.7,15.8,0,0.10,,---,0.10,VWS V14.00,2013-10-18 12:03:00,
2013-10-18 08:04:00,61.7,0.0,29.64,WSW,248,4.7,15.8,0,0.10,,---,0.10,VWS V14.00,2013-10-18 12:04:00,
2013-10-18 08:05:00,61.7,0.0,29.64,West,266,5.7,12.3,0,0.10,,---,0.10,VWS V14.00,2013-10-18 12:05:00,
2013-10-18 08:06:00,61.7,0.0,29.64,SW,231,4.3,12.3,0,0.10,,---,0.10,VWS V14.00,2013-10-18 12:06:00,
2013-10-18 08:07:00,61.7,0.0,29.64,West,270,0.0,12.3,0,0.10,,---,0.10,VWS V14.00,2013-10-18 12:07:00,
2013-10-18 08:08:00,61.9,0.0,29.64,SW,233,0.0,12.3,0,0.10,,---,0.10,VWS V14.00,2013-10-18 12:08:00,
2013-10-18 08:09:00,61.9,0.0,29.64,NW,323,6.0,12.3,0,0.10,,---,0.10,VWS V14.00,2013-10-18 12:09:00,
2013-10-18 08:10:00,61.9,0.0,29.64,WNW,291,6.2,12.9,0,0.10,,---,0.10,VWS V14.00,2013-10-18 12:10:00,
2013-10-18 08:11:00,61.9,0.0,29.64,South,180,0.0,12.9,0,0.10,,---,0.10,VWS V14.00,2013-10-18 12:11:00,
2013-10-18 08:12:00,61.9,0.0,29.64,West,263,5.4,12.9,0,0.10,,---,0.10,VWS V14.00,2013-10-18 12:12:00,
2013-10-18 08:13:00,62.1,0.0,29.64,WNW,283,10.2,12.9,0,0.10,,---,0.10,VWS V14.00,2013-10-18 12:13:00,
2013-10-18 08:14:00,62.1,0.0,29.64,WNW,300,6.5,12.9,0,0.10,,---,0.10,VWS V14.00,2013-10-18 12:14:00,
2013-10-18 08:15:00,62.0,0.0,29.64,South,190,9.4,14.5,0,0.10,,---,0.10,VWS V14.00,2013-10-18 12:15:00,
2013-10-18 08:16:00,62.0,0.0,29.64,North,349,4.5,14.5,0,0.10,,---,0.10,VWS V14.00,2013-10-18 12:16:00,
2013-10-18 08:17:00,62.1,0.0,29.64,SSW,212,6.9,14.5,0,0.10,,---,0.10,VWS V14.00,2013-10-18 12:17:00,
2013-10-18 08:18:00,62.1,0.0,29.64,WNW,287,10.0,14.5,0,0.10,,---,0.10,VWS V14.00,2013-10-18 12:18:00,
2013-10-18 08:19:00,62.0,0.0,29.64,WNW,297,6.5,14.5,0,0.10,,---,0.10,VWS V14.00,2013-10-18 12:19:00,
2013-10-18 08:20:00,62.0,0.0,29.64,West,277,6.9,14.5,0,0.10,,---,0.10,VWS V14.00,2013-10-18 12:20:00,
2013-10-18 08:21:00,61.9,0.0,29.64,West,266,11.8,19.0,0,0.10,,---,0.10,VWS V14.00,2013-10-18 12:21:00,
2013-10-18 08:22:00,62.0,0.0,29.64,West,269,11.7,19.0,0,0.10,,---,0.10,VWS V14.00,2013-10-18 12:22:00,
2013-10-18 08:23:00,62.0,0.0,29.64,NW,309,7.5,19.0,0,0.10,,---,0.10,VWS V14.00,2013-10-18 12:23:00,
2013-10-18 08:24:00,62.1,0.0,29.64,WSW,256,11.8,19.0,0,0.10,,---,0.10,VWS V14.00,2013-10-18 12:24:00,
2013-10-18 08:25:00,62.1,0.0,29.64,WSW,242,15.8,18.6,0,0.10,,---,0.10,VWS V14.00,2013-10-18 12:25:00,
2013-10-18 08:26:00,62.2,0.0,29.64,NW,308,9.1,18.6,0,0.10,,---,0.10,VWS V14.00,2013-10-18 12:26:00,
2013-10-18 08:27:00,62.1,0.0,29.64,West,273,7.6,18.6,0,0.10,,---,0.10,VWS V14.00,2013-10-18 12:27:00,
2013-10-18 08:28:00,62.2,0.0,29.64,WNW,294,4.8,18.6,0,0.10,,---,0.10,VWS V14.00,2013-10-18 12:28:00,
2013-10-18 08:29:00,62.2,0.0,29.64,NNW,332,5.9,18.6,0,0.10,,---,0.10,VWS V14.00,2013-10-18 12:29:00,
2013-10-18 08:30:00,62.3,0.0,29.64,NW,307,13.0,19.8,0,0.10,,---,0.10,VWS V14.00,2013-10-18 12:30:00,
2013-10-18 08:31:00,62.3,0.0,29.65,WNW,302,11.3,19.8,0,0.10,,---,0.10,VWS V14.00,2013-10-18 12:31:00,
2013-10-18 08:32:00,62.3,0.0,29.65,WNW,287,5.0,19.8,0,0.10,,---,0.10,VWS V14.00,2013-10-18 12:32:00,
2013-10-18 08:33:00,62.5,0.0,29.65,WNW,301,13.7,19.8,0,0.10,,---,0.10,VWS V14.00,2013-10-18 12:33:00,
2013-10-18 08:34:00,62.4,0.0,29.65,West,278,7.7,19.8,0,0.10,,---,0.10,VWS V14.00,2013-10-18 12:34:00,
2013-10-18 08:35:00,62.5,0.0,29.65,NW,321,10.5,19.4,0,0.10,,---,0.10,VWS V14.00,2013-10-18 12:35:00,
2013-10-18 08:36:00,62.7,0.0,29.65,WSW,249,10.7,19.4,0,0.10,,---,0.10,VWS V14.00,2013-10-18 12:36:00,
2013-10-18 08:37:00,62.6,0.0,29.65,NW,319,8.7,19.4,0,0.10,,---,0.10,VWS V14.00,2013-10-18 12:37:00,
2013-10-18 08:38:00,62.5,0.0,29.65,WNW,291,8.5,19.4,0,0.10,,---,0.10,VWS V14.00,2013-10-18 12:38:00,
2013-10-18 08:39:00,62.5,0.0,29.65,WNW,290,10.2,19.4,0,0.10,,---,0.10,VWS V14.00,2013-10-18 12:39:00,
2013-10-18 08:40:00,62.6,0.0,29.65,West,260,7.6,19.3,0,0.10,,---,0.10,VWS V14.00,2013-10-18 12:40:00,
2013-10-18 08:41:00,62.6,0.0,29.65,NW,319,9.3,19.3,0,0.10,,---,0.10,VWS V14.00,2013-10-18 12:41:00,
2013-10-18 08:42:00,62.5,0.0,29.65,West,278,9.5,19.3,0,0.10,,---,0.10,VWS V14.00,2013-10-18 12:42:00,
2013-10-18 08:43:00,62.5,0.0,29.66,West,264,11.2,19.3,0,0.10,,---,0.10,VWS V14.00,2013-10-18 12:43:00,
2013-10-18 08:44:00,62.5,0.0,29.65,WNW,291,4.2,19.3,0,0.10,,---,0.10,VWS V14.00,2013-10-18 12:44:00,
2013-10-18 08:45:00,62.5,0.0,29.65,WNW,295,12.9,22.6,0,0.10,,---,0.10,VWS V14.00,2013-10-18 12:45:00,
2013-10-18 08:46:00,62.5,0.0,29.65,West,267,12.7,22.6,0,0.10,,---,0.10,VWS V14.00,2013-10-18 12:46:00,
2013-10-18 08:47:00,62.5,0.0,29.65,West,281,6.1,22.6,0,0.10,,---,0.10,VWS V14.00,2013-10-18 12:47:00,
2013-10-18 08:48:00,62.5,0.0,29.66,WNW,288,9.8,22.6,0,0.10,,---,0.10,VWS V14.00,2013-10-18 12:48:00,
2013-10-18 08:49:00,62.5,0.0,29.65,West,264,9.4,22.6,0,0.10,,---,0.10,VWS V14.00,2013-10-18 12:49:00,
2013-10-18 08:50:00,62.6,0.0,29.66,West,277,6.4,20.4,0,0.10,,---,0.10,VWS V14.00,2013-10-18 12:50:00,
2013-10-18 08:51:00,62.8,0.0,29.66,WSW,238,4.7,20.4,0,0.10,,---,0.10,VWS V14.00,2013-10-18 12:51:00,
2013-10-18 08:52:00,62.8,0.0,29.66,WSW,238,10.3,20.4,0,0.10,,---,0.10,VWS V14.00,2013-10-18 12:52:00,
2013-10-18 08:53:00,62.8,0.0,29.66,NW,311,7.9,20.4,0,0.10,,---,0.10,VWS V14.00,2013-10-18 12:53:00,
2013-10-18 08:54:00,62.9,0.0,29.66,NNW,332,11.1,20.4,0,0.10,,---,0.10,VWS V14.00,2013-10-18 12:54:00,
2013-10-18 08:55:00,62.9,0.0,29.66,West,269,6.7,14.8,0,0.10,,---,0.10,VWS V14.00,2013-10-18 12:55:00,
2013-10-18 08:56:00,63.0,0.0,29.66,WNW,292,6.7,14.8,0,0.10,,---,0.10,VWS V14.00,2013-10-18 12:56:00,
2013-10-18 08:57:00,63.1,0.0,29.66,West,271,10.7,14.8,0,0.10,,---,0.10,VWS V14.00,2013-10-18 12:57:00,
2013-10-18 08:58:00,63.0,0.0,29.66,West,260,10.7,14.8,0,0.10,,---,0.10,VWS V14.00,2013-10-18 12:58:00,
2013-10-18 08:59:00,63.1,0.0,29.66,NW,312,10.9,14.8,0,0.10,,---,0.10,VWS V14.00,2013-10-18 12:59:00,
2013-10-18 09:00:00,63.1,0.0,29.66,NW,318,12.1,21.4,0,0.10,,---,0.10,VWS V14.00,2013-10-18 13:00:00,
2013-10-18 09:01:00,63.2,0.0,29.66,WNW,290,5.7,21.4,0,0.10,,---,0.10,VWS V14.00,2013-10-18 13:01:00,
2013-10-18 09:02:00,63.2,0.0,29.66,NW,309,9.9,21.4,0,0.10,,---,0.10,VWS V14.00,2013-10-18 13:02:00,
2013-10-18 09:03:00,63.2,0.0,29.66,West,260,12.1,21.4,0,0.10,,---,0.10,VWS V14.00,2013-10-18 13:03:00,
2013-10-18 09:04:00,63.2,0.0,29.66,WNW,297,5.7,21.4,0,0.10,,---,0.10,VWS V14.00,2013-10-18 13:04:00,
2013-10-18 09:05:00,63.2,0.0,29.66,WSW,246,7.1,17.3,0,0.10,,---,0.10,VWS V14.00,2013-10-18 13:05:00,
2013-10-18 09:06:00,63.2,0.0,29.66,WNW,291,13.3,17.3,0,0.10,,---,0.10,VWS V14.00,2013-10-18 13:06:00,
2013-10-18 09:07:00,63.3,0.0,29.66,NW,307,8.3,17.3,0,0.10,,---,0.10,VWS V14.00,2013-10-18 13:07:00,
2013-10-18 09:08:00,63.4,0.0,29.66,NW,311,6.6,17.3,0,0.10,,---,0.10,VWS V14.00,2013-10-18 13:08:00,
2013-10-18 09:09:00,63.7,0.0,29.66,WNW,285,5.2,17.3,0,0.10,,---,0.10,VWS V14.00,2013-10-18 13:09:00,
2013-10-18 09:10:00,63.7,0.0,29.66,WSW,243,5.2,14.9,0,0.10,,---,0.10,VWS V14.00,2013-10-18 13:10:00,
2013-10-18 09:11:00,63.6,0.0,29.66,NW,315,8.7,14.9,0,0.10,,---,0.10,VWS V14.00,2013-10-18 13:11:00,
2013-10-18 09:12:00,63.7,0.0,29.66,NW,316,15.5,15.5,0,0.10,,---,0.10,VWS V14.00,2013-10-18 13:12:00,
2013-10-18 09:13:00,63.6,0.0,29.66,WNW,291,5.3,14.9,0,0.10,,---,0.10,VWS V14.00,2013-10-18 13:13:00,
2013-10-18 09:14:00,63.9,0.0,29.66,WSW,246,10.0,14.9,0,0.10,,---,0.10,VWS V14.00,2013-10-18 13:14:00,
2013-10-18 09:15:00,64.1,0.0,29.66,WSW,253,13.2,18.0,0,0.10,,---,0.10,VWS V14.00,2013-10-18 13:15:00,
2013-10-18 09:16:00,64.1,0.0,29.66,WSW,239,9.4,18.0,0,0.10,,---,0.10,VWS V14.00,2013-10-18 13:16:00,
2013-10-18 09:17:00,63.9,0.0,29.67,NW,311,8.4,18.0,0,0.10,,---,0.10,VWS V14.00,2013-10-18 13:17:00,
2013-10-18 09:18:00,63.9,0.0,29.67,NNW,345,7.1,18.0,0,0.10,,---,0.10,VWS V14.00,2013-10-18 13:18:00,
2013-10-18 09:19:00,63.8,0.0,29.67,West,271,8.5,18.0,0,0.10,,---,0.10,VWS V14.00,2013-10-18 13:19:00,
2013-10-18 09:20:00,63.9,0.0,29.67,WNW,288,7.3,18.0,0,0.10,,---,0.10,VWS V14.00,2013-10-18 13:20:00,
2013-10-18 09:21:00,63.9,0.0,29.67,West,269,10.3,18.9,0,0.10,,---,0.10,VWS V14.00,2013-10-18 13:21:00,
2013-10-18 09:22:00,63.7,0.0,29.67,NW,309,8.2,18.9,0,0.10,,---,0.10,VWS V14.00,2013-10-18 13:22:00,
2013-10-18 09:23:00,63.9,0.0,29.67,WNW,287,10.6,18.9,0,0.10,,---,0.10,VWS V14.00,2013-10-18 13:23:00,
2013-10-18 09:24:00,63.9,0.0,29.67,WNW,300,5.6,18.9,0,0.10,,---,0.10,VWS V14.00,2013-10-18 13:24:00,
2013-10-18 09:25:00,64.0,0.0,29.67,WSW,243,5.7,18.9,0,0.10,,---,0.10,VWS V14.00,2013-10-18 13:25:00,
2013-10-18 09:26:00,64.2,0.0,29.67,West,277,10.1,20.0,0,0.10,,---,0.10,VWS V14.00,2013-10-18 13:26:00,
2013-10-18 09:27:00,64.2,0.0,29.67,West,271,10.5,20.0,0,0.10,,---,0.10,VWS V14.00,2013-10-18 13:27:00,
2013-10-18 09:28:00,64.0,0.0,29.67,SSW,204,4.7,20.0,0,0.10,,---,0.10,VWS V14.00,2013-10-18 13:28:00,
2013-10-18 09:29:00,64.2,0.0,29.67,West,266,12.2,20.0,0,0.10,,---,0.10,VWS V14.00,2013-10-18 13:29:00,
2013-10-18 09:30:00,64.2,0.0,29.67,WSW,238,7.1,16.8,0,0.10,,---,0.10,VWS V14.00,2013-10-18 13:30:00,
2013-10-18 09:31:00,64.1,0.0,29.67,WNW,283,11.7,16.8,0,0.10,,---,0.10,VWS V14.00,2013-10-18 13:31:00,
2013-10-18 09:32:00,64.4,0.0,29.67,West,277,8.9,16.8,0,0.10,,---,0.10,VWS V14.00,2013-10-18 13:32:00,
2013-10-18 09:33:00,64.6,0.0,29.67,SW,219,11.2,16.8,0,0.10,,---,0.10,VWS V14.00,2013-10-18 13:33:00,
2013-10-18 09:34:00,64.7,0.0,29.67,SW,222,5.2,16.8,0,0.10,,---,0.10,VWS V14.00,2013-10-18 13:34:00,
2013-10-18 09:35:00,64.9,0.0,29.67,North,354,5.6,18.5,0,0.10,,---,0.10,VWS V14.00,2013-10-18 13:35:00,
2013-10-18 09:36:00,65.0,0.0,29.67,WSW,250,7.7,18.5,0,0.10,,---,0.10,VWS V14.00,2013-10-18 13:36:00,
2013-10-18 09:37:00,65.0,0.0,29.67,WNW,287,6.2,18.5,0,0.10,,---,0.10,VWS V14.00,2013-10-18 13:37:00,
2013-10-18 09:38:00,65.0,0.0,29.67,WNW,298,10.8,18.5,0,0.10,,---,0.10,VWS V14.00,2013-10-18 13:38:00,
2013-10-18 09:39:00,65.1,0.0,29.67,West,276,8.2,18.5,0,0.10,,---,0.10,VWS V14.00,2013-10-18 13:39:00,
2013-10-18 09:40:00,65.1,0.0,29.67,SW,232,11.6,20.1,0,0.10,,---,0.10,VWS V14.00,2013-10-18 13:40:00,
2013-10-18 09:41:00,64.8,0.0,29.67,WNW,288,5.3,20.1,0,0.10,,---,0.10,VWS V14.00,2013-10-18 13:41:00,
2013-10-18 09:42:00,65.0,0.0,29.67,WSW,249,7.5,20.1,0,0.10,,---,0.10,VWS V14.00,2013-10-18 13:42:00,
2013-10-18 09:43:00,64.8,0.0,29.67,West,281,8.6,20.1,0,0.10,,---,0.10,VWS V14.00,2013-10-18 13:43:00,
2013-10-18 09:44:00,64.9,0.0,29.67,SSW,204,5.2,20.1,0,0.10,,---,0.10,VWS V14.00,2013-10-18 13:44:00,
2013-10-18 09:45:00,65.1,0.0,29.67,WNW,288,7.1,22.1,0,0.10,,---,0.10,VWS V14.00,2013-10-18 13:45:00,
2013-10-18 09:46:00,65.3,0.0,29.67,WNW,302,6.7,22.1,0,0.10,,---,0.10,VWS V14.00,2013-10-18 13:46:00,
2013-10-18 09:47:00,65.1,0.0,29.67,West,259,9.8,22.1,0,0.10,,---,0.10,VWS V14.00,2013-10-18 13:47:00,
2013-10-18 09:48:00,64.9,0.0,29.67,West,273,7.6,22.1,0,0.10,,---,0.10,VWS V14.00,2013-10-18 13:48:00,
2013-10-18 09:49:00,65.2,0.0,29.67,WSW,257,7.1,22.1,0,0.10,,---,0.10,VWS V14.00,2013-10-18 13:49:00,
2013-10-18 09:50:00,65.4,0.0,29.67,WSW,249,7.3,18.2,0,0.10,,---,0.10,VWS V14.00,2013-10-18 13:50:00,
2013-10-18 09:51:00,65.5,0.0,29.67,West,270,7.6,18.2,0,0.10,,---,0.10,VWS V14.00,2013-10-18 13:51:00,
2013-10-18 09:52:00,65.3,0.0,29.67,West,277,10.4,18.2,0,0.10,,---,0.10,VWS V14.00,2013-10-18 13:52:00,
2013-10-18 09:53:00,65.0,0.0,29.67,West,280,6.3,18.2,0,0.10,,---,0.10,VWS V14.00,2013-10-18 13:53:00,
2013-10-18 09:54:00,65.2,0.0,29.67,NW,304,6.5,18.2,0,0.10,,---,0.10,VWS V14.00,2013-10-18 13:54:00,
2013-10-18 09:55:00,65.5,0.0,29.68,WNW,300,9.1,15.2,0,0.10,,---,0.10,VWS V14.00,2013-10-18 13:55:00,
2013-10-18 09:56:00,65.8,0.0,29.67,WSW,240,9.6,15.2,0,0.10,,---,0.10,VWS V14.00,2013-10-18 13:56:00,
2013-10-18 09:57:00,66.3,0.0,29.67,WSW,253,3.4,15.2,0,0.10,,---,0.10,VWS V14.00,2013-10-18 13:57:00,
2013-10-18 09:58:00,66.3,0.0,29.67,SW,236,4.3,15.2,0,0.10,,---,0.10,VWS V14.00,2013-10-18 13:58:00,
2013-10-18 09:59:00,66.4,0.0,29.68,West,280,9.6,15.2,0,0.10,,---,0.10,VWS V14.00,2013-10-18 13:59:00,
2013-10-18 10:00:00,66.2,0.0,29.68,WSW,242,11.5,13.2,0,0.10,,---,0.10,VWS V14.00,2013-10-18 14:00:00,
2013-10-18 10:01:00,66.1,0.0,29.68,WNW,285,7.9,13.2,0,0.10,,---,0.10,VWS V14.00,2013-10-18 14:01:00,
2013-10-18 10:02:00,66.2,0.0,29.68,WSW,255,7.7,13.2,0,0.10,,---,0.10,VWS V14.00,2013-10-18 14:02:00,
2013-10-18 10:03:00,65.7,0.0,29.68,SSW,200,7.4,13.2,0,0.10,,---,0.10,VWS V14.00,2013-10-18 14:03:00,
2013-10-18 10:04:00,65.2,0.0,29.68,WSW,255,8.8,13.2,0,0.10,,---,0.10,VWS V14.00,2013-10-18 14:04:00,
2013-10-18 10:05:00,65.6,0.0,29.68,WSW,240,7.2,15.3,0,0.10,,---,0.10,VWS V14.00,2013-10-18 14:05:00,
2013-10-18 10:06:00,65.9,0.0,29.68,SW,221,3.4,15.3,0,0.10,,---,0.10,VWS V14.00,2013-10-18 14:06:00,
2013-10-18 10:07:00,65.9,0.0,29.68,NW,305,9.3,15.3,0,0.10,,---,0.10,VWS V14.00,2013-10-18 14:07:00,
2013-10-18 10:08:00,66.2,0.0,29.68,NW,308,11.6,15.3,0,0.10,,---,0.10,VWS V14.00,2013-10-18 14:08:00,
2013-10-18 10:09:00,65.8,0.0,29.68,West,270,6.5,15.3,0,0.10,,---,0.10,VWS V14.00,2013-10-18 14:09:00,
2013-10-18 10:10:00,65.6,0.0,29.68,NW,326,6.2,22.9,0,0.10,,---,0.10,VWS V14.00,2013-10-18 14:10:00,
2013-10-18 10:11:00,65.6,0.0,29.68,NW,314,8.6,22.9,0,0.10,,---,0.10,VWS V14.00,2013-10-18 14:11:00,
2013-10-18 10:12:00,65.3,0.0,29.68,WNW,291,17.3,22.9,0,0.10,,---,0.10,VWS V14.00,2013-10-18 14:12:00,
2013-10-18 10:13:00,65.7,0.0,29.68,WSW,246,7.8,22.9,0,0.10,,---,0.10,VWS V14.00,2013-10-18 14:13:00,
2013-10-18 10:14:00,65.9,0.0,29.68,SW,233,8.5,22.9,0,0.10,,---,0.10,VWS V14.00,2013-10-18 14:14:00,
2013-10-18 10:15:00,65.8,0.0,29.68,NW,315,6.7,24.2,0,0.10,,---,0.10,VWS V14.00,2013-10-18 14:15:00,
2013-10-18 10:16:00,65.1,0.0,29.68,West,281,6.6,24.2,0,0.10,,---,0.10,VWS V14.00,2013-10-18 14:16:00,
2013-10-18 10:17:00,65.3,0.0,29.68,WSW,257,6.3,24.2,0,0.10,,---,0.10,VWS V14.00,2013-10-18 14:17:00,
2013-10-18 10:18:00,64.7,0.0,29.68,WSW,252,9.2,24.2,0,0.10,,---,0.10,VWS V14.00,2013-10-18 14:18:00,
2013-10-18 10:19:00,64.4,0.0,29.67,SSW,212,6.3,24.2,0,0.10,,---,0.10,VWS V14.00,2013-10-18 14:19:00,
2013-10-18 10:20:00,65.0,0.0,29.68,West,277,29.9,29.9,0,0.10,,---,0.10,VWS V14.00,2013-10-18 14:20:00,
2013-10-18 10:21:00,64.7,0.0,29.67,WNW,290,8.1,21.4,0,0.10,,---,0.10,VWS V14.00,2013-10-18 14:21:00,
2013-10-18 10:22:00,64.3,0.0,29.67,West,266,10.1,21.4,0,0.10,,---,0.10,VWS V14.00,2013-10-18 14:22:00,
2013-10-18 10:23:00,64.2,0.0,29.68,WNW,301,7.8,21.4,0,0.10,,---,0.10,VWS V14.00,2013-10-18 14:23:00,
2013-10-18 10:24:00,64.0,0.0,29.67,WNW,288,16.7,21.4,0,0.10,,---,0.10,VWS V14.00,2013-10-18 14:24:00,
2013-10-18 10:25:00,63.9,0.0,29.67,West,260,10.7,21.4,0,0.10,,---,0.10,VWS V14.00,2013-10-18 14:25:00,
2013-10-18 10:26:00,64.1,0.0,29.67,WSW,255,13.2,30.0,0,0.10,,---,0.10,VWS V14.00,2013-10-18 14:26:00,
2013-10-18 10:27:00,64.2,0.0,29.68,West,278,8.6,30.0,0,0.10,,---,0.10,VWS V14.00,2013-10-18 14:27:00,
2013-10-18 10:28:00,65.1,0.0,29.68,West,280,9.9,30.0,0,0.10,,---,0.10,VWS V14.00,2013-10-18 14:28:00,
2013-10-18 10:29:00,65.5,0.0,29.67,WNW,298,8.7,30.0,0,0.10,,---,0.10,VWS V14.00,2013-10-18 14:29:00,
2013-10-18 10:30:00,66.1,0.0,29.68,West,280,7.5,30.0,0,0.10,,---,0.10,VWS V14.00,2013-10-18 14:30:00,
2013-10-18 10:31:00,66.3,0.0,29.68,WNW,284,10.8,23.5,0,0.10,,---,0.10,VWS V14.00,2013-10-18 14:31:00,
2013-10-18 10:32:00,66.2,0.0,29.68,West,269,14.7,23.5,0,0.10,,---,0.10,VWS V14.00,2013-10-18 14:32:00,
2013-10-18 10:33:00,66.0,0.0,29.68,NW,304,9.3,23.5,0,0.10,,---,0.10,VWS V14.00,2013-10-18 14:33:00,
2013-10-18 10:34:00,65.9,0.0,29.68,WNW,287,7.9,23.5,0,0.10,,---,0.10,VWS V14.00,2013-10-18 14:34:00,
2013-10-18 10:35:00,66.1,0.0,29.68,WSW,253,12.9,19.7,0,0.10,,---,0.10,VWS V14.00,2013-10-18 14:35:00,
2013-10-18 10:36:00,66.2,0.0,29.68,SW,235,4.3,19.7,0,0.10,,---,0.10,VWS V14.00,2013-10-18 14:36:00,
2013-10-18 10:37:00,66.6,0.0,29.68,West,270,7.9,19.7,0,0.10,,---,0.10,VWS V14.00,2013-10-18 14:37:00,
2013-10-18 10:38:00,66.2,0.0,29.68,West,262,8.2,19.7,0,0.10,,---,0.10,VWS V14.00,2013-10-18 14:38:00,
2013-10-18 10:39:00,66.3,0.0,29.68,West,270,9.9,19.7,0,0.10,,---,0.10,VWS V14.00,2013-10-18 14:39:00,
2013-10-18 10:40:00,66.5,0.0,29.68,NNW,333,9.9,18.2,0,0.10,,---,0.10,VWS V14.00,2013-10-18 14:40:00,
2013-10-18 10:41:00,66.8,0.0,29.68,NW,305,12.9,18.2,0,0.10,,---,0.10,VWS V14.00,2013-10-18 14:41:00,
2013-10-18 10:42:00,67.0,0.0,29.68,WSW,249,10.4,18.2,0,0.10,,---,0.10,VWS V14.00,2013-10-18 14:42:00,
2013-10-18 10:43:00,67.3,0.0,29.68,WSW,256,8.4,18.2,0,0.10,,---,0.10,VWS V14.00,2013-10-18 14:43:00,
2013-10-18 10:44:00,67.2,0.0,29.68,WSW,249,5.7,18.2,0,0.10,,---,0.10,VWS V14.00,2013-10-18 14:44:00,
2013-10-18 10:45:00,67.5,0.0,29.68,WNW,297,11.4,17.5,0,0.10,,---,0.10,VWS V14.00,2013-10-18 14:45:00,
2013-10-18 10:46:00,67.3,0.0,29.68,West,269,10.3,17.5,0,0.10,,---,0.10,VWS V14.00,2013-10-18 14:46:00,
2013-10-18 10:47:00,67.3,0.0,29.68,West,262,5.5,17.5,0,0.10,,---,0.10,VWS V14.00,2013-10-18 14:47:00,
2013-10-18 10:48:00,66.8,0.0,29.68,SW,235,4.5,17.5,0,0.10,,---,0.10,VWS V14.00,2013-10-18 14:48:00,
2013-10-18 10:49:00,67.4,0.0,29.68,SSW,202,6.1,17.5,0,0.10,,---,0.10,VWS V14.00,2013-10-18 14:49:00,
2013-10-18 10:50:00,68.1,0.0,29.68,West,262,12.2,14.0,0,0.10,,---,0.10,VWS V14.00,2013-10-18 14:50:00,
2013-10-18 10:51:00,67.7,0.0,29.68,West,273,4.7,14.0,0,0.10,,---,0.10,VWS V14.00,2013-10-18 14:51:00,
2013-10-18 10:52:00,67.9,0.0,29.68,WSW,253,6.2,14.0,0,0.10,,---,0.10,VWS V14.00,2013-10-18 14:52:00,
2013-10-18 10:53:00,67.4,0.0,29.68,SW,229,8.8,14.0,0,0.10,,---,0.10,VWS V14.00,2013-10-18 14:53:00,
2013-10-18 10:54:00,67.8,0.0,29.68,West,269,7.6,14.0,0,0.10,,---,0.10,VWS V14.00,2013-10-18 14:54:00,
2013-10-18 10:55:00,67.9,0.0,29.68,West,276,8.2,16.4,0,0.10,,---,0.10,VWS V14.00,2013-10-18 14:55:00,
2013-10-18 10:56:00,67.8,0.0,29.68,WSW,240,6.1,16.4,0,0.10,,---,0.10,VWS V14.00,2013-10-18 14:56:00,
2013-10-18 10:57:00,67.9,0.0,29.68,West,270,8.1,16.4,0,0.10,,---,0.10,VWS V14.00,2013-10-18 14:57:00,
2013-10-18 10:58:00,67.8,0.0,29.68,WSW,253,5.8,16.4,0,0.10,,---,0.10,VWS V14.00,2013-10-18 14:58:00,
2013-10-18 10:59:00,67.2,0.0,29.68,SW,236,9.0,16.4,0,0.10,,---,0.10,VWS V14.00,2013-10-18 14:59:00,
2013-10-18 11:00:00,67.0,0.0,29.68,SSW,201,7.5,25.1,0,0.10,,---,0.10,VWS V14.00,2013-10-18 15:00:00,
2013-10-18 11:01:00,67.3,0.0,29.68,SW,236,5.3,25.1,0,0.10,,---,0.10,VWS V14.00,2013-10-18 15:01:00,
2013-10-18 11:02:00,67.8,0.0,29.68,SSW,201,4.5,25.1,0,0.10,,---,0.10,VWS V14.00,2013-10-18 15:02:00,
2013-10-18 11:03:00,67.9,0.0,29.68,SW,232,4.8,25.1,0,0.10,,---,0.10,VWS V14.00,2013-10-18 15:03:00,
2013-10-18 11:04:00,68.5,0.0,29.68,West,260,8.5,25.1,0,0.10,,---,0.10,VWS V14.00,2013-10-18 15:04:00,
2013-10-18 11:05:00,68.5,0.0,29.68,South,191,3.5,15.8,0,0.10,,---,0.10,VWS V14.00,2013-10-18 15:05:00,
2013-10-18 11:06:00,68.5,0.0,29.68,SW,232,5.2,15.8,0,0.10,,---,0.10,VWS V14.00,2013-10-18 15:06:00,
2013-10-18 11:07:00,69.0,0.0,29.68,WSW,240,4.9,15.8,0,0.10,,---,0.10,VWS V14.00,2013-10-18 15:07:00,
2013-10-18 11:08:00,69.2,0.0,29.68,West,260,3.4,15.8,0,0.10,,---,0.10,VWS V14.00,2013-10-18 15:08:00,
2013-10-18 11:09:00,69.1,0.0,29.68,SW,226,7.5,15.8,0,0.10,,---,0.10,VWS V14.00,2013-10-18 15:09:00,
2013-10-18 11:10:00,68.9,0.0,29.68,SW,232,5.6,15.7,0,0.10,,---,0.10,VWS V14.00,2013-10-18 15:10:00,
2013-10-18 11:11:00,69.0,0.0,29.68,SW,221,10.8,15.7,0,0.10,,---,0.10,VWS V14.00,2013-10-18 15:11:00,
2013-10-18 11:12:00,69.4,0.0,29.68,SSW,197,9.8,15.7,0,0.10,,---,0.10,VWS V14.00,2013-10-18 15:12:00,
2013-10-18 11:13:00,69.8,0.0,29.68,WSW,250,7.4,15.7,0,0.10,,---,0.10,VWS V14.00,2013-10-18 15:13:00,
2013-10-18 11:14:00,69.7,0.0,29.68,West,274,7.0,15.7,0,0.10,,---,0.10,VWS V14.00,2013-10-18 15:14:00,
2013-10-18 11:15:00,70.0,0.0,29.69,WSW,242,7.3,16.1,0,0.10,,---,0.10,VWS V14.00,2013-10-18 15:15:00,
2013-10-18 11:16:00,69.8,0.0,29.69,SW,221,0.0,16.1,0,0.10,,---,0.10,VWS V14.00,2013-10-18 15:16:00,
2013-10-18 11:17:00,69.9,0.0,29.68,WSW,239,8.1,16.1,0,0.10,,---,0.10,VWS V14.00,2013-10-18 15:17:00,
2013-10-18 11:18:00,69.5,0.0,29.68,WNW,301,5.2,16.1,0,0.10,,---,0.10,VWS V14.00,2013-10-18 15:18:00,
2013-10-18 11:19:00,68.5,0.0,29.68,NW,323,8.1,16.1,0,0.10,,---,0.10,VWS V14.00,2013-10-18 15:19:00,
2013-10-18 11:20:00,68.1,0.0,29.68,NW,323,5.6,12.2,0,0.10,,---,0.10,VWS V14.00,2013-10-18 15:20:00,
2013-10-18 11:21:00,67.9,0.0,29.68,WSW,240,4.2,12.2,0,0.10,,---,0.10,VWS V14.00,2013-10-18 15:21:00,
2013-10-18 11:22:00,67.1,0.0,29.68,WNW,284,9.9,12.2,0,0.10,,---,0.10,VWS V14.00,2013-10-18 15:22:00,
2013-10-18 11:23:00,66.4,0.0,29.68,WNW,301,16.7,16.7,0,0.10,,---,0.10,VWS V14.00,2013-10-18 15:23:00,
2013-10-18 11:24:00,66.3,0.0,29.68,WNW,301,8.0,12.2,0,0.10,,---,0.10,VWS V14.00,2013-10-18 15:24:00,
2013-10-18 11:25:00,66.3,0.0,29.68,NW,322,11.1,18.7,0,0.10,,---,0.10,VWS V14.00,2013-10-18 15:25:00,
2013-10-18 11:26:00,66.1,0.0,29.68,WNW,295,7.3,18.7,0,0.10,,---,0.10,VWS V14.00,2013-10-18 15:26:00,
2013-10-18 11:27:00,66.2,0.0,29.68,WNW,297,10.9,18.7,0,0.10,,---,0.10,VWS V14.00,2013-10-18 15:27:00,
2013-10-18 11:28:00,66.1,0.0,29.68,WSW,252,5.2,18.7,0,0.10,,---,0.10,VWS V14.00,2013-10-18 15:28:00,
2013-10-18 11:29:00,66.0,0.0,29.68,West,267,5.4,18.7,0,0.10,,---,0.10,VWS V14.00,2013-10-18 15:29:00,
2013-10-18 11:30:00,65.8,0.0,29.68,West,273,11.6,18.7,0,0.10,,---,0.10,VWS V14.00,2013-10-18 15:30:00,
2013-10-18 11:31:00,66.1,0.0,29.68,WNW,297,10.9,24.3,0,0.10,,---,0.10,VWS V14.00,2013-10-18 15:31:00,
2013-10-18 11:32:00,66.9,0.0,29.68,NW,314,11.4,24.3,0,0.10,,---,0.10,VWS V14.00,2013-10-18 15:32:00,
2013-10-18 11:33:00,67.7,0.0,29.68,NW,314,4.5,24.3,0,0.10,,---,0.10,VWS V14.00,2013-10-18 15:33:00,
2013-10-18 11:34:00,67.9,0.0,29.68,NW,323,6.0,24.3,0,0.10,,---,0.10,VWS V14.00,2013-10-18 15:34:00,
2013-10-18 11:35:00,67.9,0.0,29.68,WSW,256,3.1,14.2,0,0.10,,---,0.10,VWS V14.00,2013-10-18 15:35:00,
2013-10-18 11:36:00,67.8,0.0,29.68,NW,309,10.3,14.2,0,0.10,,---,0.10,VWS V14.00,2013-10-18 15:36:00,
2013-10-18 11:37:00,67.2,0.0,29.68,WNW,298,7.6,14.2,0,0.10,,---,0.10,VWS V14.00,2013-10-18 15:37:00,
2013-10-18 11:38:00,67.0,0.0,29.68,West,263,10.1,14.2,0,0.10,,---,0.10,VWS V14.00,2013-10-18 15:38:00,
2013-10-18 11:39:00,67.2,0.0,29.68,WSW,248,14.4,14.4,0,0.10,,---,0.10,VWS V14.00,2013-10-18 15:39:00,
2013-10-18 11:40:00,67.8,0.0,29.68,NW,311,11.3,17.0,0,0.10,,---,0.10,VWS V14.00,2013-10-18 15:40:00,
2013-10-18 11:41:00,68.0,0.0,29.68,SW,236,5.2,17.0,0,0.10,,---,0.10,VWS V14.00,2013-10-18 15:41:00,
2013-10-18 11:42:00,68.4,0.0,29.68,WNW,292,8.7,17.0,0,0.10,,---,0.10,VWS V14.00,2013-10-18 15:42:00,
2013-10-18 11:43:00,68.4,0.0,29.68,West,277,8.9,17.0,0,0.10,,---,0.10,VWS V14.00,2013-10-18 15:43:00,
2013-10-18 11:44:00,67.9,0.0,29.68,SW,222,6.1,17.0,0,0.10,,---,0.10,VWS V14.00,2013-10-18 15:44:00,
2013-10-18 11:45:00,68.1,0.0,29.68,West,276,5.5,18.5,0,0.10,,---,0.10,VWS V14.00,2013-10-18 15:45:00,
2013-10-18 11:46:00,68.3,0.0,29.68,SW,235,7.0,18.5,0,0.10,,---,0.10,VWS V14.00,2013-10-18 15:46:00,
2013-10-18 11:47:00,68.2,0.0,29.68,SSW,212,7.4,18.5,0,0.10,,---,0.10,VWS V14.00,2013-10-18 15:47:00,
2013-10-18 11:48:00,68.3,0.0,29.68,SSW,202,6.7,18.5,0,0.10,,---,0.10,VWS V14.00,2013-10-18 15:48:00,
2013-10-18 11:49:00,68.6,0.0,29.68,West,263,10.5,18.5,0,0.10,,---,0.10,VWS V14.00,2013-10-18 15:49:00,
2013-10-18 11:50:00,68.5,0.0,29.68,WSW,239,7.6,15.7,0,0.10,,---,0.10,VWS V14.00,2013-10-18 15:50:00,
2013-10-18 11:51:00,68.3,0.0,29.68,SW,226,8.2,15.7,0,0.10,,---,0.10,VWS V14.00,2013-10-18 15:51:00,
2013-10-18 11:52:00,68.5,0.0,29.68,West,263,9.4,15.7,0,0.10,,---,0.10,VWS V14.00,2013-10-18 15:52:00,
2013-10-18 11:53:00,68.2,0.0,29.68,WNW,292,13.2,15.7,0,0.10,,---,0.10,VWS V14.00,2013-10-18 15:53:00,
2013-10-18 11:54:00,68.1,0.0,29.68,West,262,11.9,15.7,0,0.10,,---,0.10,VWS V14.00,2013-10-18 15:54:00,
2013-10-18 11:55:00,68.0,0.0,29.68,WNW,302,8.9,23.4,0,0.10,,---,0.10,VWS V14.00,2013-10-18 15:55:00,
2013-10-18 11:56:00,68.1,0.0,29.68,WNW,290,13.5,23.4,0,0.10,,---,0.10,VWS V14.00,2013-10-18 15:56:00,
2013-10-18 11:57:00,68.2,0.0,29.68,West,267,13.0,23.4,0,0.10,,---,0.10,VWS V14.00,2013-10-18 15:57:00,
2013-10-18 11:58:00,68.3,0.0,29.68,West,263,8.8,23.4,0,0.10,,---,0.10,VWS V14.00,2013-10-18 15:58:00,
2013-10-18 11:59:00,67.4,0.0,29.68,WSW,245,8.9,23.4,0,0.10,,---,0.10,VWS V14.00,2013-10-18 15:59:00,
2013-10-18 12:00:00,66.7,0.0,29.68,NW,312,9.8,17.3,0,0.10,,---,0.10,VWS V14.00,2013-10-18 16:00:00,
2013-10-18 12:01:00,66.4,0.0,29.68,WSW,242,4.6,17.3,0,0.10,,---,0.10,VWS V14.00,2013-10-18 16:01:00,
2013-10-18 12:02:00,66.7,0.0,29.68,SW,232,11.9,17.3,0,0.10,,---,0.10,VWS V14.00,2013-10-18 16:02:00,
2013-10-18 12:03:00,66.4,0.0,29.68,North,0,5.0,17.3,0,0.10,,---,0.10,VWS V14.00,2013-10-18 16:03:00,
2013-10-18 12:04:00,66.3,0.0,29.68,WSW,240,8.1,17.3,0,0.10,,---,0.10,VWS V14.00,2013-10-18 16:04:00,
2013-10-18 12:05:00,67.0,0.0,29.68,WSW,238,7.7,19.6,0,0.10,,---,0.10,VWS V14.00,2013-10-18 16:05:00,
2013-10-18 12:06:00,66.9,0.0,29.68,WSW,248,5.5,19.6,0,0.10,,---,0.10,VWS V14.00,2013-10-18 16:06:00,
2013-10-18 12:07:00,66.4,0.0,29.68,WSW,248,5.4,19.6,0,0.10,,---,0.10,VWS V14.00,2013-10-18 16:07:00,
2013-10-18 12:08:00,66.9,0.0,29.68,WNW,300,7.2,19.6,0,0.10,,---,0.10,VWS V14.00,2013-10-18 16:08:00,
2013-10-18 12:09:00,66.5,0.0,29.68,West,277,10.6,19.6,0,0.10,,---,0.10,VWS V14.00,2013-10-18 16:09:00,
2013-10-18 12:10:00,66.4,0.0,29.68,WNW,292,13.0,18.4,0,0.10,,---,0.10,VWS V14.00,2013-10-18 16:10:00,
2013-10-18 12:11:00,66.7,0.0,29.68,West,260,7.5,18.4,0,0.10,,---,0.10,VWS V14.00,2013-10-18 16:11:00,
2013-10-18 12:12:00,67.1,0.0,29.68,West,271,12.4,18.4,0,0.10,,---,0.10,VWS V14.00,2013-10-18 16:12:00,
2013-10-18 12:13:00,67.1,0.0,29.68,NW,315,7.5,18.4,0,0.10,,---,0.10,VWS V14.00,2013-10-18 16:13:00,
2013-10-18 12:14:00,67.1,0.0,29.68,West,269,4.5,18.4,0,0.10,,---,0.10,VWS V14.00,2013-10-18 16:14:00,
2013-10-18 12:15:00,67.4,0.0,29.68,SW,229,8.9,20.9,0,0.10,,---,0.10,VWS V14.00,2013-10-18 16:15:00,
2013-10-18 12:16:00,67.9,0.0,29.68,West,281,6.6,20.9,0,0.10,,---,0.10,VWS V14.00,2013-10-18 16:16:00,
2013-10-18 12:17:00,68.1,0.0,29.68,West,278,13.3,20.9,0,0.10,,---,0.10,VWS V14.00,2013-10-18 16:17:00,
2013-10-18 12:18:00,68.3,0.0,29.68,North,0,5.1,20.9,0,0.10,,---,0.10,VWS V14.00,2013-10-18 16:18:00,
2013-10-18 12:19:00,68.1,0.0,29.68,West,271,10.0,20.9,0,0.10,,---,0.10,VWS V14.00,2013-10-18 16:19:00,
2013-10-18 12:20:00,68.4,0.0,29.68,West,281,8.1,21.6,0,0.10,,---,0.10,VWS V14.00,2013-10-18 16:20:00,
2013-10-18 12:21:00,68.5,0.0,29.68,WSW,255,7.1,21.6,0,0.10,,---,0.10,VWS V14.00,2013-10-18 16:21:00,
2013-10-18 12:22:00,67.9,0.0,29.68,West,266,15.6,21.6,0,0.10,,---,0.10,VWS V14.00,2013-10-18 16:22:00,
2013-10-18 12:23:00,67.9,0.0,29.68,WSW,240,0.0,21.6,0,0.10,,---,0.10,VWS V14.00,2013-10-18 16:23:00,
2013-10-18 12:24:00,68.0,0.0,29.68,SW,228,9.3,21.6,0,0.10,,---,0.10,VWS V14.00,2013-10-18 16:24:00,
2013-10-18 12:25:00,67.5,0.0,29.68,NW,314,0.0,16.5,0,0.10,,---,0.10,VWS V14.00,2013-10-18 16:25:00,
2013-10-18 12:26:00,67.8,0.0,29.68,NW,314,0.0,16.5,0,0.10,,---,0.10,VWS V14.00,2013-10-18 16:26:00,
2013-10-18 12:27:00,67.1,0.0,29.68,WSW,246,8.5,16.5,0,0.10,,---,0.10,VWS V14.00,2013-10-18 16:27:00,
2013-10-18 12:28:00,67.7,0.0,29.68,West,280,9.4,16.5,0,0.10,,---,0.10,VWS V14.00,2013-10-18 16:28:00,
2013-10-18 12:29:00,67.3,0.0,29.68,WNW,283,9.7,16.5,0,0.10,,---,0.10,VWS V14.00,2013-10-18 16:29:00,
2013-10-18 12:30:00,66.9,0.0,29.68,North,359,12.4,16.5,0,0.10,,---,0.10,VWS V14.00,2013-10-18 16:30:00,
2013-10-18 12:31:00,66.8,0.0,29.68,West,269,9.0,17.6,0,0.10,,---,0.10,VWS V14.00,2013-10-18 16:31:00,
2013-10-18 12:32:00,67.0,0.0,29.68,West,276,8.3,17.6,0,0.10,,---,0.10,VWS V14.00,2013-10-18 16:32:00,
2013-10-18 12:33:00,66.4,0.0,29.68,WSW,240,5.7,17.6,0,0.10,,---,0.10,VWS V14.00,2013-10-18 16:33:00,
2013-10-18 12:34:00,66.2,0.0,29.68,WNW,285,6.6,17.6,0,0.10,,---,0.10,VWS V14.00,2013-10-18 16:34:00,
2013-10-18 12:35:00,66.8,0.0,29.68,SW,214,5.7,17.6,0,0.10,,---,0.10,VWS V14.00,2013-10-18 16:35:00,
2013-10-18 12:36:00,67.0,0.0,29.68,West,264,7.0,16.0,0,0.10,,---,0.10,VWS V14.00,2013-10-18 16:36:00,
2013-10-18 12:37:00,67.4,0.0,29.68,West,280,7.1,16.0,0,0.10,,---,0.10,VWS V14.00,2013-10-18 16:37:00,
2013-10-18 12:38:00,67.0,0.0,29.68,WSW,248,6.2,16.0,0,0.10,,---,0.10,VWS V14.00,2013-10-18 16:38:00,
2013-10-18 12:39:00,66.6,0.0,29.68,West,262,6.4,16.0,0,0.10,,---,0.10,VWS V14.00,2013-10-18 16:39:00,
2013-10-18 12:40:00,66.5,0.0,29.68,West,271,6.3,15.4,0,0.10,,---,0.10,VWS V14.00,2013-10-18 16:40:00,
2013-10-18 12:41:00,66.3,0.0,29.68,NW,312,9.4,15.4,0,0.10,,---,0.10,VWS V14.00,2013-10-18 16:41:00,
2013-10-18 12:42:00,66.1,0.0,29.68,West,270,10.8,15.4,0,0.10,,---,0.10,VWS V14.00,2013-10-18 16:42:00,
2013-10-18 12:43:00,66.2,0.0,29.68,West,267,9.9,15.4,0,0.10,,---,0.10,VWS V14.00,2013-10-18 16:43:00,
2013-10-18 12:44:00,66.4,0.0,29.68,SW,226,4.5,15.4,0,0.10,,---,0.10,VWS V14.00,2013-10-18 16:44:00,
2013-10-18 12:45:00,66.9,0.0,29.68,WSW,240,3.3,19.6,0,0.10,,---,0.10,VWS V14.00,2013-10-18 16:45:00,
2013-10-18 12:46:00,67.2,0.0,29.68,WSW,246,5.0,19.6,0,0.10,,---,0.10,VWS V14.00,2013-10-18 16:46:00,
2013-10-18 12:47:00,67.7,0.0,29.68,West,262,7.6,19.6,0,0.10,,---,0.10,VWS V14.00,2013-10-18 16:47:00,
2013-10-18 12:48:00,68.1,0.0,29.68,NW,305,5.3,19.6,0,0.10,,---,0.10,VWS V14.00,2013-10-18 16:48:00,
2013-10-18 12:49:00,67.7,0.0,29.68,WNW,300,0.0,19.6,0,0.10,,---,0.10,VWS V14.00,2013-10-18 16:49:00,
2013-10-18 12:50:00,67.4,0.0,29.68,NW,318,5.9,15.2,0,0.10,,---,0.10,VWS V14.00,2013-10-18 16:50:00,
2013-10-18 12:51:00,67.0,0.0,29.68,WNW,301,16.5,16.5,0,0.10,,---,0.10,VWS V14.00,2013-10-18 16:51:00,
2013-10-18 12:52:00,67.5,0.0,29.68,SSW,201,7.2,15.2,0,0.10,,---,0.10,VWS V14.00,2013-10-18 16:52:00,
2013-10-18 12:53:00,68.0,0.0,29.68,West,259,13.5,15.2,0,0.10,,---,0.10,VWS V14.00,2013-10-18 16:53:00,
2013-10-18 12:54:00,68.7,0.0,29.68,WSW,257,7.0,15.2,0,0.10,,---,0.10,VWS V14.00,2013-10-18 16:54:00,
2013-10-18 12:55:00,68.9,0.0,29.68,WSW,248,0.0,16.5,0,0.10,,---,0.10,VWS V14.00,2013-10-18 16:55:00,
2013-10-18 12:56:00,69.1,0.0,29.68,West,267,9.6,16.5,0,0.10,,---,0.10,VWS V14.00,2013-10-18 16:56:00,
2013-10-18 12:57:00,69.3,0.0,29.68,WNW,295,0.0,16.5,0,0.10,,---,0.10,VWS V14.00,2013-10-18 16:57:00,
2013-10-18 12:58:00,69.3,0.0,29.68,WNW,295,0.0,16.5,0,0.10,,---,0.10,VWS V14.00,2013-10-18 16:58:00,
2013-10-18 12:59:00,69.4,0.0,29.68,WNW,295,0.0,16.5,0,0.10,,---,0.10,VWS V14.00,2013-10-18 16:59:00,
2013-10-18 13:00:00,69.5,0.0,29.68,WNW,295,0.0,13.1,0,0.10,,---,0.10,VWS V14.00,2013-10-18 17:00:00,
2013-10-18 13:01:00,69.8,0.0,29.68,NW,311,9.1,13.1,0,0.10,,---,0.10,VWS V14.00,2013-10-18 17:01:00,
2013-10-18 13:02:00,69.1,0.0,29.68,West,260,15.3,15.3,0,0.10,,---,0.10,VWS V14.00,2013-10-18 17:02:00,
2013-10-18 13:03:00,69.0,0.0,29.69,WSW,249,7.0,13.1,0,0.10,,---,0.10,VWS V14.00,2013-10-18 17:03:00,
2013-10-18 13:04:00,69.2,0.0,29.68,WNW,297,7.9,13.1,0,0.10,,---,0.10,VWS V14.00,2013-10-18 17:04:00,
2013-10-18 13:05:00,68.9,0.0,29.68,West,267,7.8,24.3,0,0.10,,---,0.10,VWS V14.00,2013-10-18 17:05:00,
2013-10-18 13:06:00,68.4,0.0,29.69,WNW,295,14.4,24.3,0,0.10,,---,0.10,VWS V14.00,2013-10-18 17:06:00,
2013-10-18 13:07:00,68.5,0.0,29.68,West,266,11.2,24.3,0,0.10,,---,0.10,VWS V14.00,2013-10-18 17:07:00,
2013-10-18 13:08:00,68.6,0.0,29.69,WSW,242,8.9,24.3,0,0.10,,---,0.10,VWS V14.00,2013-10-18 17:08:00,
2013-10-18 13:09:00,68.7,0.0,29.68,West,271,8.9,24.3,0,0.10,,---,0.10,VWS V14.00,2013-10-18 17:09:00,
2013-10-18 13:10:00,68.7,0.0,29.68,West,274,7.1,21.9,0,0.10,,---,0.10,VWS V14.00,2013-10-18 17:10:00,
2013-10-18 13:11:00,69.4,0.0,29.68,WNW,298,4.2,21.9,0,0.10,,---,0.10,VWS V14.00,2013-10-18 17:11:00,
2013-10-18 13:12:00,69.5,0.0,29.69,West,270,5.1,21.9,0,0.10,,---,0.10,VWS V14.00,2013-10-18 17:12:00,
2013-10-18 13:13:00,69.4,0.0,29.69,WSW,248,5.0,21.9,0,0.10,,---,0.10,VWS V14.00,2013-10-18 17:13:00,
2013-10-18 13:14:00,69.4,0.0,29.69,WSW,239,7.8,21.9,0,0.10,,---,0.10,VWS V14.00,2013-10-18 17:14:00,
2013-10-18 13:15:00,69.8,0.0,29.69,WSW,257,3.4,15.3,0,0.10,,---,0.10,VWS V14.00,2013-10-18 17:15:00,
2013-10-18 13:16:00,69.7,0.0,29.68,West,273,5.0,15.3,0,0.10,,---,0.10,VWS V14.00,2013-10-18 17:16:00,
2013-10-18 13:17:00,69.7,0.0,29.69,WNW,294,11.2,15.3,0,0.10,,---,0.10,VWS V14.00,2013-10-18 17:17:00,
2013-10-18 13:18:00,69.9,0.0,29.69,SSW,210,2.2,15.3,0,0.10,,---,0.10,VWS V14.00,2013-10-18 17:18:00,
2013-10-18 13:19:00,69.8,0.0,29.69,West,274,8.5,15.3,0,0.10,,---,0.10,VWS V14.00,2013-10-18 17:19:00,
2013-10-18 13:20:00,69.8,0.0,29.69,NW,319,4.6,20.8,0,0.10,,---,0.10,VWS V14.00,2013-10-18 17:20:00,
2013-10-18 13:21:00,70.0,0.0,29.69,West,280,5.2,20.8,0,0.10,,---,0.10,VWS V14.00,2013-10-18 17:21:00,
2013-10-18 13:22:00,69.8,0.0,29.69,WNW,297,9.9,20.8,0,0.10,,---,0.10,VWS V14.00,2013-10-18 17:22:00,
2013-10-18 13:23:00,70.0,0.0,29.69,WNW,298,7.5,20.8,0,0.10,,---,0.10,VWS V14.00,2013-10-18 17:23:00,
2013-10-18 13:24:00,70.1,0.0,29.69,SW,236,5.1,20.8,0,0.10,,---,0.10,VWS V14.00,2013-10-18 17:24:00,
2013-10-18 13:25:00,70.4,0.0,29.69,SSW,194,4.7,16.0,0,0.10,,---,0.10,VWS V14.00,2013-10-18 17:25:00,
2013-10-18 13:26:00,70.1,0.0,29.69,WNW,294,7.3,16.0,0,0.10,,---,0.10,VWS V14.00,2013-10-18 17:26:00,
2013-10-18 13:27:00,70.3,0.0,29.69,SW,221,6.6,16.0,0,0.10,,---,0.10,VWS V14.00,2013-10-18 17:27:00,
2013-10-18 13:28:00,70.0,0.0,29.69,WNW,288,16.3,16.3,0,0.10,,---,0.10,VWS V14.00,2013-10-18 17:28:00,
2013-10-18 13:29:00,69.9,0.0,29.69,WNW,300,0.0,16.0,0,0.10,,---,0.10,VWS V14.00,2013-10-18 17:29:00,
2013-10-18 13:30:00,69.8,0.0,29.69,SSW,193,1.7,17.3,0,0.10,,---,0.10,VWS V14.00,2013-10-18 17:30:00,
2013-10-18 13:31:00,70.1,0.0,29.69,West,262,9.6,17.3,0,0.10,,---,0.10,VWS V14.00,2013-10-18 17:31:00,
2013-10-18 13:32:00,70.0,0.0,29.69,WNW,288,10.4,17.3,0,0.10,,---,0.10,VWS V14.00,2013-10-18 17:32:00,
2013-10-18 13:33:00,69.7,0.0,29.69,West,271,9.3,17.3,0,0.10,,---,0.10,VWS V14.00,2013-10-18 17:33:00,
2013-10-18 13:34:00,69.5,0.0,29.69,NNW,333,10.6,17.3,0,0.10,,---,0.10,VWS V14.00,2013-10-18 17:34:00,
2013-10-18 13:35:00,69.4,0.0,29.69,SSW,211,5.0,17.3,0,0.10,,---,0.10,VWS V14.00,2013-10-18 17:35:00,
2013-10-18 13:36:00,69.7,0.0,29.69,West,259,6.0,17.8,0,0.10,,---,0.10,VWS V14.00,2013-10-18 17:36:00,
2013-10-18 13:37:00,70.0,0.0,29.69,WSW,240,7.5,17.8,0,0.10,,---,0.10,VWS V14.00,2013-10-18 17:37:00,
2013-10-18 13:38:00,69.9,0.0,29.69,WSW,257,3.4,17.8,0,0.10,,---,0.10,VWS V14.00,2013-10-18 17:38:00,
2013-10-18 13:39:00,69.7,0.0,29.69,WSW,255,14.3,17.8,0,0.10,,---,0.10,VWS V14.00,2013-10-18 17:39:00,
2013-10-18 13:40:00,69.8,0.0,29.69,WNW,295,8.0,17.8,0,0.10,,---,0.10,VWS V14.00,2013-10-18 17:40:00,
2013-10-18 13:41:00,69.5,0.0,29.70,WSW,250,11.2,19.2,0,0.10,,---,0.10,VWS V14.00,2013-10-18 17:41:00,
2013-10-18 13:42:00,69.2,0.0,29.70,West,281,8.5,19.2,0,0.10,,---,0.10,VWS V14.00,2013-10-18 17:42:00,
2013-10-18 13:43:00,68.9,0.0,29.70,WNW,285,8.9,19.2,0,0.10,,---,0.10,VWS V14.00,2013-10-18 17:43:00,
2013-10-18 13:44:00,69.0,0.0,29.69,NW,305,14.5,19.2,0,0.10,,---,0.10,VWS V14.00,2013-10-18 17:44:00,
2013-10-18 13:45:00,68.7,0.0,29.69,NW,314,7.7,22.2,0,0.10,,---,0.10,VWS V14.00,2013-10-18 17:45:00,
2013-10-18 13:46:00,68.7,0.0,29.70,WNW,285,9.0,22.2,0,0.10,,---,0.10,VWS V14.00,2013-10-18 17:46:00,
2013-10-18 13:47:00,68.9,0.0,29.70,West,273,6.7,22.2,0,0.10,,---,0.10,VWS V14.00,2013-10-18 17:47:00,
2013-10-18 13:48:00,69.4,0.0,29.70,NW,315,9.5,22.2,0,0.10,,---,0.10,VWS V14.00,2013-10-18 17:48:00,
2013-10-18 13:49:00,69.5,0.0,29.70,NW,312,12.2,22.2,0,0.10,,---,0.10,VWS V14.00,2013-10-18 17:49:00,
2013-10-18 13:50:00,69.1,0.0,29.69,WSW,240,7.1,20.1,0,0.10,,---,0.10,VWS V14.00,2013-10-18 17:50:00,
2013-10-18 13:51:00,69.4,0.0,29.70,SW,226,8.8,20.1,0,0.10,,---,0.10,VWS V14.00,2013-10-18 17:51:00,
2013-10-18 13:52:00,69.4,0.0,29.70,WSW,253,12.7,20.1,0,0.10,,---,0.10,VWS V14.00,2013-10-18 17:52:00,
2013-10-18 13:53:00,69.7,0.0,29.70,South,191,5.7,20.1,0,0.10,,---,0.10,VWS V14.00,2013-10-18 17:53:00,
2013-10-18 13:54:00,69.5,0.0,29.70,West,263,11.6,20.1,0,0.10,,---,0.10,VWS V14.00,2013-10-18 17:54:00,
2013-10-18 13:55:00,69.4,0.0,29.70,West,260,11.1,22.6,0,0.10,,---,0.10,VWS V14.00,2013-10-18 17:55:00,
2013-10-18 13:56:00,69.4,0.0,29.70,SW,222,13.2,22.6,0,0.10,,---,0.10,VWS V14.00,2013-10-18 17:56:00,
2013-10-18 13:57:00,69.6,0.0,29.70,WSW,249,8.8,22.6,0,0.10,,---,0.10,VWS V14.00,2013-10-18 17:57:00,
2013-10-18 13:58:00,69.9,0.0,29.70,WSW,250,6.0,22.6,0,0.10,,---,0.10,VWS V14.00,2013-10-18 17:58:00,
2013-10-18 13:59:00,69.9,0.0,29.70,West,281,10.7,22.6,0,0.10,,---,0.10,VWS V14.00,2013-10-18 17:59:00,
2013-10-18 14:00:00,69.5,0.0,29.70,West,277,3.5,21.1,0,0.10,,---,0.10,VWS V14.00,2013-10-18 18:00:00,
2013-10-18 14:01:00,69.8,0.0,29.70,WSW,238,13.0,21.1,0,0.10,,---,0.10,VWS V14.00,2013-10-18 18:01:00,
2013-10-18 14:02:00,69.8,0.0,29.70,WSW,257,9.0,21.1,0,0.10,,---,0.10,VWS V14.00,2013-10-18 18:02:00,
2013-10-18 14:03:00,69.4,0.0,29.70,WSW,250,8.0,21.1,0,0.10,,---,0.10,VWS V14.00,2013-10-18 18:03:00,
2013-10-18 14:04:00,69.5,0.0,29.70,WSW,250,0.0,21.1,0,0.10,,---,0.10,VWS V14.00,2013-10-18 18:04:00,
2013-10-18 14:05:00,69.9,0.0,29.70,WSW,250,0.0,14.5,0,0.10,,---,0.10,VWS V14.00,2013-10-18 18:05:00,
2013-10-18 14:06:00,69.4,0.0,29.70,WSW,250,0.0,14.5,0,0.10,,---,0.10,VWS V14.00,2013-10-18 18:06:00,
2013-10-18 14:07:00,69.2,0.0,29.70,WSW,250,0.0,14.5,0,0.10,,---,0.10,VWS V14.00,2013-10-18 18:07:00,
2013-10-18 14:08:00,69.0,0.0,29.70,WNW,287,11.1,14.5,0,0.10,,---,0.10,VWS V14.00,2013-10-18 18:08:00,
2013-10-18 14:09:00,69.1,0.0,29.70,West,280,8.8,14.5,0,0.10,,---,0.10,VWS V14.00,2013-10-18 18:09:00,
2013-10-18 14:10:00,69.4,0.0,29.70,SSW,198,8.4,13.2,0,0.10,,---,0.10,VWS V14.00,2013-10-18 18:10:00,
2013-10-18 14:11:00,69.5,0.0,29.70,WSW,240,8.3,13.2,0,0.10,,---,0.10,VWS V14.00,2013-10-18 18:11:00,
2013-10-18 14:12:00,69.4,0.0,29.70,West,267,5.2,13.2,0,0.10,,---,0.10,VWS V14.00,2013-10-18 18:12:00,
2013-10-18 14:13:00,69.2,0.0,29.70,WNW,285,8.5,13.2,0,0.10,,---,0.10,VWS V14.00,2013-10-18 18:13:00,
2013-10-18 14:14:00,69.2,0.0,29.70,SW,229,7.5,13.2,0,0.10,,---,0.10,VWS V14.00,2013-10-18 18:14:00,
2013-10-18 14:15:00,68.8,0.0,29.70,West,270,4.3,14.4,0,0.10,,---,0.10,VWS V14.00,2013-10-18 18:15:00,
2013-10-18 14:16:00,68.8,0.0,29.70,WSW,243,8.1,14.4,0,0.10,,---,0.10,VWS V14.00,2013-10-18 18:16:00,
2013-10-18 14:17:00,69.0,0.0,29.70,North,359,0.0,14.4,0,0.10,,---,0.10,VWS V14.00,2013-10-18 18:17:00,
2013-10-18 14:18:00,69.3,0.0,29.70,West,274,9.2,14.4,0,0.10,,---,0.10,VWS V14.00,2013-10-18 18:18:00,
2013-10-18 14:19:00,68.9,0.0,29.70,NW,315,6.2,14.4,0,0.10,,---,0.10,VWS V14.00,2013-10-18 18:19:00,
2013-10-18 14:20:00,69.0,0.0,29.70,West,274,0.0,19.8,0,0.10,,---,0.10,VWS V14.00,2013-10-18 18:20:00,
2013-10-18 14:21:00,68.5,0.0,29.70,West,274,0.0,19.8,0,0.10,,---,0.10,VWS V14.00,2013-10-18 18:21:00,
2013-10-18 14:22:00,68.9,0.0,29.70,West,274,0.0,19.8,0,0.10,,---,0.10,VWS V14.00,2013-10-18 18:22:00,
2013-10-18 14:23:00,68.7,0.0,29.70,West,274,0.0,19.8,0,0.10,,---,0.10,VWS V14.00,2013-10-18 18:23:00,
2013-10-18 14:24:00,68.7,0.0,29.70,West,274,0.0,19.8,0,0.10,,---,0.10,VWS V14.00,2013-10-18 18:24:00,
2013-10-18 14:25:00,68.5,0.0,29.70,WSW,243,0.0,10.0,0,0.10,,---,0.10,VWS V14.00,2013-10-18 18:25:00,
2013-10-18 14:26:00,68.5,0.0,29.70,SW,224,6.0,10.0,0,0.10,,---,0.10,VWS V14.00,2013-10-18 18:26:00,
2013-10-18 14:27:00,68.6,0.0,29.70,WNW,302,5.2,10.0,0,0.10,,---,0.10,VWS V14.00,2013-10-18 18:27:00,
2013-10-18 14:28:00,68.4,0.0,29.70,WSW,250,5.8,10.0,0,0.10,,---,0.10,VWS V14.00,2013-10-18 18:28:00,
2013-10-18 14:29:00,68.4,0.0,29.70,North,359,2.7,10.0,0,0.10,,---,0.10,VWS V14.00,2013-10-18 18:29:00,
2013-10-18 14:30:00,68.5,0.0,29.70,SSW,207,7.6,13.2,0,0.10,,---,0.10,VWS V14.00,2013-10-18 18:30:00,
2013-10-18 14:31:00,68.5,0.0,29.70,WSW,246,11.6,13.2,0,0.10,,---,0.10,VWS V14.00,2013-10-18 18:31:00,
2013-10-18 14:32:00,68.3,0.0,29.70,WSW,245,5.2,13.2,0,0.10,,---,0.10,VWS V14.00,2013-10-18 18:32:00,
2013-10-18 14:33:00,68.3,0.0,29.70,NW,315,5.4,13.2,0,0.10,,---,0.10,VWS V14.00,2013-10-18 18:33:00,
2013-10-18 14:34:00,68.4,0.0,29.70,North,359,7.6,13.2,0,0.10,,---,0.10,VWS V14.00,2013-10-18 18:34:00,
2013-10-18 14:35:00,68.2,0.0,29.70,West,267,7.6,17.8,0,0.10,,---,0.10,VWS V14.00,2013-10-18 18:35:00,
2013-10-18 14:36:00,68.3,0.0,29.71,WNW,292,11.8,17.8,0,0.10,,---,0.10,VWS V14.00,2013-10-18 18:36:00,
2013-10-18 14:37:00,68.3,0.0,29.71,West,280,6.5,17.8,0,0.10,,---,0.10,VWS V14.00,2013-10-18 18:37:00,
2013-10-18 14:38:00,68.1,0.0,29.71,WSW,250,8.1,17.8,0,0.10,,---,0.10,VWS V14.00,2013-10-18 18:38:00,
2013-10-18 14:39:00,68.0,0.0,29.71,West,260,8.6,17.8,0,0.10,,---,0.10,VWS V14.00,2013-10-18 18:39:00,
2013-10-18 14:40:00,67.9,0.0,29.71,West,262,0.0,17.8,0,0.10,,---,0.10,VWS V14.00,2013-10-18 18:40:00,
2013-10-18 14:41:00,68.0,0.0,29.71,SSW,211,5.5,16.3,0,0.10,,---,0.10,VWS V14.00,2013-10-18 18:41:00,
2013-10-18 14:42:00,68.1,0.0,29.71,WSW,255,4.7,16.3,0,0.10,,---,0.10,VWS V14.00,2013-10-18 18:42:00,
2013-10-18 14:43:00,68.0,0.0,29.71,WSW,239,5.5,16.3,0,0.10,,---,0.10,VWS V14.00,2013-10-18 18:43:00,
2013-10-18 14:44:00,68.0,0.0,29.70,WSW,255,11.7,16.3,0,0.10,,---,0.10,VWS V14.00,2013-10-18 18:44:00,
2013-10-18 14:45:00,67.9,0.0,29.71,West,266,4.6,18.7,0,0.10,,---,0.10,VWS V14.00,2013-10-18 18:45:00,
2013-10-18 14:46:00,68.1,0.0,29.71,North,359,8.9,18.7,0,0.10,,---,0.10,VWS V14.00,2013-10-18 18:46:00,
2013-10-18 14:47:00,68.2,0.0,29.71,West,266,5.8,18.7,0,0.10,,---,0.10,VWS V14.00,2013-10-18 18:47:00,
2013-10-18 14:48:00,68.0,0.0,29.71,WNW,283,4.9,18.7,0,0.10,,---,0.10,VWS V14.00,2013-10-18 18:48:00,
2013-10-18 14:49:00,68.0,0.0,29.71,SW,224,1.7,18.7,0,0.10,,---,0.10,VWS V14.00,2013-10-18 18:49:00,
2013-10-18 14:50:00,67.7,0.0,29.71,SSE,152,0.0,16.0,0,0.10,,---,0.10,VWS V14.00,2013-10-18 18:50:00,
2013-10-18 14:51:00,67.9,0.0,29.71,West,271,6.7,16.0,0,0.10,,---,0.10,VWS V14.00,2013-10-18 18:51:00,
2013-10-18 14:52:00,68.0,0.0,29.71,West,267,0.0,16.0,0,0.10,,---,0.10,VWS V14.00,2013-10-18 18:52:00,
2013-10-18 14:53:00,68.0,0.0,29.71,WSW,245,9.1,16.0,0,0.10,,---,0.10,VWS V14.00,2013-10-18 18:53:00,
2013-10-18 14:54:00,67.9,0.0,29.71,West,281,10.8,16.0,0,0.10,,---,0.10,VWS V14.00,2013-10-18 18:54:00,
2013-10-18 14:55:00,67.5,0.0,29.71,NW,311,8.8,19.8,0,0.10,,---,0.10,VWS V14.00,2013-10-18 18:55:00,
2013-10-18 14:56:00,67.2,0.0,29.71,SW,229,6.8,19.8,0,0.10,,---,0.10,VWS V14.00,2013-10-18 18:56:00,
2013-10-18 14:57:00,67.4,0.0,29.71,West,262,8.0,19.8,0,0.10,,---,0.10,VWS V14.00,2013-10-18 18:57:00,
2013-10-18 14:58:00,67.5,0.0,29.71,SW,235,6.7,19.8,0,0.10,,---,0.10,VWS V14.00,2013-10-18 18:58:00,
2013-10-18 14:59:00,67.7,0.0,29.71,SW,225,12.1,19.8,0,0.10,,---,0.10,VWS V14.00,2013-10-18 18:59:00,
2013-10-18 15:00:00,67.8,0.0,29.71,SW,231,7.1,18.8,0,0.10,,---,0.10,VWS V14.00,2013-10-18 19:00:00,
2013-10-18 15:01:00,67.8,0.0,29.71,WSW,255,5.8,18.8,0,0.10,,---,0.10,VWS V14.00,2013-10-18 19:01:00,
2013-10-18 15:02:00,67.8,0.0,29.71,North,359,7.4,18.8,0,0.10,,---,0.10,VWS V14.00,2013-10-18 19:02:00,
2013-10-18 15:03:00,67.8,0.0,29.71,SW,231,11.0,18.8,0,0.10,,---,0.10,VWS V14.00,2013-10-18 19:03:00,
2013-10-18 15:04:00,66.7,0.0,29.71,SSW,204,6.5,18.8,0,0.10,,---,0.10,VWS V14.00,2013-10-18 19:04:00,
2013-10-18 15:05:00,66.9,0.0,29.71,West,273,8.2,14.7,0,0.10,,---,0.10,VWS V14.00,2013-10-18 19:05:00,
2013-10-18 15:06:00,67.0,0.0,29.71,West,269,8.1,14.7,0,0.10,,---,0.10,VWS V14.00,2013-10-18 19:06:00,
2013-10-18 15:07:00,67.1,0.0,29.72,SW,218,10.2,14.7,0,0.10,,---,0.10,VWS V14.00,2013-10-18 19:07:00,
2013-10-18 15:08:00,67.2,0.0,29.71,WSW,255,6.4,14.7,0,0.10,,---,0.10,VWS V14.00,2013-10-18 19:08:00,
2013-10-18 15:09:00,67.3,0.0,29.71,SW,225,10.7,14.7,0,0.10,,---,0.10,VWS V14.00,2013-10-18 19:09:00,
2013-10-18 15:10:00,67.1,0.0,29.71,WSW,252,6.2,17.0,0,0.10,,---,0.10,VWS V14.00,2013-10-18 19:10:00,
2013-10-18 15:11:00,67.1,0.0,29.72,West,269,6.6,17.0,0,0.10,,---,0.10,VWS V14.00,2013-10-18 19:11:00,
2013-10-18 15:12:00,67.2,0.0,29.72,SW,224,9.6,17.0,0,0.10,,---,0.10,VWS V14.00,2013-10-18 19:12:00,
2013-10-18 15:13:00,67.2,0.0,29.72,WSW,245,4.3,17.0,0,0.10,,---,0.10,VWS V14.00,2013-10-18 19:13:00,
2013-10-18 15:14:00,67.4,0.0,29.72,South,191,5.3,17.0,0,0.10,,---,0.10,VWS V14.00,2013-10-18 19:14:00,
2013-10-18 15:15:00,67.0,0.0,29.72,West,280,0.0,15.2,0,0.10,,---,0.10,VWS V14.00,2013-10-18 19:15:00,
2013-10-18 15:16:00,66.9,0.0,29.72,SW,222,0.0,15.2,0,0.10,,---,0.10,VWS V14.00,2013-10-18 19:16:00,
2013-10-18 15:17:00,66.9,0.0,29.72,West,262,8.1,15.2,0,0.10,,---,0.10,VWS V14.00,2013-10-18 19:17:00,
2013-10-18 15:18:00,66.9,0.0,29.72,WSW,242,5.7,15.2,0,0.10,,---,0.10,VWS V14.00,2013-10-18 19:18:00,
2013-10-18 15:19:00,66.5,0.0,29.72,SSW,211,7.8,15.2,0,0.10,,---,0.10,VWS V14.00,2013-10-18 19:19:00,
2013-10-18 15:20:00,66.3,0.0,29.72,WSW,250,13.0,14.3,0,0.10,,---,0.10,VWS V14.00,2013-10-18 19:20:00,
2013-10-18 15:21:00,66.2,0.0,29.72,WSW,257,13.7,14.3,0,0.10,,---,0.10,VWS V14.00,2013-10-18 19:21:00,
2013-10-18 15:22:00,66.1,0.0,29.72,North,352,6.3,14.3,0,0.10,,---,0.10,VWS V14.00,2013-10-18 19:22:00,
2013-10-18 15:23:00,65.9,0.0,29.72,North,352,0.0,14.3,0,0.10,,---,0.10,VWS V14.00,2013-10-18 19:23:00,
2013-10-18 15:24:00,65.9,0.0,29.72,North,352,0.0,14.3,0,0.10,,---,0.10,VWS V14.00,2013-10-18 19:24:00,
2013-10-18 15:25:00,65.9,0.0,29.72,North,352,0.0,17.0,0,0.10,,---,0.10,VWS V14.00,2013-10-18 19:25:00,
2013-10-18 15:26:00,66.0,0.0,29.72,North,352,0.0,17.0,0,0.10,,---,0.10,VWS V14.00,2013-10-18 19:26:00,
2013-10-18 15:27:00,66.0,0.0,29.72,North,352,0.0,17.0,0,0.10,,---,0.10,VWS V14.00,2013-10-18 19:27:00,
2013-10-18 15:28:00,66.0,0.0,29.72,North,352,0.0,17.0,0,0.10,,---,0.10,VWS V14.00,2013-10-18 19:28:00,
2013-10-18 15:29:00,65.8,0.0,29.72,North,352,0.0,17.0,0,0.10,,---,0.10,VWS V14.00,2013-10-18 19:29:00,
2013-10-18 15:30:00,65.9,0.0,29.72,West,276,5.0,15.9,0,0.10,,---,0.10,VWS V14.00,2013-10-18 19:30:00,
2013-10-18 15:31:00,65.9,0.0,29.72,WSW,250,3.5,15.9,0,0.10,,---,0.10,VWS V14.00,2013-10-18 19:31:00,
2013-10-18 15:32:00,65.9,0.0,29.72,WNW,297,7.0,15.9,0,0.10,,---,0.10,VWS V14.00,2013-10-18 19:32:00,
2013-10-18 15:33:00,65.9,0.0,29.72,SSW,197,5.5,15.9,0,0.10,,---,0.10,VWS V14.00,2013-10-18 19:33:00,
2013-10-18 15:34:00,65.9,0.0,29.72,WSW,256,8.6,15.9,0,0.10,,---,0.10,VWS V14.00,2013-10-18 19:34:00,
2013-10-18 15:35:00,65.8,0.0,29.72,WNW,298,5.4,14.4,0,0.10,,---,0.10,VWS V14.00,2013-10-18 19:35:00,
2013-10-18 15:36:00,65.6,0.0,29.72,SW,219,9.9,14.4,0,0.10,,---,0.10,VWS V14.00,2013-10-18 19:36:00,
2013-10-18 15:37:00,65.6,0.0,29.72,West,280,11.5,14.4,0,0.10,,---,0.10,VWS V14.00,2013-10-18 19:37:00,
2013-10-18 15:38:00,65.6,0.0,29.72,SW,215,3.3,14.4,0,0.10,,---,0.10,VWS V14.00,2013-10-18 19:38:00,
2013-10-18 15:39:00,65.6,0.0,29.72,West,271,0.0,14.4,0,0.10,,---,0.10,VWS V14.00,2013-10-18 19:39:00,
2013-10-18 15:40:00,65.7,0.0,29.72,WNW,290,6.8,18.1,0,0.10,,---,0.10,VWS V14.00,2013-10-18 19:40:00,
2013-10-18 15:41:00,65.6,0.0,29.73,WSW,252,3.5,18.1,0,0.10,,---,0.10,VWS V14.00,2013-10-18 19:41:00,
2013-10-18 15:42:00,65.7,0.0,29.73,WSW,238,3.2,18.1,0,0.10,,---,0.10,VWS V14.00,2013-10-18 19:42:00,
2013-10-18 15:43:00,65.8,0.0,29.73,NW,307,6.8,18.1,0,0.10,,---,0.10,VWS V14.00,2013-10-18 19:43:00,
2013-10-18 15:44:00,65.7,0.0,29.73,West,260,5.5,18.1,0,0.10,,---,0.10,VWS V14.00,2013-10-18 19:44:00,
2013-10-18 15:45:00,65.7,0.0,29.73,West,274,0.0,18.1,0,0.10,,---,0.10,VWS V14.00,2013-10-18 19:45:00,
2013-10-18 15:46:00,65.7,0.0,29.73,West,264,11.0,12.9,0,0.10,,---,0.10,VWS V14.00,2013-10-18 19:46:00,
2013-10-18 15:47:00,65.7,0.0,29.73,WSW,250,6.4,12.9,0,0.10,,---,0.10,VWS V14.00,2013-10-18 19:47:00,
2013-10-18 15:48:00,65.7,0.0,29.73,WSW,246,3.5,12.9,0,0.10,,---,0.10,VWS V14.00,2013-10-18 19:48:00,
2013-10-18 15:49:00,65.8,0.0,29.73,West,280,2.1,12.9,0,0.10,,---,0.10,VWS V14.00,2013-10-18 19:49:00,
2013-10-18 15:50:00,65.8,0.0,29.73,SSW,200,3.4,15.8,0,0.10,,---,0.10,VWS V14.00,2013-10-18 19:50:00,
2013-10-18 15:51:00,65.7,0.0,29.73,SW,218,5.2,15.8,0,0.10,,---,0.10,VWS V14.00,2013-10-18 19:51:00,
2013-10-18 15:52:00,65.7,0.0,29.73,West,259,2.5,15.8,0,0.10,,---,0.10,VWS V14.00,2013-10-18 19:52:00,
2013-10-18 15:53:00,65.5,0.0,29.73,SW,231,4.3,15.8,0,0.10,,---,0.10,VWS V14.00,2013-10-18 19:53:00,
2013-10-18 15:54:00,65.4,0.0,29.73,WNW,291,5.2,15.8,0,0.10,,---,0.10,VWS V14.00,2013-10-18 19:54:00,
2013-10-18 15:55:00,65.4,0.0,29.73,WNW,284,7.5,10.8,0,0.10,,---,0.10,VWS V14.00,2013-10-18 19:55:00,
2013-10-18 15:56:00,65.3,0.0,29.73,SW,215,6.5,10.8,0,0.10,,---,0.10,VWS V14.00,2013-10-18 19:56:00,
2013-10-18 15:57:00,65.1,0.0,29.73,NW,305,4.3,10.8,0,0.10,,---,0.10,VWS V14.00,2013-10-18 19:57:00,
2013-10-18 15:58:00,64.9,0.0,29.73,NW,314,7.1,10.8,0,0.10,,---,0.10,VWS V14.00,2013-10-18 19:58:00,
2013-10-18 15:59:00,64.8,0.0,29.73,West,273,7.8,10.8,0,0.10,,---,0.10,VWS V14.00,2013-10-18 19:59:00,
2013-10-18 16:00:00,64.8,0.0,29.73,West,274,0.0,16.7,0,0.10,,---,0.10,VWS V14.00,2013-10-18 20:00:00,
2013-10-18 16:01:00,64.7,0.0,29.73,West,274,0.0,16.7,0,0.10,,---,0.10,VWS V14.00,2013-10-18 20:01:00,
2013-10-18 16:02:00,64.7,0.0,29.73,West,274,0.0,16.7,0,0.10,,---,0.10,VWS V14.00,2013-10-18 20:02:00,
2013-10-18 16:03:00,64.7,0.0,29.73,West,274,0.0,16.7,0,0.10,,---,0.10,VWS V14.00,2013-10-18 20:03:00,
2013-10-18 16:04:00,64.7,0.0,29.74,West,274,0.0,16.7,0,0.10,,---,0.10,VWS V14.00,2013-10-18 20:04:00,
2013-10-18 16:05:00,64.6,0.0,29.74,West,274,0.0,0.0,0,0.10,,---,0.10,VWS V14.00,2013-10-18 20:05:00,
2013-10-18 16:06:00,64.4,0.0,29.74,West,274,0.0,0.0,0,0.10,,---,0.10,VWS V14.00,2013-10-18 20:06:00,
2013-10-18 16:07:00,64.4,0.0,29.74,West,274,0.0,0.0,0,0.10,,---,0.10,VWS V14.00,2013-10-18 20:07:00,
2013-10-18 16:08:00,64.3,0.0,29.73,WNW,283,4.4,0.0,0,0.10,,---,0.10,VWS V14.00,2013-10-18 20:08:00,
2013-10-18 16:09:00,64.2,0.0,29.73,WNW,288,13.5,0.0,0,0.10,,---,0.10,VWS V14.00,2013-10-18 20:09:00,
2013-10-18 16:10:00,64.1,0.0,29.73,WNW,288,6.9,19.6,0,0.10,,---,0.10,VWS V14.00,2013-10-18 20:10:00,
2013-10-18 16:11:00,64.1,0.0,29.74,WNW,294,6.1,19.6,0,0.10,,---,0.10,VWS V14.00,2013-10-18 20:11:00,
2013-10-18 16:12:00,64.1,0.0,29.74,WNW,300,9.8,19.6,0,0.10,,---,0.10,VWS V14.00,2013-10-18 20:12:00,
2013-10-18 16:13:00,64.0,0.0,29.74,WNW,290,7.6,19.6,0,0.10,,---,0.10,VWS V14.00,2013-10-18 20:13:00,
2013-10-18 16:14:00,64.0,0.0,29.74,West,267,9.5,19.6,0,0.10,,---,0.10,VWS V14.00,2013-10-18 20:14:00,
2013-10-18 16:15:00,64.0,0.0,29.74,WNW,290,16.5,16.5,0,0.10,,---,0.10,VWS V14.00,2013-10-18 20:15:00,
2013-10-18 16:16:00,63.9,0.0,29.74,West,278,5.8,12.5,0,0.10,,---,0.10,VWS V14.00,2013-10-18 20:16:00,
2013-10-18 16:17:00,63.9,0.0,29.74,NW,325,3.4,12.5,0,0.10,,---,0.10,VWS V14.00,2013-10-18 20:17:00,
2013-10-18 16:18:00,63.8,0.0,29.74,NW,304,6.5,12.5,0,0.10,,---,0.10,VWS V14.00,2013-10-18 20:18:00,
2013-10-18 16:19:00,63.8,0.0,29.74,WNW,297,10.1,12.5,0,0.10,,---,0.10,VWS V14.00,2013-10-18 20:19:00,
2013-10-18 16:20:00,63.7,0.0,29.74,NW,305,7.9,17.0,0,0.10,,---,0.10,VWS V14.00,2013-10-18 20:20:00,
2013-10-18 16:21:00,63.7,0.0,29.74,NW,311,7.0,17.0,0,0.10,,---,0.10,VWS V14.00,2013-10-18 20:21:00,
2013-10-18 16:22:00,63.7,0.0,29.74,WSW,248,5.3,17.0,0,0.10,,---,0.10,VWS V14.00,2013-10-18 20:22:00,
2013-10-18 16:23:00,63.7,0.0,29.74,NW,312,4.4,17.0,0,0.10,,---,0.10,VWS V14.00,2013-10-18 20:23:00,
2013-10-18 16:24:00,63.7,0.0,29.74,West,280,9.3,17.0,0,0.10,,---,0.10,VWS V14.00,2013-10-18 20:24:00,
2013-10-18 16:25:00,63.6,0.0,29.74,NW,307,6.6,15.5,0,0.10,,---,0.10,VWS V14.00,2013-10-18 20:25:00,
2013-10-18 16:26:00,63.5,0.0,29.74,WNW,287,5.3,15.5,0,0.10,,---,0.10,VWS V14.00,2013-10-18 20:26:00,
2013-10-18 16:27:00,63.3,0.0,29.74,WSW,250,5.7,15.5,0,0.10,,---,0.10,VWS V14.00,2013-10-18 20:27:00,
2013-10-18 16:28:00,63.3,0.0,29.74,SW,232,6.6,15.5,0,0.10,,---,0.10,VWS V14.00,2013-10-18 20:28:00,
2013-10-18 16:29:00,63.2,0.0,29.74,WNW,290,0.0,15.5,0,0.10,,---,0.10,VWS V14.00,2013-10-18 20:29:00,
2013-10-18 16:30:00,63.1,0.0,29.74,WNW,298,4.3,11.5,0,0.10,,---,0.10,VWS V14.00,2013-10-18 20:30:00,
2013-10-18 16:31:00,63.0,0.0,29.74,West,264,5.2,11.5,0,0.10,,---,0.10,VWS V14.00,2013-10-18 20:31:00,
2013-10-18 16:32:00,63.0,0.0,29.74,WSW,246,3.4,11.5,0,0.10,,---,0.10,VWS V14.00,2013-10-18 20:32:00,
2013-10-18 16:33:00,62.9,0.0,29.74,WNW,283,3.5,11.5,0,0.10,,---,0.10,VWS V14.00,2013-10-18 20:33:00,
2013-10-18 16:34:00,62.8,0.0,29.75,West,259,3.3,11.5,0,0.10,,---,0.10,VWS V14.00,2013-10-18 20:34:00,
2013-10-18 16:35:00,62.7,0.0,29.75,WSW,248,3.1,10.3,0,0.10,,---,0.10,VWS V14.00,2013-10-18 20:35:00,
2013-10-18 16:36:00,62.5,0.0,29.75,SW,233,3.4,10.3,0,0.10,,---,0.10,VWS V14.00,2013-10-18 20:36:00,
2013-10-18 16:37:00,62.5,0.0,29.75,WSW,240,3.4,10.3,0,0.10,,---,0.10,VWS V14.00,2013-10-18 20:37:00,
2013-10-18 16:38:00,62.3,0.0,29.75,West,266,0.0,10.3,0,0.10,,---,0.10,VWS V14.00,2013-10-18 20:38:00,
2013-10-18 16:39:00,62.3,0.0,29.75,SSW,211,3.4,10.3,0,0.10,,---,0.10,VWS V14.00,2013-10-18 20:39:00,
2013-10-18 16:40:00,62.2,0.0,29.75,WSW,248,5.4,8.5,0,0.10,,---,0.10,VWS V14.00,2013-10-18 20:40:00,
2013-10-18 16:41:00,62.1,0.0,29.75,NW,319,5.1,8.5,0,0.10,,---,0.10,VWS V14.00,2013-10-18 20:41:00,
2013-10-18 16:42:00,62.1,0.0,29.75,WSW,245,3.4,8.5,0,0.10,,---,0.10,VWS V14.00,2013-10-18 20:42:00,
2013-10-18 16:43:00,62.1,0.0,29.75,WNW,292,3.5,8.5,0,0.10,,---,0.10,VWS V14.00,2013-10-18 20:43:00,
2013-10-18 16:44:00,62.0,0.0,29.75,WSW,250,3.4,8.5,0,0.10,,---,0.10,VWS V14.00,2013-10-18 20:44:00,
2013-10-18 16:45:00,62.0,0.0,29.75,WSW,239,5.7,8.5,0,0.10,,---,0.10,VWS V14.00,2013-10-18 20:45:00,
2013-10-18 16:46:00,62.0,0.0,29.75,West,278,3.4,9.0,0,0.10,,---,0.10,VWS V14.00,2013-10-18 20:46:00,
2013-10-18 16:47:00,61.9,0.0,29.75,WSW,242,6.2,9.0,0,0.10,,---,0.10,VWS V14.00,2013-10-18 20:47:00,
2013-10-18 16:48:00,62.0,0.0,29.75,WNW,298,8.8,9.0,0,0.10,,---,0.10,VWS V14.00,2013-10-18 20:48:00,
2013-10-18 16:49:00,62.1,0.0,29.75,West,263,4.5,9.0,0,0.10,,---,0.10,VWS V14.00,2013-10-18 20:49:00,
2013-10-18 16:50:00,62.1,0.0,29.75,West,267,7.0,9.0,0,0.10,,---,0.10,VWS V14.00,2013-10-18 20:50:00,
2013-10-18 16:51:00,62.1,0.0,29.75,SW,217,5.7,12.5,0,0.10,,---,0.10,VWS V14.00,2013-10-18 20:51:00,
2013-10-18 16:52:00,62.0,0.0,29.76,WNW,300,3.4,12.5,0,0.10,,---,0.10,VWS V14.00,2013-10-18 20:52:00,
2013-10-18 16:53:00,62.0,0.0,29.76,SW,233,4.9,12.5,0,0.10,,---,0.10,VWS V14.00,2013-10-18 20:53:00,
2013-10-18 16:54:00,61.9,0.0,29.76,WSW,242,6.8,12.5,0,0.10,,---,0.10,VWS V14.00,2013-10-18 20:54:00,
2013-10-18 16:55:00,61.8,0.0,29.76,WSW,246,5.2,9.9,0,0.10,,---,0.10,VWS V14.00,2013-10-18 20:55:00,
2013-10-18 16:56:00,61.8,0.0,29.76,SW,225,3.3,9.9,0,0.10,,---,0.10,VWS V14.00,2013-10-18 20:56:00,
2013-10-18 16:57:00,61.8,0.0,29.76,WSW,256,4.3,9.9,0,0.10,,---,0.10,VWS V14.00,2013-10-18 20:57:00,
2013-10-18 16:58:00,61.7,0.0,29.76,South,188,4.7,9.9,0,0.10,,---,0.10,VWS V14.00,2013-10-18 20:58:00,
2013-10-18 16:59:00,61.7,0.0,29.76,SW,236,8.5,9.9,0,0.10,,---,0.10,VWS V14.00,2013-10-18 20:59:00,
2013-10-18 17:00:00,61.8,0.0,29.76,West,269,5.7,12.2,0,0.10,,---,0.10,VWS V14.00,2013-10-18 21:00:00,
2013-10-18 17:01:00,61.7,0.0,29.76,NW,307,5.2,12.2,0,0.10,,---,0.10,VWS V14.00,2013-10-18 21:01:00,
2013-10-18 17:02:00,61.7,0.0,29.76,WSW,243,8.0,12.2,0,0.10,,---,0.10,VWS V14.00,2013-10-18 21:02:00,
2013-10-18 17:03:00,61.7,0.0,29.76,SW,235,7.0,12.2,0,0.10,,---,0.10,VWS V14.00,2013-10-18 21:03:00,
2013-10-18 17:04:00,61.7,0.0,29.76,West,276,0.0,12.2,0,0.10,,---,0.10,VWS V14.00,2013-10-18 21:04:00,
2013-10-18 17:05:00,61.7,0.0,29.76,WSW,246,3.4,11.7,0,0.10,,---,0.10,VWS V14.00,2013-10-18 21:05:00,
2013-10-18 17:06:00,61.6,0.0,29.76,WSW,246,8.8,11.7,0,0.10,,---,0.10,VWS V14.00,2013-10-18 21:06:00,
2013-10-18 17:07:00,61.7,0.0,29.76,WNW,298,6.0,11.7,0,0.10,,---,0.10,VWS V14.00,2013-10-18 21:07:00,
2013-10-18 17:08:00,61.7,0.0,29.76,WSW,240,4.6,11.7,0,0.10,,---,0.10,VWS V14.00,2013-10-18 21:08:00,
2013-10-18 17:09:00,61.6,0.0,29.76,SSE,159,2.6,11.7,0,0.10,,---,0.10,VWS V14.00,2013-10-18 21:09:00,
2013-10-18 17:10:00,61.5,0.0,29.76,WSW,243,7.3,12.9,0,0.10,,---,0.10,VWS V14.00,2013-10-18 21:10:00,
2013-10-18 17:11:00,61.4,0.0,29.76,SW,218,4.7,12.9,0,0.10,,---,0.10,VWS V14.00,2013-10-18 21:11:00,
2013-10-18 17:12:00,61.5,0.0,29.76,SW,236,5.7,12.9,0,0.10,,---,0.10,VWS V14.00,2013-10-18 21:12:00,
2013-10-18 17:13:00,61.4,0.0,29.76,WSW,245,5.7,12.9,0,0.10,,---,0.10,VWS V14.00,2013-10-18 21:13:00,
2013-10-18 17:14:00,61.4,0.0,29.76,WNW,292,4.7,12.9,0,0.10,,---,0.10,VWS V14.00,2013-10-18 21:14:00,
2013-10-18 17:15:00,61.4,0.0,29.76,WSW,243,6.4,11.5,0,0.10,,---,0.10,VWS V14.00,2013-10-18 21:15:00,
2013-10-18 17:16:00,61.3,0.0,29.76,SW,221,4.3,11.5,0,0.10,,---,0.10,VWS V14.00,2013-10-18 21:16:00,
2013-10-18 17:17:00,61.2,0.0,29.76,West,278,5.0,11.5,0,0.10,,---,0.10,VWS V14.00,2013-10-18 21:17:00,
2013-10-18 17:18:00,61.2,0.0,29.76,WNW,288,8.3,11.5,0,0.10,,---,0.10,VWS V14.00,2013-10-18 21:18:00,
2013-10-18 17:19:00,61.1,0.0,29.76,WNW,287,4.2,11.5,0,0.10,,---,0.10,VWS V14.00,2013-10-18 21:19:00,
2013-10-18 17:20:00,61.1,0.0,29.76,SSW,210,4.5,13.8,0,0.10,,---,0.10,VWS V14.00,2013-10-18 21:20:00,
2013-10-18 17:21:00,61.1,0.0,29.76,SW,233,3.4,13.8,0,0.10,,---,0.10,VWS V14.00,2013-10-18 21:21:00,
2013-10-18 17:22:00,61.0,0.0,29.76,SSE,166,0.0,13.8,0,0.10,,---,0.10,VWS V14.00,2013-10-18 21:22:00,
2013-10-18 17:23:00,60.9,0.0,29.76,WNW,297,3.2,13.8,0,0.10,,---,0.10,VWS V14.00,2013-10-18 21:23:00,
2013-10-18 17:24:00,60.8,0.0,29.76,WSW,252,4.3,13.8,0,0.10,,---,0.10,VWS V14.00,2013-10-18 21:24:00,
2013-10-18 17:25:00,60.7,0.0,29.76,SW,226,4.7,10.7,0,0.10,,---,0.10,VWS V14.00,2013-10-18 21:25:00,
2013-10-18 17:26:00,60.7,0.0,29.76,WSW,248,4.3,10.7,0,0.10,,---,0.10,VWS V14.00,2013-10-18 21:26:00,
2013-10-18 17:27:00,60.5,0.0,29.76,SSW,194,5.5,10.7,0,0.10,,---,0.10,VWS V14.00,2013-10-18 21:27:00,
2013-10-18 17:28:00,60.5,0.0,29.76,SW,225,3.5,10.7,0,0.10,,---,0.10,VWS V14.00,2013-10-18 21:28:00,
2013-10-18 17:29:00,60.6,0.0,29.76,WSW,240,6.8,10.7,0,0.10,,---,0.10,VWS V14.00,2013-10-18 21:29:00,
2013-10-18 17:30:00,60.6,0.0,29.76,SW,233,7.4,10.9,0,0.10,,---,0.10,VWS V14.00,2013-10-18 21:30:00,
2013-10-18 17:31:00,60.6,0.0,29.76,SSW,197,3.0,10.9,0,0.10,,---,0.10,VWS V14.00,2013-10-18 21:31:00,
2013-10-18 17:32:00,60.6,0.0,29.76,WNW,283,5.6,10.9,0,0.10,,---,0.10,VWS V14.00,2013-10-18 21:32:00,
2013-10-18 17:33:00,60.6,0.0,29.76,West,274,5.9,10.9,0,0.10,,---,0.10,VWS V14.00,2013-10-18 21:33:00,
2013-10-18 17:34:00,60.5,0.0,29.76,WSW,239,3.5,10.9,0,0.10,,---,0.10,VWS V14.00,2013-10-18 21:34:00,
2013-10-18 17:35:00,60.6,0.0,29.76,SSW,211,0.0,11.6,0,0.10,,---,0.10,VWS V14.00,2013-10-18 21:35:00,
2013-10-18 17:36:00,60.5,0.0,29.76,West,267,3.0,11.6,0,0.10,,---,0.10,VWS V14.00,2013-10-18 21:36:00,
2013-10-18 17:37:00,60.4,0.0,29.76,West,266,7.6,11.6,0,0.10,,---,0.10,VWS V14.00,2013-10-18 21:37:00,
2013-10-18 17:38:00,60.5,0.0,29.76,SSW,205,5.3,11.6,0,0.10,,---,0.10,VWS V14.00,2013-10-18 21:38:00,
2013-10-18 17:39:00,60.5,0.0,29.77,West,273,4.2,11.6,0,0.10,,---,0.10,VWS V14.00,2013-10-18 21:39:00,
2013-10-18 17:40:00,60.3,0.0,29.77,SSW,193,0.0,10.5,0,0.10,,---,0.10,VWS V14.00,2013-10-18 21:40:00,
2013-10-18 17:41:00,60.2,0.0,29.77,SSW,208,2.5,10.5,0,0.10,,---,0.10,VWS V14.00,2013-10-18 21:41:00,
2013-10-18 17:42:00,60.1,0.0,29.77,SSW,198,4.6,10.5,0,0.10,,---,0.10,VWS V14.00,2013-10-18 21:42:00,
2013-10-18 17:43:00,60.0,0.0,29.77,WNW,295,4.9,10.5,0,0.10,,---,0.10,VWS V14.00,2013-10-18 21:43:00,
2013-10-18 17:44:00,59.9,0.0,29.77,WNW,283,4.8,10.5,0,0.10,,---,0.10,VWS V14.00,2013-10-18 21:44:00,
2013-10-18 17:45:00,59.9,0.0,29.77,SW,222,4.2,10.3,0,0.10,,---,0.10,VWS V14.00,2013-10-18 21:45:00,
2013-10-18 17:46:00,60.0,0.0,29.77,WSW,248,4.4,10.3,0,0.10,,---,0.10,VWS V14.00,2013-10-18 21:46:00,
2013-10-18 17:47:00,60.0,0.0,29.77,SW,222,0.0,10.3,0,0.10,,---,0.10,VWS V14.00,2013-10-18 21:47:00,
2013-10-18 17:48:00,59.9,0.0,29.77,WSW,257,2.5,10.3,0,0.10,,---,0.10,VWS V14.00,2013-10-18 21:48:00,
2013-10-18 17:49:00,59.8,0.0,29.77,SW,214,5.3,10.3,0,0.10,,---,0.10,VWS V14.00,2013-10-18 21:49:00,
2013-10-18 17:50:00,59.9,0.0,29.77,SW,229,0.0,10.3,0,0.10,,---,0.10,VWS V14.00,2013-10-18 21:50:00,
2013-10-18 17:51:00,59.8,0.0,29.77,SW,232,0.0,8.1,0,0.10,,---,0.10,VWS V14.00,2013-10-18 21:51:00,
2013-10-18 17:52:00,59.8,0.0,29.77,SW,232,2.9,8.1,0,0.10,,---,0.10,VWS V14.00,2013-10-18 21:52:00,
2013-10-18 17:53:00,59.7,0.0,29.77,WSW,243,3.0,8.1,0,0.10,,---,0.10,VWS V14.00,2013-10-18 21:53:00,
2013-10-18 17:54:00,59.7,0.0,29.77,WSW,239,3.4,8.1,0,0.10,,---,0.10,VWS V14.00,2013-10-18 21:54:00,
2013-10-18 17:55:00,59.6,0.0,29.77,WSW,249,3.0,8.1,0,0.10,,---,0.10,VWS V14.00,2013-10-18 21:55:00,
2013-10-18 17:56:00,59.5,0.0,29.77,West,278,6.3,6.5,0,0.10,,---,0.10,VWS V14.00,2013-10-18 21:56:00,
2013-10-18 17:57:00,59.4,0.0,29.77,WSW,248,3.2,6.5,0,0.10,,---,0.10,VWS V14.00,2013-10-18 21:57:00,
2013-10-18 17:58:00,59.4,0.0,29.78,SW,215,4.3,6.5,0,0.10,,---,0.10,VWS V14.00,2013-10-18 21:58:00,
2013-10-18 17:59:00,59.4,0.0,29.78,SSW,211,3.5,6.5,0,0.10,,---,0.10,VWS V14.00,2013-10-18 21:59:00,
2013-10-18 18:00:00,59.5,0.0,29.78,West,259,0.0,8.4,0,0.10,,---,0.10,VWS V14.00,2013-10-18 22:00:00,
2013-10-18 18:01:00,59.4,0.0,29.78,NW,315,4.2,8.4,0,0.10,,---,0.10,VWS V14.00,2013-10-18 22:01:00,
2013-10-18 18:02:00,59.4,0.0,29.78,NW,315,0.0,8.4,0,0.10,,---,0.10,VWS V14.00,2013-10-18 22:02:00,
2013-10-18 18:03:00,59.5,0.0,29.78,SW,226,2.5,8.4,0,0.10,,---,0.10,VWS V14.00,2013-10-18 22:03:00,
2013-10-18 18:04:00,59.4,0.0,29.78,SSW,208,0.0,8.4,0,0.10,,---,0.10,VWS V14.00,2013-10-18 22:04:00,
2013-10-18 18:05:00,59.5,0.0,29.78,SSW,208,0.0,5.8,0,0.10,,---,0.10,VWS V14.00,2013-10-18 22:05:00,
2013-10-18 18:06:00,59.5,0.0,29.78,SW,219,4.8,5.8,0,0.10,,---,0.10,VWS V14.00,2013-10-18 22:06:00,
2013-10-18 18:07:00,59.5,0.0,29.78,SW,233,4.4,5.8,0,0.10,,---,0.10,VWS V14.00,2013-10-18 22:07:00,
2013-10-18 18:08:00,59.5,0.0,29.78,West,269,0.0,5.8,0,0.10,,---,0.10,VWS V14.00,2013-10-18 22:08:00,
2013-10-18 18:09:00,59.4,0.0,29.78,WSW,239,5.0,5.8,0,0.10,,---,0.10,VWS V14.00,2013-10-18 22:09:00,
2013-10-18 18:10:00,59.4,0.0,29.78,SW,215,3.5,8.1,0,0.10,,---,0.10,VWS V14.00,2013-10-18 22:10:00,
2013-10-18 18:11:00,59.3,0.0,29.78,SW,218,4.3,8.1,0,0.10,,---,0.10,VWS V14.00,2013-10-18 22:11:00,
2013-10-18 18:12:00,59.2,0.0,29.78,SW,221,7.8,8.1,0,0.10,,---,0.10,VWS V14.00,2013-10-18 22:12:00,
2013-10-18 18:13:00,59.1,0.0,29.78,SW,218,4.6,8.1,0,0.10,,---,0.10,VWS V14.00,2013-10-18 22:13:00,
2013-10-18 18:14:00,59.1,0.0,29.78,SW,232,4.6,8.1,0,0.10,,---,0.10,VWS V14.00,2013-10-18 22:14:00,
2013-10-18 18:15:00,59.1,0.0,29.78,SSW,211,7.0,8.0,0,0.10,,---,0.10,VWS V14.00,2013-10-18 22:15:00,
2013-10-18 18:16:00,59.0,0.0,29.78,SW,226,4.7,8.0,0,0.10,,---,0.10,VWS V14.00,2013-10-18 22:16:00,
2013-10-18 18:17:00,59.0,0.0,29.78,SW,226,5.5,8.0,0,0.10,,---,0.10,VWS V14.00,2013-10-18 22:17:00,
2013-10-18 18:18:00,59.1,0.0,29.78,SW,225,4.4,8.0,0,0.10,,---,0.10,VWS V14.00,2013-10-18 22:18:00,
2013-10-18 18:19:00,59.0,0.0,29.78,SW,222,5.9,8.0,0,0.10,,---,0.10,VWS V14.00,2013-10-18 22:19:00,
2013-10-18 18:20:00,59.0,0.0,29.78,SW,221,4.7,7.7,0,0.10,,---,0.10,VWS V14.00,2013-10-18 22:20:00,
2013-10-18 18:21:00,58.9,0.0,29.78,SSW,212,3.5,7.7,0,0.10,,---,0.10,VWS V14.00,2013-10-18 22:21:00,
2013-10-18 18:22:00,58.9,0.0,29.78,WSW,250,3.4,7.7,0,0.10,,---,0.10,VWS V14.00,2013-10-18 22:22:00,
2013-10-18 18:23:00,58.9,0.0,29.78,West,277,6.2,7.7,0,0.10,,---,0.10,VWS V14.00,2013-10-18 22:23:00,
2013-10-18 18:24:00,58.8,0.0,29.78,WSW,238,7.3,7.7,0,0.10,,---,0.10,VWS V14.00,2013-10-18 22:24:00,
2013-10-18 18:25:00,58.8,0.0,29.78,SW,222,7.3,10.8,0,0.10,,---,0.10,VWS V14.00,2013-10-18 22:25:00,
2013-10-18 18:26:00,58.8,0.0,29.78,WSW,246,3.0,10.8,0,0.10,,---,0.10,VWS V14.00,2013-10-18 22:26:00,
2013-10-18 18:27:00,58.8,0.0,29.78,WSW,248,6.0,10.8,0,0.10,,---,0.10,VWS V14.00,2013-10-18 22:27:00,
2013-10-18 18:28:00,58.7,0.0,29.78,SW,224,3.5,10.8,0,0.10,,---,0.10,VWS V14.00,2013-10-18 22:28:00,
2013-10-18 18:29:00,58.7,0.0,29.78,SW,226,7.0,10.8,0,0.10,,---,0.10,VWS V14.00,2013-10-18 22:29:00,
2013-10-18 18:30:00,58.7,0.0,29.78,SW,222,3.4,9.5,0,0.10,,---,0.10,VWS V14.00,2013-10-18 22:30:00,
2013-10-18 18:31:00,58.7,0.0,29.79,SSW,202,0.0,9.5,0,0.10,,---,0.10,VWS V14.00,2013-10-18 22:31:00,
2013-10-18 18:32:00,58.6,0.0,29.78,SSW,202,0.0,9.5,0,0.10,,---,0.10,VWS V14.00,2013-10-18 22:32:00,
2013-10-18 18:33:00,58.6,0.0,29.79,SSW,202,0.0,9.5,0,0.10,,---,0.10,VWS V14.00,2013-10-18 22:33:00,
2013-10-18 18:34:00,58.6,0.0,29.79,SW,228,4.7,9.5,0,0.10,,---,0.10,VWS V14.00,2013-10-18 22:34:00,
2013-10-18 18:35:00,58.5,0.0,29.79,SSW,198,0.0,6.5,0,0.10,,---,0.10,VWS V14.00,2013-10-18 22:35:00,
2013-10-18 18:36:00,58.5,0.0,29.79,SW,229,5.5,6.5,0,0.10,,---,0.10,VWS V14.00,2013-10-18 22:36:00,
2013-10-18 18:37:00,58.4,0.0,29.79,SW,232,4.7,6.5,0,0.10,,---,0.10,VWS V14.00,2013-10-18 22:37:00,
2013-10-18 18:38:00,58.4,0.0,29.79,SW,217,4.7,6.5,0,0.10,,---,0.10,VWS V14.00,2013-10-18 22:38:00,
2013-10-18 18:39:00,58.4,0.0,29.79,SW,221,0.0,6.5,0,0.10,,---,0.10,VWS V14.00,2013-10-18 22:39:00,
2013-10-18 18:40:00,58.3,0.0,29.79,WSW,239,0.0,6.5,0,0.10,,---,0.10,VWS V14.00,2013-10-18 22:40:00,
2013-10-18 18:41:00,58.3,0.0,29.79,SW,215,3.4,6.5,0,0.10,,---,0.10,VWS V14.00,2013-10-18 22:41:00,
2013-10-18 18:42:00,58.3,0.0,29.79,SSW,205,5.1,6.5,0,0.10,,---,0.10,VWS V14.00,2013-10-18 22:42:00,
2013-10-18 18:43:00,58.3,0.0,29.79,SW,219,7.6,7.6,0,0.10,,---,0.10,VWS V14.00,2013-10-18 22:43:00,
2013-10-18 18:44:00,58.2,0.0,29.79,SW,229,4.7,6.5,0,0.10,,---,0.10,VWS V14.00,2013-10-18 22:44:00,
2013-10-18 18:45:00,58.2,0.0,29.79,SW,229,8.3,8.7,0,0.10,,---,0.10,VWS V14.00,2013-10-18 22:45:00,
2013-10-18 18:46:00,58.2,0.0,29.79,SSW,210,6.7,8.7,0,0.10,,---,0.10,VWS V14.00,2013-10-18 22:46:00,
2013-10-18 18:47:00,58.1,0.0,29.79,WSW,238,6.0,8.7,0,0.10,,---,0.10,VWS V14.00,2013-10-18 22:47:00,
2013-10-18 18:48:00,58.1,0.0,29.79,SSW,212,3.4,8.7,0,0.10,,---,0.10,VWS V14.00,2013-10-18 22:48:00,
2013-10-18 18:49:00,58.1,0.0,29.79,WSW,246,5.8,8.7,0,0.10,,---,0.10,VWS V14.00,2013-10-18 22:49:00,
2013-10-18 18:50:00,58.0,0.0,29.79,WSW,239,7.7,8.9,0,0.10,,---,0.10,VWS V14.00,2013-10-18 22:50:00,
2013-10-18 18:51:00,58.0,0.0,29.79,SW,215,7.0,8.9,0,0.10,,---,0.10,VWS V14.00,2013-10-18 22:51:00,
2013-10-18 18:52:00,57.9,0.0,29.79,WSW,240,4.7,8.9,0,0.10,,---,0.10,VWS V14.00,2013-10-18 22:52:00,
2013-10-18 18:53:00,57.9,0.0,29.79,WSW,242,4.5,8.9,0,0.10,,---,0.10,VWS V14.00,2013-10-18 22:53:00,
2013-10-18 18:54:00,58.0,0.0,29.79,SW,219,5.5,8.9,0,0.10,,---,0.10,VWS V14.00,2013-10-18 22:54:00,
2013-10-18 18:55:00,58.0,0.0,29.79,SW,221,4.8,8.9,0,0.10,,---,0.10,VWS V14.00,2013-10-18 22:55:00,
2013-10-18 18:56:00,57.9,0.0,29.79,WSW,245,5.7,8.6,0,0.10,,---,0.10,VWS V14.00,2013-10-18 22:56:00,
2013-10-18 18:57:00,57.9,0.0,29.79,SW,225,6.3,8.6,0,0.10,,---,0.10,VWS V14.00,2013-10-18 22:57:00,
2013-10-18 18:58:00,57.9,0.0,29.79,SW,233,6.1,8.6,0,0.10,,---,0.10,VWS V14.00,2013-10-18 22:58:00,
2013-10-18 18:59:00,57.8,0.0,29.80,SW,233,6.0,8.6,0,0.10,,---,0.10,VWS V14.00,2013-10-18 22:59:00,
2013-10-18 19:00:00,57.8,0.0,29.80,SW,231,6.0,7.4,0,0.10,,---,0.10,VWS V14.00,2013-10-18 23:00:00,
2013-10-18 19:01:00,57.9,0.0,29.79,SW,232,5.2,7.4,0,0.10,,---,0.10,VWS V14.00,2013-10-18 23:01:00,
2013-10-18 19:02:00,57.8,0.0,29.79,South,188,2.2,7.4,0,0.10,,---,0.10,VWS V14.00,2013-10-18 23:02:00,
2013-10-18 19:03:00,57.7,0.0,29.80,SW,217,0.0,7.4,0,0.10,,---,0.10,VWS V14.00,2013-10-18 23:03:00,
2013-10-18 19:04:00,57.7,0.0,29.80,WSW,248,4.8,7.4,0,0.10,,---,0.10,VWS V14.00,2013-10-18 23:04:00,
2013-10-18 19:05:00,57.6,0.0,29.80,SSW,194,0.0,6.6,0,0.10,,---,0.10,VWS V14.00,2013-10-18 23:05:00,
2013-10-18 19:06:00,57.6,0.0,29.80,SSW,195,0.0,6.6,0,0.10,,---,0.10,VWS V14.00,2013-10-18 23:06:00,
2013-10-18 19:07:00,57.5,0.0,29.80,SW,229,4.2,6.6,0,0.10,,---,0.10,VWS V14.00,2013-10-18 23:07:00,
2013-10-18 19:08:00,57.4,0.0,29.80,SW,231,5.7,6.6,0,0.10,,---,0.10,VWS V14.00,2013-10-18 23:08:00,
2013-10-18 19:09:00,57.4,0.0,29.80,SW,232,3.4,6.6,0,0.10,,---,0.10,VWS V14.00,2013-10-18 23:09:00,
2013-10-18 19:10:00,57.2,0.0,29.80,SSW,198,3.2,6.1,0,0.10,,---,0.10,VWS V14.00,2013-10-18 23:10:00,
2013-10-18 19:11:00,57.1,0.0,29.80,SW,222,4.7,6.1,0,0.10,,---,0.10,VWS V14.00,2013-10-18 23:11:00,
2013-10-18 19:12:00,57.1,0.0,29.80,SSW,197,2.9,6.1,0,0.10,,---,0.10,VWS V14.00,2013-10-18 23:12:00,
2013-10-18 19:13:00,57.0,0.0,29.80,SSW,193,3.5,6.1,0,0.10,,---,0.10,VWS V14.00,2013-10-18 23:13:00,
2013-10-18 19:14:00,57.0,0.0,29.80,SW,232,3.4,6.1,0,0.10,,---,0.10,VWS V14.00,2013-10-18 23:14:00,
2013-10-18 19:15:00,57.0,0.0,29.80,SW,231,6.1,6.5,0,0.10,,---,0.10,VWS V14.00,2013-10-18 23:15:00,
2013-10-18 19:16:00,57.1,0.0,29.80,SSW,211,3.3,6.5,0,0.10,,---,0.10,VWS V14.00,2013-10-18 23:16:00,
2013-10-18 19:17:00,57.1,0.0,29.80,SW,217,0.0,6.5,0,0.10,,---,0.10,VWS V14.00,2013-10-18 23:17:00,
2013-10-18 19:18:00,57.1,0.0,29.80,SW,224,3.5,6.5,0,0.10,,---,0.10,VWS V14.00,2013-10-18 23:18:00,
2013-10-18 19:19:00,57.2,0.0,29.80,SW,222,0.0,6.5,0,0.10,,---,0.10,VWS V14.00,2013-10-18 23:19:00,
2013-10-18 19:20:00,57.1,0.0,29.80,South,190,2.8,6.3,0,0.10,,---,0.10,VWS V14.00,2013-10-18 23:20:00,
2013-10-18 19:21:00,57.1,0.0,29.80,WSW,242,0.0,6.3,0,0.10,,---,0.10,VWS V14.00,2013-10-18 23:21:00,
2013-10-18 19:22:00,57.1,0.0,29.80,SW,217,0.0,6.3,0,0.10,,---,0.10,VWS V14.00,2013-10-18 23:22:00,
2013-10-18 19:23:00,57.1,0.0,29.80,SSW,195,3.2,6.3,0,0.10,,---,0.10,VWS V14.00,2013-10-18 23:23:00,
2013-10-18 19:24:00,57.2,0.0,29.80,WSW,246,4.4,6.3,0,0.10,,---,0.10,VWS V14.00,2013-10-18 23:24:00,
2013-10-18 19:25:00,57.2,0.0,29.81,SW,219,6.5,7.6,0,0.10,,---,0.10,VWS V14.00,2013-10-18 23:25:00,
2013-10-18 19:26:00,57.2,0.0,29.80,SW,235,4.3,7.6,0,0.10,,---,0.10,VWS V14.00,2013-10-18 23:26:00,
2013-10-18 19:27:00,57.2,0.0,29.80,WSW,243,4.8,7.6,0,0.10,,---,0.10,VWS V14.00,2013-10-18 23:27:00,
2013-10-18 19:28:00,57.2,0.0,29.80,SW,229,4.6,7.6,0,0.10,,---,0.10,VWS V14.00,2013-10-18 23:28:00,
2013-10-18 19:29:00,57.1,0.0,29.81,SW,228,5.0,7.6,0,0.10,,---,0.10,VWS V14.00,2013-10-18 23:29:00,
2013-10-18 19:30:00,57.0,0.0,29.81,SSW,210,3.1,6.9,0,0.10,,---,0.10,VWS V14.00,2013-10-18 23:30:00,
2013-10-18 19:31:00,57.0,0.0,29.81,SSW,204,5.0,6.9,0,0.10,,---,0.10,VWS V14.00,2013-10-18 23:31:00,
2013-10-18 19:32:00,56.9,0.0,29.81,WSW,239,4.7,6.9,0,0.10,,---,0.10,VWS V14.00,2013-10-18 23:32:00,
2013-10-18 19:33:00,56.9,0.0,29.81,SW,233,3.3,6.9,0,0.10,,---,0.10,VWS V14.00,2013-10-18 23:33:00,
2013-10-18 19:34:00,56.8,0.0,29.81,SSW,205,3.0,6.9,0,0.10,,---,0.10,VWS V14.00,2013-10-18 23:34:00,
2013-10-18 19:35:00,56.8,0.0,29.81,SW,221,3.5,7.0,0,0.10,,---,0.10,VWS V14.00,2013-10-18 23:35:00,
2013-10-18 19:36:00,56.7,0.0,29.81,SW,232,4.7,7.0,0,0.10,,---,0.10,VWS V14.00,2013-10-18 23:36:00,
2013-10-18 19:37:00,56.7,0.0,29.81,SSW,207,3.4,7.0,0,0.10,,---,0.10,VWS V14.00,2013-10-18 23:37:00,
2013-10-18 19:38:00,56.6,0.0,29.81,SSW,207,0.0,7.0,0,0.10,,---,0.10,VWS V14.00,2013-10-18 23:38:00,
2013-10-18 19:39:00,56.6,0.0,29.81,SW,225,3.4,7.0,0,0.10,,---,0.10,VWS V14.00,2013-10-18 23:39:00,
2013-10-18 19:40:00,56.4,0.0,29.81,South,176,0.0,6.5,0,0.10,,---,0.10,VWS V14.00,2013-10-18 23:40:00,
2013-10-18 19:41:00,56.4,0.0,29.81,SSW,205,4.6,6.5,0,0.10,,---,0.10,VWS V14.00,2013-10-18 23:41:00,
2013-10-18 19:42:00,56.3,0.0,29.81,SW,219,4.8,6.5,0,0.10,,---,0.10,VWS V14.00,2013-10-18 23:42:00,
2013-10-18 19:43:00,56.3,0.0,29.82,SSW,195,0.0,6.5,0,0.10,,---,0.10,VWS V14.00,2013-10-18 23:43:00,
2013-10-18 19:44:00,56.3,0.0,29.82,SSW,195,0.0,6.5,0,0.10,,---,0.10,VWS V14.00,2013-10-18 23:44:00,
2013-10-18 19:45:00,56.3,0.0,29.82,SSW,195,2.9,5.1,0,0.10,,---,0.10,VWS V14.00,2013-10-18 23:45:00,
2013-10-18 19:46:00,56.3,0.0,29.82,SSW,194,0.0,5.1,0,0.10,,---,0.10,VWS V14.00,2013-10-18 23:46:00,
2013-10-18 19:47:00,56.3,0.0,29.82,SW,215,2.9,5.1,0,0.10,,---,0.10,VWS V14.00,2013-10-18 23:47:00,
2013-10-18 19:48:00,56.3,0.0,29.82,SW,217,4.6,5.1,0,0.10,,---,0.10,VWS V14.00,2013-10-18 23:48:00,
2013-10-18 19:49:00,56.2,0.0,29.82,South,181,4.7,5.1,0,0.10,,---,0.10,VWS V14.00,2013-10-18 23:49:00,
2013-10-18 19:50:00,56.2,0.0,29.82,SSW,201,5.0,5.8,0,0.10,,---,0.10,VWS V14.00,2013-10-18 23:50:00,
2013-10-18 19:51:00,56.1,0.0,29.82,South,174,0.0,5.8,0,0.10,,---,0.10,VWS V14.00,2013-10-18 23:51:00,
2013-10-18 19:52:00,56.0,0.0,29.82,SW,222,5.4,5.8,0,0.10,,---,0.10,VWS V14.00,2013-10-18 23:52:00,
2013-10-18 19:53:00,55.9,0.0,29.82,SW,218,0.0,5.8,0,0.10,,---,0.10,VWS V14.00,2013-10-18 23:53:00,
2013-10-18 19:54:00,55.9,0.0,29.82,SSW,211,2.9,5.8,0,0.10,,---,0.10,VWS V14.00,2013-10-18 23:54:00,
2013-10-18 19:55:00,55.7,0.0,29.82,SSW,212,3.4,5.5,0,0.10,,---,0.10,VWS V14.00,2013-10-18 23:55:00,
2013-10-18 19:56:00,55.6,0.0,29.82,SW,217,3.1,5.5,0,0.10,,---,0.10,VWS V14.00,2013-10-18 23:56:00,
2013-10-18 19:57:00,55.6,0.0,29.82,South,191,3.4,5.5,0,0.10,,---,0.10,VWS V14.00,2013-10-18 23:57:00,
2013-10-18 19:58:00,55.4,0.0,29.82,SW,219,3.1,5.5,0,0.10,,---,0.10,VWS V14.00,2013-10-18 23:58:00,
2013-10-18 19:59:00,55.4,0.0,29.82,SW,231,2.6,5.5,0,0.10,,---,0.10,VWS V14.00,2013-10-18 23:59:00,
2013-10-18 20:00:00,55.3,0.0,29.82,SSW,210,4.3,5.5,0,0.10,,---,0.10,VWS V14.00,2013-10-19 00:00:00,
2013-10-18 20:01:00,55.2,0.0,29.82,WSW,238,4.3,5.5,0,0.10,,---,0.10,VWS V14.00,2013-10-19 00:01:00,
2013-10-18 20:02:00,55.2,0.0,29.82,SW,221,5.0,5.5,0,0.10,,---,0.10,VWS V14.00,2013-10-19 00:02:00,
2013-10-18 20:03:00,55.3,0.0,29.82,SSW,194,0.0,5.5,0,0.10,,---,0.10,VWS V14.00,2013-10-19 00:03:00,
2013-10-18 20:04:00,55.4,0.0,29.82,SW,217,5.9,5.9,0,0.10,,---,0.10,VWS V14.00,2013-10-19 00:04:00,
2013-10-18 20:05:00,55.4,0.0,29.82,SSW,212,3.3,6.6,0,0.10,,---,0.10,VWS V14.00,2013-10-19 00:05:00,
2013-10-18 20:06:00,55.4,0.0,29.82,SW,231,7.5,7.5,0,0.10,,---,0.10,VWS V14.00,2013-10-19 00:06:00,
2013-10-18 20:07:00,55.5,0.0,29.82,SW,226,0.0,6.6,0,0.10,,---,0.10,VWS V14.00,2013-10-19 00:07:00,
2013-10-18 20:08:00,55.6,0.0,29.82,SW,236,5.0,6.6,0,0.10,,---,0.10,VWS V14.00,2013-10-19 00:08:00,
2013-10-18 20:09:00,55.6,0.0,29.82,WSW,245,4.7,6.6,0,0.10,,---,0.10,VWS V14.00,2013-10-19 00:09:00,
2013-10-18 20:10:00,55.6,0.0,29.82,WSW,245,6.1,8.1,0,0.10,,---,0.10,VWS V14.00,2013-10-19 00:10:00,
2013-10-18 20:11:00,55.5,0.0,29.82,WSW,240,4.9,8.1,0,0.10,,---,0.10,VWS V14.00,2013-10-19 00:11:00,
2013-10-18 20:12:00,55.5,0.0,29.82,WSW,249,5.5,8.1,0,0.10,,---,0.10,VWS V14.00,2013-10-19 00:12:00,
2013-10-18 20:13:00,55.5,0.0,29.82,SW,219,7.5,8.1,0,0.10,,---,0.10,VWS V14.00,2013-10-19 00:13:00,
2013-10-18 20:14:00,55.5,0.0,29.82,WSW,238,6.0,8.1,0,0.10,,---,0.10,VWS V14.00,2013-10-19 00:14:00,
2013-10-18 20:15:00,55.7,0.0,29.82,WSW,249,6.2,8.7,0,0.10,,---,0.10,VWS V14.00,2013-10-19 00:15:00,
2013-10-18 20:16:00,55.6,0.0,29.82,SW,229,3.4,8.7,0,0.10,,---,0.10,VWS V14.00,2013-10-19 00:16:00,
2013-10-18 20:17:00,55.8,0.0,29.82,SW,224,6.3,8.7,0,0.10,,---,0.10,VWS V14.00,2013-10-19 00:17:00,
2013-10-18 20:18:00,55.9,0.0,29.82,WSW,250,4.7,8.7,0,0.10,,---,0.10,VWS V14.00,2013-10-19 00:18:00,
2013-10-18 20:19:00,55.8,0.0,29.82,SSW,211,5.2,8.7,0,0.10,,---,0.10,VWS V14.00,2013-10-19 00:19:00,
2013-10-18 20:20:00,55.7,0.0,29.82,SW,235,4.7,9.3,0,0.10,,---,0.10,VWS V14.00,2013-10-19 00:20:00,
2013-10-18 20:21:00,55.7,0.0,29.82,WSW,250,4.9,9.3,0,0.10,,---,0.10,VWS V14.00,2013-10-19 00:21:00,
2013-10-18 20:22:00,55.8,0.0,29.82,SW,228,7.2,9.3,0,0.10,,---,0.10,VWS V14.00,2013-10-19 00:22:00,
2013-10-18 20:23:00,55.9,0.0,29.82,SW,215,3.5,9.3,0,0.10,,---,0.10,VWS V14.00,2013-10-19 00:23:00,
2013-10-18 20:24:00,55.9,0.0,29.82,WSW,239,7.4,9.3,0,0.10,,---,0.10,VWS V14.00,2013-10-19 00:24:00,
2013-10-18 20:25:00,56.0,0.0,29.82,SW,222,6.0,10.5,0,0.10,,---,0.10,VWS V14.00,2013-10-19 00:25:00,
2013-10-18 20:26:00,56.0,0.0,29.82,SW,225,5.7,10.5,0,0.10,,---,0.10,VWS V14.00,2013-10-19 00:26:00,
2013-10-18 20:27:00,55.9,0.0,29.82,WSW,246,5.8,10.5,0,0.10,,---,0.10,VWS V14.00,2013-10-19 00:27:00,
2013-10-18 20:28:00,56.0,0.0,29.82,SW,228,7.5,10.5,0,0.10,,---,0.10,VWS V14.00,2013-10-19 00:28:00,
2013-10-18 20:29:00,55.9,0.0,29.82,SW,228,9.9,10.5,0,0.10,,---,0.10,VWS V14.00,2013-10-19 00:29:00,
2013-10-18 20:30:00,55.9,0.0,29.83,SW,215,7.5,12.1,0,0.10,,---,0.10,VWS V14.00,2013-10-19 00:30:00,
2013-10-18 20:31:00,55.9,0.0,29.83,WSW,245,6.9,12.1,0,0.10,,---,0.10,VWS V14.00,2013-10-19 00:31:00,
2013-10-18 20:32:00,56.1,0.0,29.83,SW,225,7.6,12.1,0,0.10,,---,0.10,VWS V14.00,2013-10-19 00:32:00,
2013-10-18 20:33:00,56.0,0.0,29.83,SW,233,9.0,12.1,0,0.10,,---,0.10,VWS V14.00,2013-10-19 00:33:00,
2013-10-18 20:34:00,55.9,0.0,29.83,SW,232,9.4,12.1,0,0.10,,---,0.10,VWS V14.00,2013-10-19 00:34:00,
2013-10-18 20:35:00,56.0,0.0,29.83,SW,235,5.0,13.1,0,0.10,,---,0.10,VWS V14.00,2013-10-19 00:35:00,
2013-10-18 20:36:00,56.0,0.0,29.83,WSW,243,6.7,13.1,0,0.10,,---,0.10,VWS V14.00,2013-10-19 00:36:00,
2013-10-18 20:37:00,56.0,0.0,29.83,SW,233,9.7,13.1,0,0.10,,---,0.10,VWS V14.00,2013-10-19 00:37:00,
2013-10-18 20:38:00,56.2,0.0,29.83,SW,226,8.5,13.1,0,0.10,,---,0.10,VWS V14.00,2013-10-19 00:38:00,
2013-10-18 20:39:00,56.2,0.0,29.83,West,262,7.3,13.1,0,0.10,,---,0.10,VWS V14.00,2013-10-19 00:39:00,
2013-10-18 20:40:00,56.2,0.0,29.83,SW,225,5.2,16.9,0,0.10,,---,0.10,VWS V14.00,2013-10-19 00:40:00,
2013-10-18 20:41:00,56.3,0.0,29.83,SW,229,7.3,16.9,0,0.10,,---,0.10,VWS V14.00,2013-10-19 00:41:00,
2013-10-18 20:42:00,56.3,0.0,29.83,WNW,295,5.0,16.9,0,0.10,,---,0.10,VWS V14.00,2013-10-19 00:42:00,
2013-10-18 20:43:00,56.2,0.0,29.83,WSW,242,8.5,16.9,0,0.10,,---,0.10,VWS V14.00,2013-10-19 00:43:00,
2013-10-18 20:44:00,56.3,0.0,29.83,SW,222,7.7,16.9,0,0.10,,---,0.10,VWS V14.00,2013-10-19 00:44:00,
2013-10-18 20:45:00,56.3,0.0,29.83,SSW,210,7.6,14.6,0,0.10,,---,0.10,VWS V14.00,2013-10-19 00:45:00,
2013-10-18 20:46:00,56.2,0.0,29.83,NW,316,5.2,14.6,0,0.10,,---,0.10,VWS V14.00,2013-10-19 00:46:00,
2013-10-18 20:47:00,56.3,0.0,29.83,WSW,239,5.0,14.6,0,0.10,,---,0.10,VWS V14.00,2013-10-19 00:47:00,
2013-10-18 20:48:00,56.2,0.0,29.83,SSW,200,3.4,14.6,0,0.10,,---,0.10,VWS V14.00,2013-10-19 00:48:00,
2013-10-18 20:49:00,56.1,0.0,29.83,WSW,253,5.8,14.6,0,0.10,,---,0.10,VWS V14.00,2013-10-19 00:49:00,
2013-10-18 20:50:00,56.1,0.0,29.83,SW,231,5.8,12.8,0,0.10,,---,0.10,VWS V14.00,2013-10-19 00:50:00,
2013-10-18 20:51:00,56.0,0.0,29.83,WSW,245,4.4,12.8,0,0.10,,---,0.10,VWS V14.00,2013-10-19 00:51:00,
2013-10-18 20:52:00,55.9,0.0,29.83,West,262,3.4,12.8,0,0.10,,---,0.10,VWS V14.00,2013-10-19 00:52:00,
2013-10-18 20:53:00,55.9,0.0,29.83,SW,226,5.2,12.8,0,0.10,,---,0.10,VWS V14.00,2013-10-19 00:53:00,
2013-10-18 20:54:00,55.9,0.0,29.83,WSW,246,3.5,12.8,0,0.10,,---,0.10,VWS V14.00,2013-10-19 00:54:00,
2013-10-18 20:55:00,55.9,0.0,29.83,SW,225,6.6,9.3,0,0.10,,---,0.10,VWS V14.00,2013-10-19 00:55:00,
2013-10-18 20:56:00,55.9,0.0,29.83,SW,218,4.8,9.3,0,0.10,,---,0.10,VWS V14.00,2013-10-19 00:56:00,
2013-10-18 20:57:00,55.8,0.0,29.83,WSW,248,5.7,9.3,0,0.10,,---,0.10,VWS V14.00,2013-10-19 00:57:00,
2013-10-18 20:58:00,55.8,0.0,29.83,WSW,238,8.0,9.3,0,0.10,,---,0.10,VWS V14.00,2013-10-19 00:58:00,
2013-10-18 20:59:00,55.8,0.0,29.83,WSW,239,6.6,9.3,0,0.10,,---,0.10,VWS V14.00,2013-10-19 00:59:00,
2013-10-18 21:00:00,55.9,0.0,29.83,SW,226,4.3,9.3,0,0.10,,---,0.10,VWS V14.00,2013-10-19 01:00:00,
2013-10-18 21:01:00,55.9,0.0,29.83,WSW,242,4.6,9.8,0,0.10,,---,0.10,VWS V14.00,2013-10-19 01:01:00,
2013-10-18 21:02:00,55.8,0.0,29.83,SW,233,7.1,9.8,0,0.10,,---,0.10,VWS V14.00,2013-10-19 01:02:00,
2013-10-18 21:03:00,55.7,0.0,29.83,SW,231,7.1,9.8,0,0.10,,---,0.10,VWS V14.00,2013-10-19 01:03:00,
2013-10-18 21:04:00,55.7,0.0,29.83,SW,232,6.1,9.8,0,0.10,,---,0.10,VWS V14.00,2013-10-19 01:04:00,
2013-10-18 21:05:00,55.7,0.0,29.83,SW,218,4.5,9.8,0,0.10,,---,0.10,VWS V14.00,2013-10-19 01:05:00,
2013-10-18 21:06:00,55.7,0.0,29.83,SSW,200,5.8,11.8,0,0.10,,---,0.10,VWS V14.00,2013-10-19 01:06:00,
2013-10-18 21:07:00,55.6,0.0,29.83,WSW,240,5.3,11.8,0,0.10,,---,0.10,VWS V14.00,2013-10-19 01:07:00,
2013-10-18 21:08:00,55.6,0.0,29.83,SW,221,8.0,11.8,0,0.10,,---,0.10,VWS V14.00,2013-10-19 01:08:00,
2013-10-18 21:09:00,55.5,0.0,29.84,West,262,5.5,11.8,0,0.10,,---,0.10,VWS V14.00,2013-10-19 01:09:00,
2013-10-18 21:10:00,55.6,0.0,29.84,WSW,249,0.0,11.4,0,0.10,,---,0.10,VWS V14.00,2013-10-19 01:10:00,
2013-10-18 21:11:00,55.7,0.0,29.84,South,180,3.0,11.4,0,0.10,,---,0.10,VWS V14.00,2013-10-19 01:11:00,
2013-10-18 21:12:00,55.7,0.0,29.84,SW,215,3.0,11.4,0,0.10,,---,0.10,VWS V14.00,2013-10-19 01:12:00,
2013-10-18 21:13:00,55.7,0.0,29.84,West,260,5.7,11.4,0,0.10,,---,0.10,VWS V14.00,2013-10-19 01:13:00,
2013-10-18 21:14:00,55.7,0.0,29.84,West,263,9.1,11.4,0,0.10,,---,0.10,VWS V14.00,2013-10-19 01:14:00,
2013-10-18 21:15:00,55.8,0.0,29.84,SW,231,4.8,10.7,0,0.10,,---,0.10,VWS V14.00,2013-10-19 01:15:00,
2013-10-18 21:16:00,55.8,0.0,29.84,SW,217,6.8,10.7,0,0.10,,---,0.10,VWS V14.00,2013-10-19 01:16:00,
2013-10-18 21:17:00,55.8,0.0,29.84,SW,228,3.4,10.7,0,0.10,,---,0.10,VWS V14.00,2013-10-19 01:17:00,
2013-10-18 21:18:00,55.7,0.0,29.84,SW,215,3.4,10.7,0,0.10,,---,0.10,VWS V14.00,2013-10-19 01:18:00,
2013-10-18 21:19:00,55.6,0.0,29.84,SW,228,5.3,10.7,0,0.10,,---,0.10,VWS V14.00,2013-10-19 01:19:00,
2013-10-18 21:20:00,55.7,0.0,29.84,SW,214,6.2,13.2,0,0.10,,---,0.10,VWS V14.00,2013-10-19 01:20:00,
2013-10-18 21:21:00,55.7,0.0,29.84,SW,231,4.6,13.2,0,0.10,,---,0.10,VWS V14.00,2013-10-19 01:21:00,
2013-10-18 21:22:00,55.5,0.0,29.84,WSW,246,5.2,13.2,0,0.10,,---,0.10,VWS V14.00,2013-10-19 01:22:00,
2013-10-18 21:23:00,55.5,0.0,29.84,WSW,257,6.5,13.2,0,0.10,,---,0.10,VWS V14.00,2013-10-19 01:23:00,
2013-10-18 21:24:00,55.5,0.0,29.84,WSW,255,9.1,13.2,0,0.10,,---,0.10,VWS V14.00,2013-10-19 01:24:00,
2013-10-18 21:25:00,55.5,0.0,29.84,WNW,300,4.6,12.1,0,0.10,,---,0.10,VWS V14.00,2013-10-19 01:25:00,
2013-10-18 21:26:00,55.5,0.0,29.84,WSW,242,4.5,12.1,0,0.10,,---,0.10,VWS V14.00,2013-10-19 01:26:00,
2013-10-18 21:27:00,55.5,0.0,29.84,SW,222,4.8,12.1,0,0.10,,---,0.10,VWS V14.00,2013-10-19 01:27:00,
2013-10-18 21:28:00,55.5,0.0,29.84,NW,304,5.3,12.1,0,0.10,,---,0.10,VWS V14.00,2013-10-19 01:28:00,
2013-10-18 21:29:00,55.4,0.0,29.84,West,276,5.4,12.1,0,0.10,,---,0.10,VWS V14.00,2013-10-19 01:29:00,
2013-10-18 21:30:00,55.4,0.0,29.84,WSW,250,4.3,9.8,0,0.10,,---,0.10,VWS V14.00,2013-10-19 01:30:00,
2013-10-18 21:31:00,55.4,0.0,29.84,WSW,250,4.8,9.8,0,0.10,,---,0.10,VWS V14.00,2013-10-19 01:31:00,
2013-10-18 21:32:00,55.4,0.0,29.84,WSW,248,4.3,9.8,0,0.10,,---,0.10,VWS V14.00,2013-10-19 01:32:00,
2013-10-18 21:33:00,55.3,0.0,29.84,WSW,249,5.4,9.8,0,0.10,,---,0.10,VWS V14.00,2013-10-19 01:33:00,
2013-10-18 21:34:00,55.2,0.0,29.84,SW,219,6.3,9.8,0,0.10,,---,0.10,VWS V14.00,2013-10-19 01:34:00,
2013-10-18 21:35:00,55.2,0.0,29.85,WSW,256,4.1,9.7,0,0.10,,---,0.10,VWS V14.00,2013-10-19 01:35:00,
2013-10-18 21:36:00,55.1,0.0,29.85,West,260,3.0,9.7,0,0.10,,---,0.10,VWS V14.00,2013-10-19 01:36:00,
2013-10-18 21:37:00,55.1,0.0,29.85,West,263,0.0,9.7,0,0.10,,---,0.10,VWS V14.00,2013-10-19 01:37:00,
2013-10-18 21:38:00,55.1,0.0,29.85,SW,221,4.5,9.7,0,0.10,,---,0.10,VWS V14.00,2013-10-19 01:38:00,
2013-10-18 21:39:00,55.0,0.0,29.85,SW,224,6.5,9.7,0,0.10,,---,0.10,VWS V14.00,2013-10-19 01:39:00,
2013-10-18 21:40:00,54.9,0.0,29.85,SSW,208,3.2,7.3,0,0.10,,---,0.10,VWS V14.00,2013-10-19 01:40:00,
2013-10-18 21:41:00,55.0,0.0,29.85,West,277,0.0,7.3,0,0.10,,---,0.10,VWS V14.00,2013-10-19 01:41:00,
2013-10-18 21:42:00,54.9,0.0,29.85,SW,222,7.1,7.3,0,0.10,,---,0.10,VWS V14.00,2013-10-19 01:42:00,
2013-10-18 21:43:00,54.8,0.0,29.85,SW,228,4.4,7.3,0,0.10,,---,0.10,VWS V14.00,2013-10-19 01:43:00,
2013-10-18 21:44:00,54.8,0.0,29.85,West,274,6.4,7.3,0,0.10,,---,0.10,VWS V14.00,2013-10-19 01:44:00,
2013-10-18 21:45:00,54.8,0.0,29.85,WSW,257,7.6,9.9,0,0.10,,---,0.10,VWS V14.00,2013-10-19 01:45:00,
2013-10-18 21:46:00,54.8,0.0,29.85,SW,228,7.7,9.9,0,0.10,,---,0.10,VWS V14.00,2013-10-19 01:46:00,
2013-10-18 21:47:00,54.7,0.0,29.86,SSW,211,3.1,9.9,0,0.10,,---,0.10,VWS V14.00,2013-10-19 01:47:00,
2013-10-18 21:48:00,54.7,0.0,29.86,SW,218,6.3,9.9,0,0.10,,---,0.10,VWS V14.00,2013-10-19 01:48:00,
2013-10-18 21:49:00,54.7,0.0,29.86,WSW,249,3.4,9.9,0,0.10,,---,0.10,VWS V14.00,2013-10-19 01:49:00,
2013-10-18 21:50:00,54.6,0.0,29.86,WSW,243,6.2,9.9,0,0.10,,---,0.10,VWS V14.00,2013-10-19 01:50:00,
2013-10-18 21:51:00,54.7,0.0,29.86,WSW,240,4.5,9.9,0,0.10,,---,0.10,VWS V14.00,2013-10-19 01:51:00,
2013-10-18 21:52:00,54.6,0.0,29.86,SW,226,6.8,9.9,0,0.10,,---,0.10,VWS V14.00,2013-10-19 01:52:00,
2013-10-18 21:53:00,54.5,0.0,29.86,WSW,243,4.2,9.9,0,0.10,,---,0.10,VWS V14.00,2013-10-19 01:53:00,
2013-10-18 21:54:00,54.5,0.0,29.86,SW,236,5.3,9.9,0,0.10,,---,0.10,VWS V14.00,2013-10-19 01:54:00,
2013-10-18 21:55:00,54.5,0.0,29.86,West,267,5.8,11.5,0,0.10,,---,0.10,VWS V14.00,2013-10-19 01:55:00,
2013-10-18 21:56:00,54.5,0.0,29.86,SW,231,8.0,11.5,0,0.10,,---,0.10,VWS V14.00,2013-10-19 01:56:00,
2013-10-18 21:57:00,54.5,0.0,29.86,SW,226,5.5,11.5,0,0.10,,---,0.10,VWS V14.00,2013-10-19 01:57:00,
2013-10-18 21:58:00,54.5,0.0,29.86,SW,219,5.5,11.5,0,0.10,,---,0.10,VWS V14.00,2013-10-19 01:58:00,
2013-10-18 21:59:00,54.4,0.0,29.86,WSW,249,4.5,11.5,0,0.10,,---,0.10,VWS V14.00,2013-10-19 01:59:00,
2013-10-18 22:00:00,54.4,0.0,29.86,WSW,245,5.9,9.8,0,0.10,,---,0.10,VWS V14.00,2013-10-19 02:00:00,
2013-10-18 22:01:00,54.4,0.0,29.86,WSW,249,7.3,9.8,0,0.10,,---,0.10,VWS V14.00,2013-10-19 02:01:00,
2013-10-18 22:02:00,54.4,0.0,29.86,SW,215,6.7,9.8,0,0.10,,---,0.10,VWS V14.00,2013-10-19 02:02:00,
2013-10-18 22:03:00,54.3,0.0,29.86,SW,236,8.2,9.8,0,0.10,,---,0.10,VWS V14.00,2013-10-19 02:03:00,
2013-10-18 22:04:00,54.4,0.0,29.86,WSW,239,8.1,9.8,0,0.10,,---,0.10,VWS V14.00,2013-10-19 02:04:00,
2013-10-18 22:05:00,54.4,0.0,29.86,SW,221,7.9,9.8,0,0.10,,---,0.10,VWS V14.00,2013-10-19 02:05:00,
2013-10-18 22:06:00,54.3,0.0,29.86,SW,231,7.9,10.4,0,0.10,,---,0.10,VWS V14.00,2013-10-19 02:06:00,
2013-10-18 22:07:00,54.3,0.0,29.86,SW,222,8.6,10.4,0,0.10,,---,0.10,VWS V14.00,2013-10-19 02:07:00,
2013-10-18 22:08:00,54.2,0.0,29.86,West,263,4.6,10.4,0,0.10,,---,0.10,VWS V14.00,2013-10-19 02:08:00,
2013-10-18 22:09:00,54.1,0.0,29.86,WSW,239,8.9,10.4,0,0.10,,---,0.10,VWS V14.00,2013-10-19 02:09:00,
2013-10-18 22:10:00,54.2,0.0,29.86,SSW,211,5.3,10.4,0,0.10,,---,0.10,VWS V14.00,2013-10-19 02:10:00,
2013-10-18 22:11:00,54.2,0.0,29.86,SW,228,8.0,11.3,0,0.10,,---,0.10,VWS V14.00,2013-10-19 02:11:00,
2013-10-18 22:12:00,54.2,0.0,29.86,SW,236,5.0,11.3,0,0.10,,---,0.10,VWS V14.00,2013-10-19 02:12:00,
2013-10-18 22:13:00,54.3,0.0,29.86,WSW,239,8.6,11.3,0,0.10,,---,0.10,VWS V14.00,2013-10-19 02:13:00,
2013-10-18 22:14:00,54.1,0.0,29.86,SW,225,7.1,11.3,0,0.10,,---,0.10,VWS V14.00,2013-10-19 02:14:00,
2013-10-18 22:15:00,54.1,0.0,29.86,WSW,239,10.0,11.0,0,0.10,,---,0.10,VWS V14.00,2013-10-19 02:15:00,
2013-10-18 22:16:00,54.2,0.0,29.86,SW,232,7.9,11.0,0,0.10,,---,0.10,VWS V14.00,2013-10-19 02:16:00,
2013-10-18 22:17:00,54.2,0.0,29.86,WSW,238,8.6,11.0,0,0.10,,---,0.10,VWS V14.00,2013-10-19 02:17:00,
2013-10-18 22:18:00,54.1,0.0,29.86,SW,219,8.6,11.0,0,0.10,,---,0.10,VWS V14.00,2013-10-19 02:18:00,
2013-10-18 22:19:00,54.1,0.0,29.86,SW,217,6.1,11.0,0,0.10,,---,0.10,VWS V14.00,2013-10-19 02:19:00,
2013-10-18 22:20:00,54.1,0.0,29.86,SW,236,5.3,10.6,0,0.10,,---,0.10,VWS V14.00,2013-10-19 02:20:00,
2013-10-18 22:21:00,54.0,0.0,29.86,WSW,253,4.6,10.6,0,0.10,,---,0.10,VWS V14.00,2013-10-19 02:21:00,
2013-10-18 22:22:00,54.0,0.0,29.86,SSW,207,4.2,10.6,0,0.10,,---,0.10,VWS V14.00,2013-10-19 02:22:00,
2013-10-18 22:23:00,53.9,0.0,29.86,SW,228,0.0,10.6,0,0.10,,---,0.10,VWS V14.00,2013-10-19 02:23:00,
2013-10-18 22:24:00,53.9,0.0,29.86,SSW,193,0.0,10.6,0,0.10,,---,0.10,VWS V14.00,2013-10-19 02:24:00,
2013-10-18 22:25:00,53.8,0.0,29.86,SW,218,3.4,8.5,0,0.10,,---,0.10,VWS V14.00,2013-10-19 02:25:00,
2013-10-18 22:26:00,53.8,0.0,29.86,SW,233,0.0,8.5,0,0.10,,---,0.10,VWS V14.00,2013-10-19 02:26:00,
2013-10-18 22:27:00,53.7,0.0,29.86,WNW,295,0.0,8.5,0,0.10,,---,0.10,VWS V14.00,2013-10-19 02:27:00,
2013-10-18 22:28:00,53.7,0.0,29.86,SSW,194,4.8,8.5,0,0.10,,---,0.10,VWS V14.00,2013-10-19 02:28:00,
2013-10-18 22:29:00,53.7,0.0,29.86,West,259,6.5,8.5,0,0.10,,---,0.10,VWS V14.00,2013-10-19 02:29:00,
2013-10-18 22:30:00,53.6,0.0,29.86,WNW,285,0.0,8.0,0,0.10,,---,0.10,VWS V14.00,2013-10-19 02:30:00,
2013-10-18 22:31:00,53.6,0.0,29.86,West,263,4.3,8.0,0,0.10,,---,0.10,VWS V14.00,2013-10-19 02:31:00,
2013-10-18 22:32:00,53.6,0.0,29.86,WSW,253,5.2,8.0,0,0.10,,---,0.10,VWS V14.00,2013-10-19 02:32:00,
2013-10-18 22:33:00,53.6,0.0,29.86,WSW,253,0.0,8.0,0,0.10,,---,0.10,VWS V14.00,2013-10-19 02:33:00,
2013-10-18 22:34:00,53.7,0.0,29.86,SSW,205,3.2,8.0,0,0.10,,---,0.10,VWS V14.00,2013-10-19 02:34:00,
2013-10-18 22:35:00,53.8,0.0,29.86,SW,226,3.4,8.0,0,0.10,,---,0.10,VWS V14.00,2013-10-19 02:35:00,
2013-10-18 22:36:00,53.8,0.0,29.86,WNW,300,2.9,8.0,0,0.10,,---,0.10,VWS V14.00,2013-10-19 02:36:00,
2013-10-18 22:37:00,53.9,0.0,29.86,SSW,195,0.0,8.0,0,0.10,,---,0.10,VWS V14.00,2013-10-19 02:37:00,
2013-10-18 22:38:00,53.9,0.0,29.86,WSW,252,0.0,8.0,0,0.10,,---,0.10,VWS V14.00,2013-10-19 02:38:00,
2013-10-18 22:39:00,54.0,0.0,29.86,NNE,17,0.0,8.0,0,0.10,,---,0.10,VWS V14.00,2013-10-19 02:39:00,
2013-10-18 22:40:00,53.9,0.0,29.86,West,259,5.0,8.0,0,0.10,,---,0.10,VWS V14.00,2013-10-19 02:40:00,
2013-10-18 22:41:00,54.0,0.0,29.86,WSW,245,2.7,8.0,0,0.10,,---,0.10,VWS V14.00,2013-10-19 02:41:00,
2013-10-18 22:42:00,53.9,0.0,29.86,WSW,242,5.4,8.0,0,0.10,,---,0.10,VWS V14.00,2013-10-19 02:42:00,
2013-10-18 22:43:00,54.0,0.0,29.86,South,184,3.4,8.0,0,0.10,,---,0.10,VWS V14.00,2013-10-19 02:43:00,
2013-10-18 22:44:00,54.0,0.0,29.86,SW,226,2.7,8.0,0,0.10,,---,0.10,VWS V14.00,2013-10-19 02:44:00,
2013-10-18 22:45:00,54.0,0.0,29.85,SW,233,6.2,8.4,0,0.10,,---,0.10,VWS V14.00,2013-10-19 02:45:00,
2013-10-18 22:46:00,54.0,0.0,29.85,SW,219,4.6,8.4,0,0.10,,---,0.10,VWS V14.00,2013-10-19 02:46:00,
2013-10-18 22:47:00,53.9,0.0,29.85,SW,232,3.4,8.4,0,0.10,,---,0.10,VWS V14.00,2013-10-19 02:47:00,
2013-10-18 22:48:00,53.9,0.0,29.85,West,276,3.4,8.4,0,0.10,,---,0.10,VWS V14.00,2013-10-19 02:48:00,
2013-10-18 22:49:00,53.9,0.0,29.85,SW,214,5.5,8.4,0,0.10,,---,0.10,VWS V14.00,2013-10-19 02:49:00,
2013-10-18 22:50:00,53.8,0.0,29.85,SW,235,0.0,9.0,0,0.10,,---,0.10,VWS V14.00,2013-10-19 02:50:00,
2013-10-18 22:51:00,53.7,0.0,29.85,West,271,3.4,9.0,0,0.10,,---,0.10,VWS V14.00,2013-10-19 02:51:00,
2013-10-18 22:52:00,53.8,0.0,29.85,WSW,239,0.0,9.0,0,0.10,,---,0.10,VWS V14.00,2013-10-19 02:52:00,
2013-10-18 22:53:00,53.7,0.0,29.85,WSW,246,0.0,9.0,0,0.10,,---,0.10,VWS V14.00,2013-10-19 02:53:00,
2013-10-18 22:54:00,53.6,0.0,29.85,West,274,3.4,9.0,0,0.10,,---,0.10,VWS V14.00,2013-10-19 02:54:00,
2013-10-18 22:55:00,53.6,0.0,29.85,WSW,243,2.9,8.0,0,0.10,,---,0.10,VWS V14.00,2013-10-19 02:55:00,
2013-10-18 22:56:00,53.5,0.0,29.85,West,269,4.5,8.0,0,0.10,,---,0.10,VWS V14.00,2013-10-19 02:56:00,
2013-10-18 22:57:00,53.5,0.0,29.86,WNW,292,3.2,8.0,0,0.10,,---,0.10,VWS V14.00,2013-10-19 02:57:00,
2013-10-18 22:58:00,53.5,0.0,29.85,WSW,238,4.5,8.0,0,0.10,,---,0.10,VWS V14.00,2013-10-19 02:58:00,
2013-10-18 22:59:00,53.5,0.0,29.86,South,191,2.8,8.0,0,0.10,,---,0.10,VWS V14.00,2013-10-19 02:59:00,
2013-10-18 23:00:00,53.4,0.0,29.86,WSW,243,3.2,9.3,0,0.10,,---,0.10,VWS V14.00,2013-10-19 03:00:00,
2013-10-18 23:01:00,53.5,0.0,29.86,WSW,242,0.0,9.3,0,0.10,,---,0.10,VWS V14.00,2013-10-19 03:01:00,
2013-10-18 23:02:00,53.4,0.0,29.86,South,173,0.0,9.3,0,0.10,,---,0.10,VWS V14.00,2013-10-19 03:02:00,
2013-10-18 23:03:00,53.4,0.0,29.86,SW,225,0.0,9.3,0,0.10,,---,0.10,VWS V14.00,2013-10-19 03:03:00,
2013-10-18 23:04:00,53.5,0.0,29.86,South,190,3.1,9.3,0,0.10,,---,0.10,VWS V14.00,2013-10-19 03:04:00,
2013-10-18 23:05:00,53.4,0.0,29.86,WSW,239,1.7,7.5,0,0.10,,---,0.10,VWS V14.00,2013-10-19 03:05:00,
2013-10-18 23:06:00,53.4,0.0,29.86,South,174,0.0,7.5,0,0.10,,---,0.10,VWS V14.00,2013-10-19 03:06:00,
2013-10-18 23:07:00,53.5,0.0,29.86,SSW,194,0.0,7.5,0,0.10,,---,0.10,VWS V14.00,2013-10-19 03:07:00,
2013-10-18 23:08:00,53.4,0.0,29.86,SW,218,3.4,7.5,0,0.10,,---,0.10,VWS V14.00,2013-10-19 03:08:00,
2013-10-18 23:09:00,53.4,0.0,29.86,WSW,242,0.0,7.5,0,0.10,,---,0.10,VWS V14.00,2013-10-19 03:09:00,
2013-10-18 23:10:00,53.4,0.0,29.86,WSW,245,3.0,7.5,0,0.10,,---,0.10,VWS V14.00,2013-10-19 03:10:00,
2013-10-18 23:11:00,53.4,0.0,29.86,SW,218,6.4,8.1,0,0.10,,---,0.10,VWS V14.00,2013-10-19 03:11:00,
2013-10-18 23:12:00,53.3,0.0,29.86,SW,218,3.4,8.1,0,0.10,,---,0.10,VWS V14.00,2013-10-19 03:12:00,
2013-10-18 23:13:00,53.3,0.0,29.86,SW,231,3.2,8.1,0,0.10,,---,0.10,VWS V14.00,2013-10-19 03:13:00,